<?xml version="1.0" encoding="UTF-8" standalone="no" ?>
<gpx xmlns="http://www.topografix.com/GPX/1/1" xmlns:xsi="http://www.w3.org/2001/XMLSchema-instance" xsi:schemaLocation="http://www.topografix.com/GPX/1/1 http://www.topografix.com/GPX/1/1/gpx.xsd" version="1.1" creator="VisuGPX - https://www.visugpx.com">
  <metadata>
    <name>Cabanon des Marquis</name>
    <desc><![CDATA[Rando facile,beau point de vue sur le golfe de La Ciotat.]]></desc>
  </metadata>
  <trk>
    <name><![CDATA[Cabanon des Marquis_1]]></name>
    <trkseg>
      <trkpt lat="43.235" lon="5.67013">
        <ele>403</ele>
        <time>2014-10-08T06:26:22Z</time>
      </trkpt>
      <trkpt lat="43.23493" lon="5.67014">
        <ele>411.5</ele>
        <time>2014-10-08T06:26:23Z</time>
      </trkpt>
      <trkpt lat="43.23495" lon="5.67011">
        <ele>408.2</ele>
        <time>2014-10-08T06:26:25Z</time>
      </trkpt>
      <trkpt lat="43.23496" lon="5.67005">
        <ele>404.2</ele>
        <time>2014-10-08T06:26:27Z</time>
      </trkpt>
      <trkpt lat="43.235" lon="5.67008">
        <ele>408.8</ele>
        <time>2014-10-08T06:26:55Z</time>
      </trkpt>
      <trkpt lat="43.23504" lon="5.67006">
        <ele>413.2</ele>
        <time>2014-10-08T06:27:04Z</time>
      </trkpt>
      <trkpt lat="43.23502" lon="5.67002">
        <ele>409.6</ele>
        <time>2014-10-08T06:27:19Z</time>
      </trkpt>
      <trkpt lat="43.23501" lon="5.67001">
        <ele>409</ele>
        <time>2014-10-08T06:27:20Z</time>
      </trkpt>
      <trkpt lat="43.23502" lon="5.66992">
        <ele>401.5</ele>
        <time>2014-10-08T06:27:48Z</time>
      </trkpt>
      <trkpt lat="43.235" lon="5.66988">
        <ele>401.8</ele>
        <time>2014-10-08T06:27:51Z</time>
      </trkpt>
      <trkpt lat="43.23499" lon="5.66984">
        <ele>403.3</ele>
        <time>2014-10-08T06:27:54Z</time>
      </trkpt>
      <trkpt lat="43.23496" lon="5.6698">
        <ele>405</ele>
        <time>2014-10-08T06:27:57Z</time>
      </trkpt>
      <trkpt lat="43.23494" lon="5.66976">
        <ele>403.8</ele>
        <time>2014-10-08T06:28:02Z</time>
      </trkpt>
      <trkpt lat="43.23492" lon="5.66971">
        <ele>402.3</ele>
        <time>2014-10-08T06:28:07Z</time>
      </trkpt>
      <trkpt lat="43.23493" lon="5.66965">
        <ele>404.3</ele>
        <time>2014-10-08T06:28:11Z</time>
      </trkpt>
      <trkpt lat="43.23492" lon="5.6696">
        <ele>402.8</ele>
        <time>2014-10-08T06:28:16Z</time>
      </trkpt>
      <trkpt lat="43.23492" lon="5.66955">
        <ele>402.1</ele>
        <time>2014-10-08T06:28:20Z</time>
      </trkpt>
      <trkpt lat="43.23492" lon="5.66954">
        <ele>403.1</ele>
        <time>2014-10-08T06:28:21Z</time>
      </trkpt>
      <trkpt lat="43.23493" lon="5.66945">
        <ele>400.3</ele>
        <time>2014-10-08T06:28:28Z</time>
      </trkpt>
      <trkpt lat="43.23493" lon="5.66939">
        <ele>401.3</ele>
        <time>2014-10-08T06:28:31Z</time>
      </trkpt>
      <trkpt lat="43.23494" lon="5.66933">
        <ele>401.7</ele>
        <time>2014-10-08T06:28:35Z</time>
      </trkpt>
      <trkpt lat="43.23494" lon="5.66929">
        <ele>403.5</ele>
        <time>2014-10-08T06:28:38Z</time>
      </trkpt>
      <trkpt lat="43.23494" lon="5.66924">
        <ele>403.6</ele>
        <time>2014-10-08T06:28:42Z</time>
      </trkpt>
      <trkpt lat="43.23494" lon="5.66918">
        <ele>404.3</ele>
        <time>2014-10-08T06:28:45Z</time>
      </trkpt>
      <trkpt lat="43.23494" lon="5.66913">
        <ele>403.5</ele>
        <time>2014-10-08T06:28:49Z</time>
      </trkpt>
      <trkpt lat="43.23495" lon="5.66907">
        <ele>404.8</ele>
        <time>2014-10-08T06:28:54Z</time>
      </trkpt>
      <trkpt lat="43.23494" lon="5.66902">
        <ele>405.6</ele>
        <time>2014-10-08T06:28:57Z</time>
      </trkpt>
      <trkpt lat="43.23495" lon="5.66897">
        <ele>404.8</ele>
        <time>2014-10-08T06:29:02Z</time>
      </trkpt>
      <trkpt lat="43.23495" lon="5.66891">
        <ele>405.2</ele>
        <time>2014-10-08T06:29:06Z</time>
      </trkpt>
      <trkpt lat="43.23493" lon="5.66885">
        <ele>402.2</ele>
        <time>2014-10-08T06:29:24Z</time>
      </trkpt>
      <trkpt lat="43.23494" lon="5.66884">
        <ele>402.3</ele>
        <time>2014-10-08T06:29:25Z</time>
      </trkpt>
      <trkpt lat="43.23495" lon="5.66874">
        <ele>400.3</ele>
        <time>2014-10-08T06:29:35Z</time>
      </trkpt>
      <trkpt lat="43.23495" lon="5.66868">
        <ele>399.8</ele>
        <time>2014-10-08T06:29:43Z</time>
      </trkpt>
      <trkpt lat="43.23496" lon="5.66863">
        <ele>402.5</ele>
        <time>2014-10-08T06:29:48Z</time>
      </trkpt>
      <trkpt lat="43.23498" lon="5.66857">
        <ele>405.2</ele>
        <time>2014-10-08T06:29:53Z</time>
      </trkpt>
      <trkpt lat="43.235" lon="5.66853">
        <ele>405.2</ele>
        <time>2014-10-08T06:29:58Z</time>
      </trkpt>
      <trkpt lat="43.23501" lon="5.66848">
        <ele>403</ele>
        <time>2014-10-08T06:30:02Z</time>
      </trkpt>
      <trkpt lat="43.23503" lon="5.66844">
        <ele>402</ele>
        <time>2014-10-08T06:30:06Z</time>
      </trkpt>
      <trkpt lat="43.23503" lon="5.66839">
        <ele>403.6</ele>
        <time>2014-10-08T06:30:09Z</time>
      </trkpt>
      <trkpt lat="43.23503" lon="5.66833">
        <ele>404.8</ele>
        <time>2014-10-08T06:30:12Z</time>
      </trkpt>
      <trkpt lat="43.23505" lon="5.66828">
        <ele>404.3</ele>
        <time>2014-10-08T06:30:16Z</time>
      </trkpt>
      <trkpt lat="43.23507" lon="5.66824">
        <ele>403.2</ele>
        <time>2014-10-08T06:30:21Z</time>
      </trkpt>
      <trkpt lat="43.23509" lon="5.66819">
        <ele>404.7</ele>
        <time>2014-10-08T06:30:25Z</time>
      </trkpt>
      <trkpt lat="43.23509" lon="5.66818">
        <ele>404.8</ele>
        <time>2014-10-08T06:30:26Z</time>
      </trkpt>
    </trkseg>
  </trk>
  <trk>
    <name><![CDATA[Cabanon des Marquis_2]]></name>
    <trkseg>
      <trkpt lat="43.23759" lon="5.65163">
        <ele>442</ele>
        <time>2014-10-08T06:54:20Z</time>
      </trkpt>
      <trkpt lat="43.2376" lon="5.65162">
        <ele>442.2</ele>
        <time>2014-10-08T06:54:21Z</time>
      </trkpt>
      <trkpt lat="43.23762" lon="5.65153">
        <ele>443.6</ele>
        <time>2014-10-08T06:54:28Z</time>
      </trkpt>
      <trkpt lat="43.23763" lon="5.65149">
        <ele>442.7</ele>
        <time>2014-10-08T06:54:31Z</time>
      </trkpt>
      <trkpt lat="43.23764" lon="5.65144">
        <ele>443</ele>
        <time>2014-10-08T06:54:34Z</time>
      </trkpt>
      <trkpt lat="43.23766" lon="5.65139">
        <ele>443.3</ele>
        <time>2014-10-08T06:54:38Z</time>
      </trkpt>
      <trkpt lat="43.23768" lon="5.65134">
        <ele>443.3</ele>
        <time>2014-10-08T06:54:42Z</time>
      </trkpt>
      <trkpt lat="43.23768" lon="5.65129">
        <ele>444.1</ele>
        <time>2014-10-08T06:54:45Z</time>
      </trkpt>
      <trkpt lat="43.2377" lon="5.65125">
        <ele>444.1</ele>
        <time>2014-10-08T06:54:48Z</time>
      </trkpt>
      <trkpt lat="43.23771" lon="5.6512">
        <ele>445.7</ele>
        <time>2014-10-08T06:54:51Z</time>
      </trkpt>
      <trkpt lat="43.23772" lon="5.65114">
        <ele>448</ele>
        <time>2014-10-08T06:54:57Z</time>
      </trkpt>
      <trkpt lat="43.23773" lon="5.65109">
        <ele>449.5</ele>
        <time>2014-10-08T06:55:01Z</time>
      </trkpt>
      <trkpt lat="43.23774" lon="5.65104">
        <ele>450.2</ele>
        <time>2014-10-08T06:55:04Z</time>
      </trkpt>
      <trkpt lat="43.23776" lon="5.65099">
        <ele>449.7</ele>
        <time>2014-10-08T06:55:07Z</time>
      </trkpt>
      <trkpt lat="43.23778" lon="5.65094">
        <ele>449.5</ele>
        <time>2014-10-08T06:55:11Z</time>
      </trkpt>
      <trkpt lat="43.23775" lon="5.6509">
        <ele>449.2</ele>
        <time>2014-10-08T06:55:19Z</time>
      </trkpt>
      <trkpt lat="43.23772" lon="5.65086">
        <ele>450.7</ele>
        <time>2014-10-08T06:55:37Z</time>
      </trkpt>
      <trkpt lat="43.23773" lon="5.65085">
        <ele>450.7</ele>
        <time>2014-10-08T06:55:38Z</time>
      </trkpt>
      <trkpt lat="43.23777" lon="5.65079">
        <ele>451.5</ele>
        <time>2014-10-08T06:55:44Z</time>
      </trkpt>
      <trkpt lat="43.2378" lon="5.65075">
        <ele>450.7</ele>
        <time>2014-10-08T06:55:47Z</time>
      </trkpt>
      <trkpt lat="43.23783" lon="5.6507">
        <ele>450</ele>
        <time>2014-10-08T06:55:50Z</time>
      </trkpt>
      <trkpt lat="43.23785" lon="5.65066">
        <ele>448.2</ele>
        <time>2014-10-08T06:55:53Z</time>
      </trkpt>
      <trkpt lat="43.23786" lon="5.6506">
        <ele>447.2</ele>
        <time>2014-10-08T06:55:57Z</time>
      </trkpt>
      <trkpt lat="43.23786" lon="5.65055">
        <ele>447.8</ele>
        <time>2014-10-08T06:56:00Z</time>
      </trkpt>
      <trkpt lat="43.23786" lon="5.65051">
        <ele>448.2</ele>
        <time>2014-10-08T06:56:03Z</time>
      </trkpt>
      <trkpt lat="43.23787" lon="5.65045">
        <ele>448.2</ele>
        <time>2014-10-08T06:56:06Z</time>
      </trkpt>
      <trkpt lat="43.23788" lon="5.6504">
        <ele>448.7</ele>
        <time>2014-10-08T06:56:09Z</time>
      </trkpt>
      <trkpt lat="43.23788" lon="5.65035">
        <ele>448.5</ele>
        <time>2014-10-08T06:56:13Z</time>
      </trkpt>
      <trkpt lat="43.23789" lon="5.6503">
        <ele>446.8</ele>
        <time>2014-10-08T06:56:17Z</time>
      </trkpt>
      <trkpt lat="43.23789" lon="5.65024">
        <ele>446.6</ele>
        <time>2014-10-08T06:56:22Z</time>
      </trkpt>
      <trkpt lat="43.2379" lon="5.65019">
        <ele>446.2</ele>
        <time>2014-10-08T06:56:25Z</time>
      </trkpt>
      <trkpt lat="43.23791" lon="5.65014">
        <ele>446.7</ele>
        <time>2014-10-08T06:56:29Z</time>
      </trkpt>
      <trkpt lat="43.23791" lon="5.65008">
        <ele>448.5</ele>
        <time>2014-10-08T06:56:32Z</time>
      </trkpt>
      <trkpt lat="43.23792" lon="5.65003">
        <ele>448.5</ele>
        <time>2014-10-08T06:56:35Z</time>
      </trkpt>
      <trkpt lat="43.23793" lon="5.64997">
        <ele>446.2</ele>
        <time>2014-10-08T06:56:40Z</time>
      </trkpt>
      <trkpt lat="43.23793" lon="5.64996">
        <ele>446.6</ele>
        <time>2014-10-08T06:56:41Z</time>
      </trkpt>
      <trkpt lat="43.23794" lon="5.64986">
        <ele>446.6</ele>
        <time>2014-10-08T06:56:49Z</time>
      </trkpt>
      <trkpt lat="43.23794" lon="5.64981">
        <ele>445.5</ele>
        <time>2014-10-08T06:56:53Z</time>
      </trkpt>
      <trkpt lat="43.23795" lon="5.64976">
        <ele>445.1</ele>
        <time>2014-10-08T06:56:56Z</time>
      </trkpt>
      <trkpt lat="43.23796" lon="5.64971">
        <ele>445.1</ele>
        <time>2014-10-08T06:56:59Z</time>
      </trkpt>
      <trkpt lat="43.23795" lon="5.64967">
        <ele>447.7</ele>
        <time>2014-10-08T06:57:02Z</time>
      </trkpt>
      <trkpt lat="43.23795" lon="5.64962">
        <ele>450.1</ele>
        <time>2014-10-08T06:57:05Z</time>
      </trkpt>
      <trkpt lat="43.23797" lon="5.64957">
        <ele>452</ele>
        <time>2014-10-08T06:57:08Z</time>
      </trkpt>
      <trkpt lat="43.23798" lon="5.64953">
        <ele>451.8</ele>
        <time>2014-10-08T06:57:11Z</time>
      </trkpt>
      <trkpt lat="43.23799" lon="5.64948">
        <ele>452.1</ele>
        <time>2014-10-08T06:57:14Z</time>
      </trkpt>
      <trkpt lat="43.238" lon="5.64943">
        <ele>451.5</ele>
        <time>2014-10-08T06:57:18Z</time>
      </trkpt>
      <trkpt lat="43.23802" lon="5.6494">
        <ele>453.8</ele>
        <time>2014-10-08T06:57:21Z</time>
      </trkpt>
      <trkpt lat="43.23805" lon="5.64935">
        <ele>455.2</ele>
        <time>2014-10-08T06:57:25Z</time>
      </trkpt>
      <trkpt lat="43.23806" lon="5.64929">
        <ele>456.7</ele>
        <time>2014-10-08T06:57:29Z</time>
      </trkpt>
      <trkpt lat="43.23809" lon="5.64925">
        <ele>458.8</ele>
        <time>2014-10-08T06:57:34Z</time>
      </trkpt>
      <trkpt lat="43.2381" lon="5.6492">
        <ele>457.6</ele>
        <time>2014-10-08T06:57:37Z</time>
      </trkpt>
      <trkpt lat="43.23811" lon="5.64914">
        <ele>455.3</ele>
        <time>2014-10-08T06:57:41Z</time>
      </trkpt>
      <trkpt lat="43.23812" lon="5.64913">
        <ele>455.8</ele>
        <time>2014-10-08T06:57:42Z</time>
      </trkpt>
      <trkpt lat="43.23814" lon="5.64903">
        <ele>456.6</ele>
        <time>2014-10-08T06:57:50Z</time>
      </trkpt>
      <trkpt lat="43.23815" lon="5.64899">
        <ele>457.2</ele>
        <time>2014-10-08T06:57:54Z</time>
      </trkpt>
      <trkpt lat="43.23817" lon="5.64895">
        <ele>457.2</ele>
        <time>2014-10-08T06:57:57Z</time>
      </trkpt>
      <trkpt lat="43.23819" lon="5.6489">
        <ele>459.1</ele>
        <time>2014-10-08T06:58:01Z</time>
      </trkpt>
      <trkpt lat="43.2382" lon="5.64884">
        <ele>457.6</ele>
        <time>2014-10-08T06:58:04Z</time>
      </trkpt>
      <trkpt lat="43.23821" lon="5.64879">
        <ele>456.2</ele>
        <time>2014-10-08T06:58:07Z</time>
      </trkpt>
      <trkpt lat="43.23822" lon="5.64875">
        <ele>455.2</ele>
        <time>2014-10-08T06:58:09Z</time>
      </trkpt>
      <trkpt lat="43.23824" lon="5.6487">
        <ele>455.2</ele>
        <time>2014-10-08T06:58:12Z</time>
      </trkpt>
      <trkpt lat="43.23825" lon="5.64866">
        <ele>457.7</ele>
        <time>2014-10-08T06:58:15Z</time>
      </trkpt>
      <trkpt lat="43.23827" lon="5.6486">
        <ele>460.7</ele>
        <time>2014-10-08T06:58:19Z</time>
      </trkpt>
      <trkpt lat="43.23827" lon="5.64854">
        <ele>461.6</ele>
        <time>2014-10-08T06:58:24Z</time>
      </trkpt>
      <trkpt lat="43.23827" lon="5.64849">
        <ele>461.5</ele>
        <time>2014-10-08T06:58:27Z</time>
      </trkpt>
      <trkpt lat="43.23828" lon="5.64844">
        <ele>462.5</ele>
        <time>2014-10-08T06:58:31Z</time>
      </trkpt>
      <trkpt lat="43.23829" lon="5.64838">
        <ele>463.2</ele>
        <time>2014-10-08T06:58:35Z</time>
      </trkpt>
      <trkpt lat="43.23829" lon="5.64833">
        <ele>463.7</ele>
        <time>2014-10-08T06:58:38Z</time>
      </trkpt>
      <trkpt lat="43.2383" lon="5.64828">
        <ele>463.6</ele>
        <time>2014-10-08T06:58:41Z</time>
      </trkpt>
      <trkpt lat="43.23831" lon="5.64823">
        <ele>463.2</ele>
        <time>2014-10-08T06:58:44Z</time>
      </trkpt>
      <trkpt lat="43.23831" lon="5.64822">
        <ele>463</ele>
        <time>2014-10-08T06:58:45Z</time>
      </trkpt>
      <trkpt lat="43.23832" lon="5.64813">
        <ele>461.1</ele>
        <time>2014-10-08T06:58:51Z</time>
      </trkpt>
      <trkpt lat="43.23833" lon="5.64808">
        <ele>460.7</ele>
        <time>2014-10-08T06:58:54Z</time>
      </trkpt>
      <trkpt lat="43.23834" lon="5.64803">
        <ele>460.3</ele>
        <time>2014-10-08T06:58:57Z</time>
      </trkpt>
      <trkpt lat="43.23835" lon="5.64798">
        <ele>460.2</ele>
        <time>2014-10-08T06:59:00Z</time>
      </trkpt>
      <trkpt lat="43.23837" lon="5.64794">
        <ele>460.7</ele>
        <time>2014-10-08T06:59:03Z</time>
      </trkpt>
      <trkpt lat="43.23838" lon="5.64789">
        <ele>460.7</ele>
        <time>2014-10-08T06:59:06Z</time>
      </trkpt>
      <trkpt lat="43.23839" lon="5.64783">
        <ele>462.1</ele>
        <time>2014-10-08T06:59:11Z</time>
      </trkpt>
      <trkpt lat="43.23841" lon="5.64778">
        <ele>461.8</ele>
        <time>2014-10-08T06:59:16Z</time>
      </trkpt>
      <trkpt lat="43.23838" lon="5.64773">
        <ele>468.8</ele>
        <time>2014-10-08T06:59:40Z</time>
      </trkpt>
      <trkpt lat="43.23841" lon="5.6477">
        <ele>468.7</ele>
        <time>2014-10-08T06:59:47Z</time>
      </trkpt>
      <trkpt lat="43.23842" lon="5.6477">
        <ele>468.2</ele>
        <time>2014-10-08T06:59:48Z</time>
      </trkpt>
      <trkpt lat="43.23847" lon="5.64764">
        <ele>466.7</ele>
        <time>2014-10-08T06:59:58Z</time>
      </trkpt>
      <trkpt lat="43.23849" lon="5.64759">
        <ele>468.2</ele>
        <time>2014-10-08T07:00:03Z</time>
      </trkpt>
      <trkpt lat="43.23851" lon="5.64755">
        <ele>468.7</ele>
        <time>2014-10-08T07:00:06Z</time>
      </trkpt>
      <trkpt lat="43.23854" lon="5.64752">
        <ele>467.3</ele>
        <time>2014-10-08T07:00:09Z</time>
      </trkpt>
      <trkpt lat="43.23856" lon="5.64747">
        <ele>466.1</ele>
        <time>2014-10-08T07:00:12Z</time>
      </trkpt>
      <trkpt lat="43.23858" lon="5.64744">
        <ele>466</ele>
        <time>2014-10-08T07:00:16Z</time>
      </trkpt>
      <trkpt lat="43.23861" lon="5.6474">
        <ele>464.8</ele>
        <time>2014-10-08T07:00:19Z</time>
      </trkpt>
      <trkpt lat="43.23863" lon="5.64737">
        <ele>464.8</ele>
        <time>2014-10-08T07:00:23Z</time>
      </trkpt>
      <trkpt lat="43.23865" lon="5.64731">
        <ele>464.8</ele>
        <time>2014-10-08T07:00:27Z</time>
      </trkpt>
      <trkpt lat="43.23868" lon="5.64728">
        <ele>464.7</ele>
        <time>2014-10-08T07:00:31Z</time>
      </trkpt>
      <trkpt lat="43.23872" lon="5.64724">
        <ele>465</ele>
        <time>2014-10-08T07:00:35Z</time>
      </trkpt>
      <trkpt lat="43.23875" lon="5.64721">
        <ele>466.2</ele>
        <time>2014-10-08T07:00:40Z</time>
      </trkpt>
      <trkpt lat="43.23878" lon="5.64718">
        <ele>463.8</ele>
        <time>2014-10-08T07:00:43Z</time>
      </trkpt>
      <trkpt lat="43.23881" lon="5.64715">
        <ele>464.2</ele>
        <time>2014-10-08T07:00:47Z</time>
      </trkpt>
      <trkpt lat="43.23883" lon="5.6471">
        <ele>463.8</ele>
        <time>2014-10-08T07:00:50Z</time>
      </trkpt>
      <trkpt lat="43.23884" lon="5.64709">
        <ele>464.6</ele>
        <time>2014-10-08T07:00:51Z</time>
      </trkpt>
      <trkpt lat="43.23888" lon="5.64702">
        <ele>473.1</ele>
        <time>2014-10-08T07:01:00Z</time>
      </trkpt>
      <trkpt lat="43.23892" lon="5.64699">
        <ele>475.7</ele>
        <time>2014-10-08T07:01:04Z</time>
      </trkpt>
      <trkpt lat="43.23895" lon="5.64696">
        <ele>475.7</ele>
        <time>2014-10-08T07:01:08Z</time>
      </trkpt>
      <trkpt lat="43.23897" lon="5.64692">
        <ele>476.8</ele>
        <time>2014-10-08T07:01:12Z</time>
      </trkpt>
      <trkpt lat="43.239" lon="5.6469">
        <ele>477.1</ele>
        <time>2014-10-08T07:01:14Z</time>
      </trkpt>
      <trkpt lat="43.23903" lon="5.64688">
        <ele>477.1</ele>
        <time>2014-10-08T07:01:16Z</time>
      </trkpt>
      <trkpt lat="43.23906" lon="5.64684">
        <ele>475.5</ele>
        <time>2014-10-08T07:01:19Z</time>
      </trkpt>
      <trkpt lat="43.23909" lon="5.64682">
        <ele>473.8</ele>
        <time>2014-10-08T07:01:22Z</time>
      </trkpt>
      <trkpt lat="43.23912" lon="5.64677">
        <ele>473.2</ele>
        <time>2014-10-08T07:01:25Z</time>
      </trkpt>
      <trkpt lat="43.23914" lon="5.64673">
        <ele>471.7</ele>
        <time>2014-10-08T07:01:28Z</time>
      </trkpt>
      <trkpt lat="43.23917" lon="5.64669">
        <ele>471.2</ele>
        <time>2014-10-08T07:01:32Z</time>
      </trkpt>
      <trkpt lat="43.2392" lon="5.64665">
        <ele>471.3</ele>
        <time>2014-10-08T07:01:35Z</time>
      </trkpt>
      <trkpt lat="43.23923" lon="5.64661">
        <ele>471</ele>
        <time>2014-10-08T07:01:39Z</time>
      </trkpt>
      <trkpt lat="43.23925" lon="5.64658">
        <ele>471.6</ele>
        <time>2014-10-08T07:01:42Z</time>
      </trkpt>
      <trkpt lat="43.23928" lon="5.64653">
        <ele>473.8</ele>
        <time>2014-10-08T07:01:45Z</time>
      </trkpt>
      <trkpt lat="43.23932" lon="5.64651">
        <ele>470.3</ele>
        <time>2014-10-08T07:01:48Z</time>
      </trkpt>
      <trkpt lat="43.23934" lon="5.6465">
        <ele>468</ele>
        <time>2014-10-08T07:01:50Z</time>
      </trkpt>
      <trkpt lat="43.23938" lon="5.64649">
        <ele>466.7</ele>
        <time>2014-10-08T07:01:52Z</time>
      </trkpt>
      <trkpt lat="43.2394" lon="5.64649">
        <ele>467.2</ele>
        <time>2014-10-08T07:01:53Z</time>
      </trkpt>
      <trkpt lat="43.23945" lon="5.64643">
        <ele>468.7</ele>
        <time>2014-10-08T07:01:59Z</time>
      </trkpt>
      <trkpt lat="43.23948" lon="5.64639">
        <ele>466.7</ele>
        <time>2014-10-08T07:02:02Z</time>
      </trkpt>
      <trkpt lat="43.2395" lon="5.64636">
        <ele>468.7</ele>
        <time>2014-10-08T07:02:05Z</time>
      </trkpt>
      <trkpt lat="43.23953" lon="5.64633">
        <ele>466.7</ele>
        <time>2014-10-08T07:02:08Z</time>
      </trkpt>
      <trkpt lat="43.23957" lon="5.6463">
        <ele>467.7</ele>
        <time>2014-10-08T07:02:11Z</time>
      </trkpt>
      <trkpt lat="43.23959" lon="5.64625">
        <ele>470</ele>
        <time>2014-10-08T07:02:15Z</time>
      </trkpt>
      <trkpt lat="43.2396" lon="5.64621">
        <ele>472.7</ele>
        <time>2014-10-08T07:02:18Z</time>
      </trkpt>
      <trkpt lat="43.23963" lon="5.64618">
        <ele>472.7</ele>
        <time>2014-10-08T07:02:20Z</time>
      </trkpt>
      <trkpt lat="43.23966" lon="5.64615">
        <ele>471.3</ele>
        <time>2014-10-08T07:02:23Z</time>
      </trkpt>
      <trkpt lat="43.23968" lon="5.6461">
        <ele>472.5</ele>
        <time>2014-10-08T07:02:27Z</time>
      </trkpt>
      <trkpt lat="43.23971" lon="5.64607">
        <ele>472.6</ele>
        <time>2014-10-08T07:02:30Z</time>
      </trkpt>
      <trkpt lat="43.23973" lon="5.64604">
        <ele>472.7</ele>
        <time>2014-10-08T07:02:33Z</time>
      </trkpt>
      <trkpt lat="43.23974" lon="5.646">
        <ele>473.1</ele>
        <time>2014-10-08T07:02:35Z</time>
      </trkpt>
      <trkpt lat="43.23977" lon="5.64597">
        <ele>473.5</ele>
        <time>2014-10-08T07:02:38Z</time>
      </trkpt>
      <trkpt lat="43.23981" lon="5.64594">
        <ele>474</ele>
        <time>2014-10-08T07:02:41Z</time>
      </trkpt>
      <trkpt lat="43.23984" lon="5.64591">
        <ele>473.3</ele>
        <time>2014-10-08T07:02:45Z</time>
      </trkpt>
      <trkpt lat="43.23987" lon="5.6459">
        <ele>470</ele>
        <time>2014-10-08T07:02:48Z</time>
      </trkpt>
      <trkpt lat="43.23991" lon="5.64587">
        <ele>467.7</ele>
        <time>2014-10-08T07:02:52Z</time>
      </trkpt>
      <trkpt lat="43.23995" lon="5.64585">
        <ele>468.2</ele>
        <time>2014-10-08T07:02:56Z</time>
      </trkpt>
      <trkpt lat="43.23996" lon="5.64584">
        <ele>467.7</ele>
        <time>2014-10-08T07:02:57Z</time>
      </trkpt>
      <trkpt lat="43.24001" lon="5.6458">
        <ele>470.2</ele>
        <time>2014-10-08T07:03:02Z</time>
      </trkpt>
      <trkpt lat="43.24003" lon="5.64576">
        <ele>471.7</ele>
        <time>2014-10-08T07:03:05Z</time>
      </trkpt>
      <trkpt lat="43.24005" lon="5.64571">
        <ele>475.5</ele>
        <time>2014-10-08T07:03:10Z</time>
      </trkpt>
      <trkpt lat="43.24006" lon="5.64566">
        <ele>479.1</ele>
        <time>2014-10-08T07:03:14Z</time>
      </trkpt>
      <trkpt lat="43.24008" lon="5.64561">
        <ele>480.5</ele>
        <time>2014-10-08T07:03:18Z</time>
      </trkpt>
      <trkpt lat="43.2401" lon="5.64556">
        <ele>480.7</ele>
        <time>2014-10-08T07:03:21Z</time>
      </trkpt>
      <trkpt lat="43.24011" lon="5.6455">
        <ele>481.6</ele>
        <time>2014-10-08T07:03:24Z</time>
      </trkpt>
      <trkpt lat="43.24012" lon="5.64546">
        <ele>482.6</ele>
        <time>2014-10-08T07:03:29Z</time>
      </trkpt>
      <trkpt lat="43.24013" lon="5.64541">
        <ele>483.7</ele>
        <time>2014-10-08T07:03:32Z</time>
      </trkpt>
      <trkpt lat="43.24014" lon="5.64537">
        <ele>484.2</ele>
        <time>2014-10-08T07:03:35Z</time>
      </trkpt>
      <trkpt lat="43.24014" lon="5.64533">
        <ele>487.2</ele>
        <time>2014-10-08T07:03:38Z</time>
      </trkpt>
      <trkpt lat="43.24014" lon="5.64527">
        <ele>488.2</ele>
        <time>2014-10-08T07:03:41Z</time>
      </trkpt>
      <trkpt lat="43.24014" lon="5.64522">
        <ele>489.2</ele>
        <time>2014-10-08T07:03:44Z</time>
      </trkpt>
      <trkpt lat="43.24014" lon="5.64517">
        <ele>488.8</ele>
        <time>2014-10-08T07:03:48Z</time>
      </trkpt>
      <trkpt lat="43.24015" lon="5.64512">
        <ele>486.6</ele>
        <time>2014-10-08T07:03:52Z</time>
      </trkpt>
      <trkpt lat="43.24015" lon="5.64507">
        <ele>483.2</ele>
        <time>2014-10-08T07:03:55Z</time>
      </trkpt>
      <trkpt lat="43.24013" lon="5.64502">
        <ele>480.2</ele>
        <time>2014-10-08T07:03:59Z</time>
      </trkpt>
      <trkpt lat="43.24013" lon="5.645">
        <ele>479.6</ele>
        <time>2014-10-08T07:04:00Z</time>
      </trkpt>
      <trkpt lat="43.24008" lon="5.64492">
        <ele>478.5</ele>
        <time>2014-10-08T07:04:07Z</time>
      </trkpt>
      <trkpt lat="43.24005" lon="5.64489">
        <ele>479</ele>
        <time>2014-10-08T07:04:10Z</time>
      </trkpt>
      <trkpt lat="43.24003" lon="5.64485">
        <ele>477.7</ele>
        <time>2014-10-08T07:04:14Z</time>
      </trkpt>
      <trkpt lat="43.24" lon="5.64481">
        <ele>479.1</ele>
        <time>2014-10-08T07:04:17Z</time>
      </trkpt>
      <trkpt lat="43.23997" lon="5.64478">
        <ele>478.7</ele>
        <time>2014-10-08T07:04:20Z</time>
      </trkpt>
      <trkpt lat="43.23995" lon="5.64474">
        <ele>482.6</ele>
        <time>2014-10-08T07:04:24Z</time>
      </trkpt>
      <trkpt lat="43.23991" lon="5.64474">
        <ele>484.7</ele>
        <time>2014-10-08T07:04:27Z</time>
      </trkpt>
      <trkpt lat="43.23989" lon="5.64471">
        <ele>486.7</ele>
        <time>2014-10-08T07:04:31Z</time>
      </trkpt>
      <trkpt lat="43.23986" lon="5.64467">
        <ele>487.7</ele>
        <time>2014-10-08T07:04:34Z</time>
      </trkpt>
      <trkpt lat="43.23984" lon="5.64463">
        <ele>487.7</ele>
        <time>2014-10-08T07:04:37Z</time>
      </trkpt>
      <trkpt lat="43.23982" lon="5.64458">
        <ele>486.8</ele>
        <time>2014-10-08T07:04:41Z</time>
      </trkpt>
      <trkpt lat="43.2398" lon="5.64453">
        <ele>486.1</ele>
        <time>2014-10-08T07:04:45Z</time>
      </trkpt>
      <trkpt lat="43.2398" lon="5.64448">
        <ele>485.8</ele>
        <time>2014-10-08T07:04:48Z</time>
      </trkpt>
      <trkpt lat="43.23981" lon="5.64442">
        <ele>485.5</ele>
        <time>2014-10-08T07:04:51Z</time>
      </trkpt>
      <trkpt lat="43.2398" lon="5.64437">
        <ele>487.3</ele>
        <time>2014-10-08T07:04:54Z</time>
      </trkpt>
      <trkpt lat="43.23981" lon="5.64431">
        <ele>488.1</ele>
        <time>2014-10-08T07:05:00Z</time>
      </trkpt>
      <trkpt lat="43.23981" lon="5.64431">
        <ele>487.5</ele>
        <time>2014-10-08T07:05:01Z</time>
      </trkpt>
      <trkpt lat="43.2398" lon="5.64421">
        <ele>490.1</ele>
        <time>2014-10-08T07:05:08Z</time>
      </trkpt>
      <trkpt lat="43.23979" lon="5.64415">
        <ele>493.1</ele>
        <time>2014-10-08T07:05:15Z</time>
      </trkpt>
      <trkpt lat="43.2398" lon="5.6441">
        <ele>492.1</ele>
        <time>2014-10-08T07:05:20Z</time>
      </trkpt>
      <trkpt lat="43.23983" lon="5.64407">
        <ele>489.2</ele>
        <time>2014-10-08T07:05:26Z</time>
      </trkpt>
      <trkpt lat="43.23985" lon="5.64401">
        <ele>491</ele>
        <time>2014-10-08T07:05:39Z</time>
      </trkpt>
      <trkpt lat="43.23983" lon="5.64397">
        <ele>493.5</ele>
        <time>2014-10-08T07:05:58Z</time>
      </trkpt>
      <trkpt lat="43.23986" lon="5.64394">
        <ele>485.2</ele>
        <time>2014-10-08T07:08:39Z</time>
      </trkpt>
      <trkpt lat="43.23987" lon="5.64394">
        <ele>484.7</ele>
        <time>2014-10-08T07:08:40Z</time>
      </trkpt>
      <trkpt lat="43.23983" lon="5.64383">
        <ele>488.5</ele>
        <time>2014-10-08T07:09:17Z</time>
      </trkpt>
      <trkpt lat="43.23983" lon="5.64378">
        <ele>488.2</ele>
        <time>2014-10-08T07:09:20Z</time>
      </trkpt>
      <trkpt lat="43.23982" lon="5.64373">
        <ele>489.3</ele>
        <time>2014-10-08T07:09:24Z</time>
      </trkpt>
      <trkpt lat="43.23982" lon="5.64368">
        <ele>487.8</ele>
        <time>2014-10-08T07:09:30Z</time>
      </trkpt>
      <trkpt lat="43.23983" lon="5.64363">
        <ele>486.2</ele>
        <time>2014-10-08T07:09:34Z</time>
      </trkpt>
      <trkpt lat="43.23984" lon="5.64357">
        <ele>488.6</ele>
        <time>2014-10-08T07:09:39Z</time>
      </trkpt>
      <trkpt lat="43.23983" lon="5.64351">
        <ele>490.5</ele>
        <time>2014-10-08T07:09:44Z</time>
      </trkpt>
      <trkpt lat="43.23983" lon="5.6435">
        <ele>491</ele>
        <time>2014-10-08T07:09:45Z</time>
      </trkpt>
      <trkpt lat="43.23984" lon="5.64342">
        <ele>489.3</ele>
        <time>2014-10-08T07:09:50Z</time>
      </trkpt>
      <trkpt lat="43.23985" lon="5.64336">
        <ele>489.6</ele>
        <time>2014-10-08T07:09:53Z</time>
      </trkpt>
      <trkpt lat="43.23983" lon="5.64331">
        <ele>490.8</ele>
        <time>2014-10-08T07:09:57Z</time>
      </trkpt>
      <trkpt lat="43.23983" lon="5.64326">
        <ele>490.2</ele>
        <time>2014-10-08T07:10:00Z</time>
      </trkpt>
      <trkpt lat="43.23982" lon="5.64321">
        <ele>490.1</ele>
        <time>2014-10-08T07:10:03Z</time>
      </trkpt>
      <trkpt lat="43.23981" lon="5.64316">
        <ele>488.7</ele>
        <time>2014-10-08T07:10:06Z</time>
      </trkpt>
      <trkpt lat="43.23981" lon="5.64311">
        <ele>488.2</ele>
        <time>2014-10-08T07:10:09Z</time>
      </trkpt>
      <trkpt lat="43.23981" lon="5.64307">
        <ele>486.8</ele>
        <time>2014-10-08T07:10:12Z</time>
      </trkpt>
      <trkpt lat="43.23982" lon="5.64302">
        <ele>484.7</ele>
        <time>2014-10-08T07:10:14Z</time>
      </trkpt>
      <trkpt lat="43.23981" lon="5.64296">
        <ele>484.7</ele>
        <time>2014-10-08T07:10:17Z</time>
      </trkpt>
      <trkpt lat="43.23981" lon="5.6429">
        <ele>485.5</ele>
        <time>2014-10-08T07:10:21Z</time>
      </trkpt>
      <trkpt lat="43.2398" lon="5.64285">
        <ele>486.3</ele>
        <time>2014-10-08T07:10:25Z</time>
      </trkpt>
      <trkpt lat="43.23979" lon="5.6428">
        <ele>483.7</ele>
        <time>2014-10-08T07:10:29Z</time>
      </trkpt>
      <trkpt lat="43.23977" lon="5.64276">
        <ele>484</ele>
        <time>2014-10-08T07:10:32Z</time>
      </trkpt>
      <trkpt lat="43.23975" lon="5.64272">
        <ele>484.8</ele>
        <time>2014-10-08T07:10:35Z</time>
      </trkpt>
      <trkpt lat="43.23973" lon="5.64268">
        <ele>485.2</ele>
        <time>2014-10-08T07:10:38Z</time>
      </trkpt>
      <trkpt lat="43.23971" lon="5.64263">
        <ele>485.6</ele>
        <time>2014-10-08T07:10:41Z</time>
      </trkpt>
      <trkpt lat="43.23969" lon="5.64258">
        <ele>485.7</ele>
        <time>2014-10-08T07:10:45Z</time>
      </trkpt>
      <trkpt lat="43.23969" lon="5.64256">
        <ele>485.5</ele>
        <time>2014-10-08T07:10:46Z</time>
      </trkpt>
      <trkpt lat="43.23967" lon="5.64248">
        <ele>485.6</ele>
        <time>2014-10-08T07:10:51Z</time>
      </trkpt>
      <trkpt lat="43.23966" lon="5.64244">
        <ele>485.7</ele>
        <time>2014-10-08T07:10:54Z</time>
      </trkpt>
      <trkpt lat="43.23964" lon="5.64239">
        <ele>486</ele>
        <time>2014-10-08T07:10:57Z</time>
      </trkpt>
      <trkpt lat="43.23963" lon="5.64235">
        <ele>487.5</ele>
        <time>2014-10-08T07:11:00Z</time>
      </trkpt>
      <trkpt lat="43.23962" lon="5.64229">
        <ele>487.7</ele>
        <time>2014-10-08T07:11:03Z</time>
      </trkpt>
      <trkpt lat="43.23962" lon="5.64224">
        <ele>487.7</ele>
        <time>2014-10-08T07:11:06Z</time>
      </trkpt>
      <trkpt lat="43.23961" lon="5.64218">
        <ele>487.7</ele>
        <time>2014-10-08T07:11:09Z</time>
      </trkpt>
      <trkpt lat="43.23961" lon="5.64213">
        <ele>488.2</ele>
        <time>2014-10-08T07:11:12Z</time>
      </trkpt>
      <trkpt lat="43.2396" lon="5.64208">
        <ele>489.1</ele>
        <time>2014-10-08T07:11:15Z</time>
      </trkpt>
      <trkpt lat="43.23961" lon="5.64204">
        <ele>490.2</ele>
        <time>2014-10-08T07:11:18Z</time>
      </trkpt>
      <trkpt lat="43.23962" lon="5.64199">
        <ele>490.7</ele>
        <time>2014-10-08T07:11:21Z</time>
      </trkpt>
      <trkpt lat="43.23962" lon="5.64194">
        <ele>490.2</ele>
        <time>2014-10-08T07:11:24Z</time>
      </trkpt>
      <trkpt lat="43.23964" lon="5.6419">
        <ele>490.3</ele>
        <time>2014-10-08T07:11:27Z</time>
      </trkpt>
      <trkpt lat="43.23967" lon="5.64185">
        <ele>490.5</ele>
        <time>2014-10-08T07:11:30Z</time>
      </trkpt>
      <trkpt lat="43.23968" lon="5.64179">
        <ele>489.2</ele>
        <time>2014-10-08T07:11:33Z</time>
      </trkpt>
      <trkpt lat="43.23969" lon="5.64174">
        <ele>488.7</ele>
        <time>2014-10-08T07:11:36Z</time>
      </trkpt>
      <trkpt lat="43.2397" lon="5.64168">
        <ele>488.5</ele>
        <time>2014-10-08T07:11:39Z</time>
      </trkpt>
      <trkpt lat="43.23971" lon="5.64164">
        <ele>488.7</ele>
        <time>2014-10-08T07:11:42Z</time>
      </trkpt>
      <trkpt lat="43.23972" lon="5.64159">
        <ele>488.7</ele>
        <time>2014-10-08T07:11:45Z</time>
      </trkpt>
      <trkpt lat="43.23973" lon="5.64155">
        <ele>489.8</ele>
        <time>2014-10-08T07:11:48Z</time>
      </trkpt>
      <trkpt lat="43.23974" lon="5.64154">
        <ele>490.2</ele>
        <time>2014-10-08T07:11:49Z</time>
      </trkpt>
      <trkpt lat="43.23977" lon="5.64147">
        <ele>489.2</ele>
        <time>2014-10-08T07:11:54Z</time>
      </trkpt>
      <trkpt lat="43.23979" lon="5.64143">
        <ele>490.1</ele>
        <time>2014-10-08T07:11:57Z</time>
      </trkpt>
      <trkpt lat="43.23981" lon="5.64139">
        <ele>490.6</ele>
        <time>2014-10-08T07:12:00Z</time>
      </trkpt>
      <trkpt lat="43.23982" lon="5.64134">
        <ele>490.2</ele>
        <time>2014-10-08T07:12:03Z</time>
      </trkpt>
      <trkpt lat="43.23983" lon="5.6413">
        <ele>489.7</ele>
        <time>2014-10-08T07:12:06Z</time>
      </trkpt>
      <trkpt lat="43.23986" lon="5.64125">
        <ele>490</ele>
        <time>2014-10-08T07:12:09Z</time>
      </trkpt>
      <trkpt lat="43.23988" lon="5.6412">
        <ele>490.2</ele>
        <time>2014-10-08T07:12:13Z</time>
      </trkpt>
      <trkpt lat="43.2399" lon="5.64115">
        <ele>490.5</ele>
        <time>2014-10-08T07:12:16Z</time>
      </trkpt>
      <trkpt lat="43.23991" lon="5.6411">
        <ele>490.3</ele>
        <time>2014-10-08T07:12:20Z</time>
      </trkpt>
      <trkpt lat="43.23994" lon="5.64105">
        <ele>489.8</ele>
        <time>2014-10-08T07:12:24Z</time>
      </trkpt>
      <trkpt lat="43.23994" lon="5.64101">
        <ele>490.7</ele>
        <time>2014-10-08T07:12:27Z</time>
      </trkpt>
      <trkpt lat="43.23995" lon="5.64095">
        <ele>489.3</ele>
        <time>2014-10-08T07:12:30Z</time>
      </trkpt>
      <trkpt lat="43.23997" lon="5.6409">
        <ele>489.2</ele>
        <time>2014-10-08T07:12:33Z</time>
      </trkpt>
      <trkpt lat="43.23998" lon="5.64084">
        <ele>488.8</ele>
        <time>2014-10-08T07:12:37Z</time>
      </trkpt>
      <trkpt lat="43.24" lon="5.6408">
        <ele>488</ele>
        <time>2014-10-08T07:12:42Z</time>
      </trkpt>
      <trkpt lat="43.24002" lon="5.64075">
        <ele>487.2</ele>
        <time>2014-10-08T07:12:45Z</time>
      </trkpt>
      <trkpt lat="43.24004" lon="5.6407">
        <ele>486.2</ele>
        <time>2014-10-08T07:12:48Z</time>
      </trkpt>
      <trkpt lat="43.24006" lon="5.64066">
        <ele>486.7</ele>
        <time>2014-10-08T07:12:51Z</time>
      </trkpt>
      <trkpt lat="43.24006" lon="5.64065">
        <ele>486.5</ele>
        <time>2014-10-08T07:12:52Z</time>
      </trkpt>
      <trkpt lat="43.2401" lon="5.64056">
        <ele>485.8</ele>
        <time>2014-10-08T07:12:58Z</time>
      </trkpt>
      <trkpt lat="43.24012" lon="5.64052">
        <ele>486.8</ele>
        <time>2014-10-08T07:13:01Z</time>
      </trkpt>
      <trkpt lat="43.24014" lon="5.64047">
        <ele>487.5</ele>
        <time>2014-10-08T07:13:05Z</time>
      </trkpt>
      <trkpt lat="43.24015" lon="5.64042">
        <ele>489.7</ele>
        <time>2014-10-08T07:13:10Z</time>
      </trkpt>
      <trkpt lat="43.24016" lon="5.64036">
        <ele>491.6</ele>
        <time>2014-10-08T07:13:15Z</time>
      </trkpt>
      <trkpt lat="43.24017" lon="5.64032">
        <ele>495.7</ele>
        <time>2014-10-08T07:13:19Z</time>
      </trkpt>
      <trkpt lat="43.24019" lon="5.64027">
        <ele>498.6</ele>
        <time>2014-10-08T07:13:23Z</time>
      </trkpt>
      <trkpt lat="43.2402" lon="5.64022">
        <ele>498.7</ele>
        <time>2014-10-08T07:13:26Z</time>
      </trkpt>
      <trkpt lat="43.24019" lon="5.64016">
        <ele>497.5</ele>
        <time>2014-10-08T07:13:30Z</time>
      </trkpt>
      <trkpt lat="43.24021" lon="5.64011">
        <ele>496.8</ele>
        <time>2014-10-08T07:13:34Z</time>
      </trkpt>
      <trkpt lat="43.24023" lon="5.64006">
        <ele>495.2</ele>
        <time>2014-10-08T07:13:37Z</time>
      </trkpt>
      <trkpt lat="43.24023" lon="5.64001">
        <ele>495.2</ele>
        <time>2014-10-08T07:13:42Z</time>
      </trkpt>
      <trkpt lat="43.24023" lon="5.63997">
        <ele>495.7</ele>
        <time>2014-10-08T07:13:45Z</time>
      </trkpt>
      <trkpt lat="43.24025" lon="5.63991">
        <ele>494.7</ele>
        <time>2014-10-08T07:13:48Z</time>
      </trkpt>
      <trkpt lat="43.24026" lon="5.63987">
        <ele>496.3</ele>
        <time>2014-10-08T07:13:52Z</time>
      </trkpt>
      <trkpt lat="43.24027" lon="5.63986">
        <ele>496.5</ele>
        <time>2014-10-08T07:13:53Z</time>
      </trkpt>
      <trkpt lat="43.24029" lon="5.63977">
        <ele>499.6</ele>
        <time>2014-10-08T07:14:00Z</time>
      </trkpt>
      <trkpt lat="43.2403" lon="5.63972">
        <ele>497.8</ele>
        <time>2014-10-08T07:14:03Z</time>
      </trkpt>
      <trkpt lat="43.24032" lon="5.63966">
        <ele>496.7</ele>
        <time>2014-10-08T07:14:07Z</time>
      </trkpt>
      <trkpt lat="43.24033" lon="5.63961">
        <ele>494.8</ele>
        <time>2014-10-08T07:14:10Z</time>
      </trkpt>
      <trkpt lat="43.24033" lon="5.63956">
        <ele>494.3</ele>
        <time>2014-10-08T07:14:14Z</time>
      </trkpt>
      <trkpt lat="43.24033" lon="5.6395">
        <ele>494.6</ele>
        <time>2014-10-08T07:14:18Z</time>
      </trkpt>
      <trkpt lat="43.24034" lon="5.63944">
        <ele>495.2</ele>
        <time>2014-10-08T07:14:22Z</time>
      </trkpt>
      <trkpt lat="43.24034" lon="5.63939">
        <ele>496.1</ele>
        <time>2014-10-08T07:14:26Z</time>
      </trkpt>
      <trkpt lat="43.24035" lon="5.63934">
        <ele>496.3</ele>
        <time>2014-10-08T07:14:30Z</time>
      </trkpt>
      <trkpt lat="43.24036" lon="5.63928">
        <ele>497.2</ele>
        <time>2014-10-08T07:14:34Z</time>
      </trkpt>
      <trkpt lat="43.24036" lon="5.63923">
        <ele>498</ele>
        <time>2014-10-08T07:14:38Z</time>
      </trkpt>
      <trkpt lat="43.24036" lon="5.63918">
        <ele>497.7</ele>
        <time>2014-10-08T07:14:41Z</time>
      </trkpt>
      <trkpt lat="43.24038" lon="5.63912">
        <ele>498.5</ele>
        <time>2014-10-08T07:14:45Z</time>
      </trkpt>
      <trkpt lat="43.24038" lon="5.63907">
        <ele>499.6</ele>
        <time>2014-10-08T07:14:49Z</time>
      </trkpt>
      <trkpt lat="43.24038" lon="5.63902">
        <ele>499.7</ele>
        <time>2014-10-08T07:14:53Z</time>
      </trkpt>
      <trkpt lat="43.24038" lon="5.63901">
        <ele>499.8</ele>
        <time>2014-10-08T07:14:54Z</time>
      </trkpt>
      <trkpt lat="43.24038" lon="5.63892">
        <ele>499.1</ele>
        <time>2014-10-08T07:15:00Z</time>
      </trkpt>
      <trkpt lat="43.24039" lon="5.63886">
        <ele>499.1</ele>
        <time>2014-10-08T07:15:04Z</time>
      </trkpt>
      <trkpt lat="43.24039" lon="5.63881">
        <ele>499.8</ele>
        <time>2014-10-08T07:15:08Z</time>
      </trkpt>
      <trkpt lat="43.24039" lon="5.63875">
        <ele>502.2</ele>
        <time>2014-10-08T07:15:13Z</time>
      </trkpt>
      <trkpt lat="43.2404" lon="5.6387">
        <ele>502.7</ele>
        <time>2014-10-08T07:15:17Z</time>
      </trkpt>
      <trkpt lat="43.24041" lon="5.63864">
        <ele>503.1</ele>
        <time>2014-10-08T07:15:21Z</time>
      </trkpt>
      <trkpt lat="43.24042" lon="5.6386">
        <ele>502.5</ele>
        <time>2014-10-08T07:15:24Z</time>
      </trkpt>
      <trkpt lat="43.24043" lon="5.63854">
        <ele>501.3</ele>
        <time>2014-10-08T07:15:28Z</time>
      </trkpt>
      <trkpt lat="43.24043" lon="5.63848">
        <ele>503.5</ele>
        <time>2014-10-08T07:15:32Z</time>
      </trkpt>
      <trkpt lat="43.24044" lon="5.63843">
        <ele>503.6</ele>
        <time>2014-10-08T07:15:35Z</time>
      </trkpt>
      <trkpt lat="43.24046" lon="5.63838">
        <ele>504.2</ele>
        <time>2014-10-08T07:15:40Z</time>
      </trkpt>
      <trkpt lat="43.24047" lon="5.63832">
        <ele>504.8</ele>
        <time>2014-10-08T07:15:44Z</time>
      </trkpt>
      <trkpt lat="43.24048" lon="5.63827">
        <ele>504.2</ele>
        <time>2014-10-08T07:15:48Z</time>
      </trkpt>
      <trkpt lat="43.2405" lon="5.63822">
        <ele>503.7</ele>
        <time>2014-10-08T07:15:52Z</time>
      </trkpt>
      <trkpt lat="43.24052" lon="5.63816">
        <ele>504.2</ele>
        <time>2014-10-08T07:15:56Z</time>
      </trkpt>
      <trkpt lat="43.24053" lon="5.63815">
        <ele>504.6</ele>
        <time>2014-10-08T07:15:57Z</time>
      </trkpt>
      <trkpt lat="43.24056" lon="5.63807">
        <ele>507.5</ele>
        <time>2014-10-08T07:16:04Z</time>
      </trkpt>
      <trkpt lat="43.24057" lon="5.63802">
        <ele>508.2</ele>
        <time>2014-10-08T07:16:07Z</time>
      </trkpt>
      <trkpt lat="43.24058" lon="5.63797">
        <ele>509.8</ele>
        <time>2014-10-08T07:16:12Z</time>
      </trkpt>
      <trkpt lat="43.2406" lon="5.63791">
        <ele>510.5</ele>
        <time>2014-10-08T07:16:17Z</time>
      </trkpt>
      <trkpt lat="43.24062" lon="5.63787">
        <ele>510.2</ele>
        <time>2014-10-08T07:16:21Z</time>
      </trkpt>
      <trkpt lat="43.24065" lon="5.63782">
        <ele>509.3</ele>
        <time>2014-10-08T07:16:25Z</time>
      </trkpt>
      <trkpt lat="43.24067" lon="5.63777">
        <ele>509.2</ele>
        <time>2014-10-08T07:16:30Z</time>
      </trkpt>
      <trkpt lat="43.24068" lon="5.63772">
        <ele>509.7</ele>
        <time>2014-10-08T07:16:34Z</time>
      </trkpt>
      <trkpt lat="43.2407" lon="5.63768">
        <ele>510.2</ele>
        <time>2014-10-08T07:16:37Z</time>
      </trkpt>
      <trkpt lat="43.24073" lon="5.63763">
        <ele>509.8</ele>
        <time>2014-10-08T07:16:41Z</time>
      </trkpt>
      <trkpt lat="43.24075" lon="5.63759">
        <ele>510.2</ele>
        <time>2014-10-08T07:16:45Z</time>
      </trkpt>
      <trkpt lat="43.24078" lon="5.63754">
        <ele>511.5</ele>
        <time>2014-10-08T07:16:50Z</time>
      </trkpt>
      <trkpt lat="43.24081" lon="5.63751">
        <ele>512.2</ele>
        <time>2014-10-08T07:16:55Z</time>
      </trkpt>
      <trkpt lat="43.24085" lon="5.63749">
        <ele>513.7</ele>
        <time>2014-10-08T07:16:59Z</time>
      </trkpt>
      <trkpt lat="43.24085" lon="5.63748">
        <ele>513.9</ele>
        <time>2014-10-08T07:17:00Z</time>
      </trkpt>
      <trkpt lat="43.2409" lon="5.63742">
        <ele>514.2</ele>
        <time>2014-10-08T07:17:07Z</time>
      </trkpt>
      <trkpt lat="43.24094" lon="5.6374">
        <ele>514.2</ele>
        <time>2014-10-08T07:17:10Z</time>
      </trkpt>
      <trkpt lat="43.24098" lon="5.63738">
        <ele>515</ele>
        <time>2014-10-08T07:17:13Z</time>
      </trkpt>
      <trkpt lat="43.24101" lon="5.63736">
        <ele>515.5</ele>
        <time>2014-10-08T07:17:16Z</time>
      </trkpt>
      <trkpt lat="43.24105" lon="5.63733">
        <ele>515.5</ele>
        <time>2014-10-08T07:17:20Z</time>
      </trkpt>
      <trkpt lat="43.24108" lon="5.63729">
        <ele>515.7</ele>
        <time>2014-10-08T07:17:24Z</time>
      </trkpt>
      <trkpt lat="43.24112" lon="5.63726">
        <ele>517.4</ele>
        <time>2014-10-08T07:17:30Z</time>
      </trkpt>
      <trkpt lat="43.24116" lon="5.63724">
        <ele>517.5</ele>
        <time>2014-10-08T07:17:33Z</time>
      </trkpt>
      <trkpt lat="43.24119" lon="5.63722">
        <ele>517.5</ele>
        <time>2014-10-08T07:17:37Z</time>
      </trkpt>
      <trkpt lat="43.24123" lon="5.63719">
        <ele>517.7</ele>
        <time>2014-10-08T07:17:41Z</time>
      </trkpt>
      <trkpt lat="43.24127" lon="5.63717">
        <ele>517.5</ele>
        <time>2014-10-08T07:17:46Z</time>
      </trkpt>
      <trkpt lat="43.24131" lon="5.63716">
        <ele>519</ele>
        <time>2014-10-08T07:17:49Z</time>
      </trkpt>
      <trkpt lat="43.24134" lon="5.63713">
        <ele>519.2</ele>
        <time>2014-10-08T07:17:53Z</time>
      </trkpt>
      <trkpt lat="43.24137" lon="5.6371">
        <ele>519.9</ele>
        <time>2014-10-08T07:17:57Z</time>
      </trkpt>
      <trkpt lat="43.2414" lon="5.63706">
        <ele>519.2</ele>
        <time>2014-10-08T07:18:01Z</time>
      </trkpt>
      <trkpt lat="43.24141" lon="5.63705">
        <ele>519.4</ele>
        <time>2014-10-08T07:18:02Z</time>
      </trkpt>
      <trkpt lat="43.24147" lon="5.63701">
        <ele>519.7</ele>
        <time>2014-10-08T07:18:07Z</time>
      </trkpt>
      <trkpt lat="43.2415" lon="5.63698">
        <ele>520.7</ele>
        <time>2014-10-08T07:18:11Z</time>
      </trkpt>
      <trkpt lat="43.24154" lon="5.63694">
        <ele>521.5</ele>
        <time>2014-10-08T07:18:16Z</time>
      </trkpt>
      <trkpt lat="43.24157" lon="5.63691">
        <ele>521.5</ele>
        <time>2014-10-08T07:18:20Z</time>
      </trkpt>
      <trkpt lat="43.24161" lon="5.63689">
        <ele>522.5</ele>
        <time>2014-10-08T07:18:25Z</time>
      </trkpt>
      <trkpt lat="43.24163" lon="5.63685">
        <ele>522</ele>
        <time>2014-10-08T07:18:29Z</time>
      </trkpt>
      <trkpt lat="43.24166" lon="5.63682">
        <ele>521.5</ele>
        <time>2014-10-08T07:18:32Z</time>
      </trkpt>
      <trkpt lat="43.24169" lon="5.63678">
        <ele>520.5</ele>
        <time>2014-10-08T07:18:36Z</time>
      </trkpt>
      <trkpt lat="43.24171" lon="5.63675">
        <ele>520.7</ele>
        <time>2014-10-08T07:18:39Z</time>
      </trkpt>
      <trkpt lat="43.24174" lon="5.63672">
        <ele>521</ele>
        <time>2014-10-08T07:18:42Z</time>
      </trkpt>
      <trkpt lat="43.24177" lon="5.63668">
        <ele>521</ele>
        <time>2014-10-08T07:18:46Z</time>
      </trkpt>
      <trkpt lat="43.2418" lon="5.63664">
        <ele>521</ele>
        <time>2014-10-08T07:18:50Z</time>
      </trkpt>
      <trkpt lat="43.24183" lon="5.63659">
        <ele>520.4</ele>
        <time>2014-10-08T07:18:54Z</time>
      </trkpt>
      <trkpt lat="43.24186" lon="5.63655">
        <ele>520.2</ele>
        <time>2014-10-08T07:18:57Z</time>
      </trkpt>
      <trkpt lat="43.24189" lon="5.63653">
        <ele>520.2</ele>
        <time>2014-10-08T07:19:00Z</time>
      </trkpt>
      <trkpt lat="43.24193" lon="5.63651">
        <ele>520.2</ele>
        <time>2014-10-08T07:19:04Z</time>
      </trkpt>
      <trkpt lat="43.24194" lon="5.6365">
        <ele>520.2</ele>
        <time>2014-10-08T07:19:05Z</time>
      </trkpt>
      <trkpt lat="43.242" lon="5.63647">
        <ele>520.7</ele>
        <time>2014-10-08T07:19:13Z</time>
      </trkpt>
      <trkpt lat="43.24204" lon="5.63644">
        <ele>521</ele>
        <time>2014-10-08T07:19:18Z</time>
      </trkpt>
      <trkpt lat="43.24207" lon="5.63642">
        <ele>521.2</ele>
        <time>2014-10-08T07:19:22Z</time>
      </trkpt>
      <trkpt lat="43.24211" lon="5.6364">
        <ele>522.5</ele>
        <time>2014-10-08T07:19:26Z</time>
      </trkpt>
      <trkpt lat="43.24215" lon="5.63638">
        <ele>522.4</ele>
        <time>2014-10-08T07:19:29Z</time>
      </trkpt>
      <trkpt lat="43.24218" lon="5.63636">
        <ele>522.7</ele>
        <time>2014-10-08T07:19:32Z</time>
      </trkpt>
      <trkpt lat="43.24221" lon="5.63633">
        <ele>523.2</ele>
        <time>2014-10-08T07:19:37Z</time>
      </trkpt>
      <trkpt lat="43.24224" lon="5.63631">
        <ele>524.2</ele>
        <time>2014-10-08T07:19:50Z</time>
      </trkpt>
      <trkpt lat="43.24224" lon="5.63625">
        <ele>526.2</ele>
        <time>2014-10-08T07:20:20Z</time>
      </trkpt>
      <trkpt lat="43.24224" lon="5.63624">
        <ele>526</ele>
        <time>2014-10-08T07:20:21Z</time>
      </trkpt>
      <trkpt lat="43.24224" lon="5.63619">
        <ele>521.2</ele>
        <time>2014-10-08T07:20:56Z</time>
      </trkpt>
      <trkpt lat="43.24226" lon="5.63623">
        <ele>519.2</ele>
        <time>2014-10-08T07:21:07Z</time>
      </trkpt>
      <trkpt lat="43.24229" lon="5.63619">
        <ele>522.4</ele>
        <time>2014-10-08T07:23:18Z</time>
      </trkpt>
      <trkpt lat="43.24229" lon="5.63619">
        <ele>522.4</ele>
        <time>2014-10-08T07:23:19Z</time>
      </trkpt>
      <trkpt lat="43.24228" lon="5.63625">
        <ele>522.5</ele>
        <time>2014-10-08T07:24:26Z</time>
      </trkpt>
      <trkpt lat="43.24233" lon="5.63627">
        <ele>526.2</ele>
        <time>2014-10-08T07:26:55Z</time>
      </trkpt>
      <trkpt lat="43.2424" lon="5.63625">
        <ele>526</ele>
        <time>2014-10-08T07:27:06Z</time>
      </trkpt>
      <trkpt lat="43.24244" lon="5.63622">
        <ele>524.9</ele>
        <time>2014-10-08T07:27:12Z</time>
      </trkpt>
      <trkpt lat="43.24247" lon="5.63618">
        <ele>523.2</ele>
        <time>2014-10-08T07:27:17Z</time>
      </trkpt>
      <trkpt lat="43.2425" lon="5.63614">
        <ele>522.5</ele>
        <time>2014-10-08T07:27:21Z</time>
      </trkpt>
      <trkpt lat="43.24253" lon="5.63612">
        <ele>523.4</ele>
        <time>2014-10-08T07:27:26Z</time>
      </trkpt>
      <trkpt lat="43.24256" lon="5.63609">
        <ele>523.2</ele>
        <time>2014-10-08T07:27:29Z</time>
      </trkpt>
      <trkpt lat="43.24259" lon="5.63606">
        <ele>524.5</ele>
        <time>2014-10-08T07:27:34Z</time>
      </trkpt>
      <trkpt lat="43.24262" lon="5.63604">
        <ele>524.7</ele>
        <time>2014-10-08T07:27:37Z</time>
      </trkpt>
      <trkpt lat="43.24266" lon="5.63601">
        <ele>524.7</ele>
        <time>2014-10-08T07:27:40Z</time>
      </trkpt>
      <trkpt lat="43.24269" lon="5.63598">
        <ele>524.7</ele>
        <time>2014-10-08T07:27:44Z</time>
      </trkpt>
      <trkpt lat="43.24273" lon="5.63596">
        <ele>525.4</ele>
        <time>2014-10-08T07:27:47Z</time>
      </trkpt>
      <trkpt lat="43.24276" lon="5.63594">
        <ele>525.7</ele>
        <time>2014-10-08T07:27:50Z</time>
      </trkpt>
      <trkpt lat="43.24279" lon="5.63592">
        <ele>526.4</ele>
        <time>2014-10-08T07:27:53Z</time>
      </trkpt>
      <trkpt lat="43.24283" lon="5.63589">
        <ele>526</ele>
        <time>2014-10-08T07:27:57Z</time>
      </trkpt>
      <trkpt lat="43.24284" lon="5.63588">
        <ele>525.9</ele>
        <time>2014-10-08T07:27:58Z</time>
      </trkpt>
      <trkpt lat="43.24289" lon="5.63583">
        <ele>525.5</ele>
        <time>2014-10-08T07:28:04Z</time>
      </trkpt>
      <trkpt lat="43.24292" lon="5.63579">
        <ele>524.7</ele>
        <time>2014-10-08T07:28:07Z</time>
      </trkpt>
      <trkpt lat="43.24294" lon="5.63575">
        <ele>524.7</ele>
        <time>2014-10-08T07:28:10Z</time>
      </trkpt>
      <trkpt lat="43.24297" lon="5.63571">
        <ele>525</ele>
        <time>2014-10-08T07:28:14Z</time>
      </trkpt>
      <trkpt lat="43.243" lon="5.63567">
        <ele>525.2</ele>
        <time>2014-10-08T07:28:17Z</time>
      </trkpt>
      <trkpt lat="43.24302" lon="5.63564">
        <ele>525.9</ele>
        <time>2014-10-08T07:28:21Z</time>
      </trkpt>
      <trkpt lat="43.24304" lon="5.6356">
        <ele>526.2</ele>
        <time>2014-10-08T07:28:24Z</time>
      </trkpt>
      <trkpt lat="43.24307" lon="5.63557">
        <ele>525.7</ele>
        <time>2014-10-08T07:28:27Z</time>
      </trkpt>
      <trkpt lat="43.24309" lon="5.63554">
        <ele>525.4</ele>
        <time>2014-10-08T07:28:30Z</time>
      </trkpt>
      <trkpt lat="43.24312" lon="5.63551">
        <ele>525.9</ele>
        <time>2014-10-08T07:28:33Z</time>
      </trkpt>
      <trkpt lat="43.24316" lon="5.63548">
        <ele>526</ele>
        <time>2014-10-08T07:28:36Z</time>
      </trkpt>
      <trkpt lat="43.2432" lon="5.63545">
        <ele>525.5</ele>
        <time>2014-10-08T07:28:40Z</time>
      </trkpt>
      <trkpt lat="43.24324" lon="5.63546">
        <ele>524.5</ele>
        <time>2014-10-08T07:28:45Z</time>
      </trkpt>
      <trkpt lat="43.24327" lon="5.63548">
        <ele>524</ele>
        <time>2014-10-08T07:28:49Z</time>
      </trkpt>
      <trkpt lat="43.2433" lon="5.63551">
        <ele>523.9</ele>
        <time>2014-10-08T07:28:52Z</time>
      </trkpt>
      <trkpt lat="43.24332" lon="5.63554">
        <ele>523.5</ele>
        <time>2014-10-08T07:28:55Z</time>
      </trkpt>
      <trkpt lat="43.24335" lon="5.63558">
        <ele>523.9</ele>
        <time>2014-10-08T07:28:58Z</time>
      </trkpt>
      <trkpt lat="43.24335" lon="5.63559">
        <ele>523.5</ele>
        <time>2014-10-08T07:28:59Z</time>
      </trkpt>
      <trkpt lat="43.2434" lon="5.63566">
        <ele>523</ele>
        <time>2014-10-08T07:29:06Z</time>
      </trkpt>
      <trkpt lat="43.24341" lon="5.6357">
        <ele>523.2</ele>
        <time>2014-10-08T07:29:09Z</time>
      </trkpt>
      <trkpt lat="43.24344" lon="5.63574">
        <ele>522.7</ele>
        <time>2014-10-08T07:29:13Z</time>
      </trkpt>
      <trkpt lat="43.24345" lon="5.63579">
        <ele>521</ele>
        <time>2014-10-08T07:29:18Z</time>
      </trkpt>
      <trkpt lat="43.24345" lon="5.63585">
        <ele>521.7</ele>
        <time>2014-10-08T07:29:21Z</time>
      </trkpt>
      <trkpt lat="43.24347" lon="5.63591">
        <ele>522.2</ele>
        <time>2014-10-08T07:29:24Z</time>
      </trkpt>
      <trkpt lat="43.24348" lon="5.63596">
        <ele>522.2</ele>
        <time>2014-10-08T07:29:27Z</time>
      </trkpt>
      <trkpt lat="43.24348" lon="5.63601">
        <ele>522.2</ele>
        <time>2014-10-08T07:29:30Z</time>
      </trkpt>
      <trkpt lat="43.24349" lon="5.63605">
        <ele>522.2</ele>
        <time>2014-10-08T07:29:33Z</time>
      </trkpt>
      <trkpt lat="43.24349" lon="5.63611">
        <ele>522.4</ele>
        <time>2014-10-08T07:29:36Z</time>
      </trkpt>
      <trkpt lat="43.24349" lon="5.63615">
        <ele>522.5</ele>
        <time>2014-10-08T07:29:39Z</time>
      </trkpt>
      <trkpt lat="43.2435" lon="5.63621">
        <ele>522.5</ele>
        <time>2014-10-08T07:29:42Z</time>
      </trkpt>
      <trkpt lat="43.24351" lon="5.63627">
        <ele>522</ele>
        <time>2014-10-08T07:29:46Z</time>
      </trkpt>
      <trkpt lat="43.2435" lon="5.63633">
        <ele>521.4</ele>
        <time>2014-10-08T07:29:50Z</time>
      </trkpt>
      <trkpt lat="43.24352" lon="5.63639">
        <ele>520.9</ele>
        <time>2014-10-08T07:29:54Z</time>
      </trkpt>
      <trkpt lat="43.24353" lon="5.63643">
        <ele>520.2</ele>
        <time>2014-10-08T07:29:57Z</time>
      </trkpt>
      <trkpt lat="43.24357" lon="5.63644">
        <ele>519.7</ele>
        <time>2014-10-08T07:30:00Z</time>
      </trkpt>
      <trkpt lat="43.24359" lon="5.63644">
        <ele>520.2</ele>
        <time>2014-10-08T07:30:01Z</time>
      </trkpt>
      <trkpt lat="43.24364" lon="5.63641">
        <ele>519.5</ele>
        <time>2014-10-08T07:30:05Z</time>
      </trkpt>
      <trkpt lat="43.24366" lon="5.63637">
        <ele>519.7</ele>
        <time>2014-10-08T07:30:08Z</time>
      </trkpt>
      <trkpt lat="43.24368" lon="5.63633">
        <ele>520</ele>
        <time>2014-10-08T07:30:11Z</time>
      </trkpt>
      <trkpt lat="43.24369" lon="5.63627">
        <ele>518.5</ele>
        <time>2014-10-08T07:30:14Z</time>
      </trkpt>
      <trkpt lat="43.2437" lon="5.63622">
        <ele>517.5</ele>
        <time>2014-10-08T07:30:17Z</time>
      </trkpt>
      <trkpt lat="43.2437" lon="5.63617">
        <ele>516.9</ele>
        <time>2014-10-08T07:30:21Z</time>
      </trkpt>
      <trkpt lat="43.24371" lon="5.63611">
        <ele>515.7</ele>
        <time>2014-10-08T07:30:25Z</time>
      </trkpt>
      <trkpt lat="43.24371" lon="5.63605">
        <ele>514.5</ele>
        <time>2014-10-08T07:30:28Z</time>
      </trkpt>
      <trkpt lat="43.24371" lon="5.636">
        <ele>513.7</ele>
        <time>2014-10-08T07:30:31Z</time>
      </trkpt>
      <trkpt lat="43.24371" lon="5.63594">
        <ele>512.2</ele>
        <time>2014-10-08T07:30:34Z</time>
      </trkpt>
      <trkpt lat="43.2437" lon="5.63589">
        <ele>510.7</ele>
        <time>2014-10-08T07:30:37Z</time>
      </trkpt>
      <trkpt lat="43.24369" lon="5.63584">
        <ele>509.2</ele>
        <time>2014-10-08T07:30:40Z</time>
      </trkpt>
      <trkpt lat="43.24368" lon="5.6358">
        <ele>508.7</ele>
        <time>2014-10-08T07:30:43Z</time>
      </trkpt>
      <trkpt lat="43.24368" lon="5.63574">
        <ele>508.3</ele>
        <time>2014-10-08T07:30:47Z</time>
      </trkpt>
      <trkpt lat="43.24367" lon="5.63569">
        <ele>508.2</ele>
        <time>2014-10-08T07:30:51Z</time>
      </trkpt>
      <trkpt lat="43.24367" lon="5.63563">
        <ele>508.7</ele>
        <time>2014-10-08T07:30:55Z</time>
      </trkpt>
      <trkpt lat="43.24368" lon="5.63558">
        <ele>510.3</ele>
        <time>2014-10-08T07:30:58Z</time>
      </trkpt>
      <trkpt lat="43.24369" lon="5.63552">
        <ele>511.2</ele>
        <time>2014-10-08T07:31:02Z</time>
      </trkpt>
      <trkpt lat="43.24369" lon="5.63551">
        <ele>511.3</ele>
        <time>2014-10-08T07:31:03Z</time>
      </trkpt>
      <trkpt lat="43.24367" lon="5.63542">
        <ele>509.2</ele>
        <time>2014-10-08T07:31:08Z</time>
      </trkpt>
      <trkpt lat="43.24367" lon="5.63537">
        <ele>508.2</ele>
        <time>2014-10-08T07:31:11Z</time>
      </trkpt>
      <trkpt lat="43.24366" lon="5.63532">
        <ele>508.7</ele>
        <time>2014-10-08T07:31:14Z</time>
      </trkpt>
      <trkpt lat="43.24366" lon="5.63526">
        <ele>509.3</ele>
        <time>2014-10-08T07:31:18Z</time>
      </trkpt>
      <trkpt lat="43.24365" lon="5.63521">
        <ele>509.5</ele>
        <time>2014-10-08T07:31:21Z</time>
      </trkpt>
      <trkpt lat="43.24365" lon="5.63516">
        <ele>509.2</ele>
        <time>2014-10-08T07:31:24Z</time>
      </trkpt>
      <trkpt lat="43.24364" lon="5.63512">
        <ele>509.1</ele>
        <time>2014-10-08T07:31:27Z</time>
      </trkpt>
      <trkpt lat="43.24364" lon="5.63506">
        <ele>509</ele>
        <time>2014-10-08T07:31:30Z</time>
      </trkpt>
      <trkpt lat="43.24363" lon="5.63501">
        <ele>508.6</ele>
        <time>2014-10-08T07:31:33Z</time>
      </trkpt>
      <trkpt lat="43.24364" lon="5.63496">
        <ele>507.7</ele>
        <time>2014-10-08T07:31:37Z</time>
      </trkpt>
      <trkpt lat="43.24362" lon="5.63491">
        <ele>508.6</ele>
        <time>2014-10-08T07:31:40Z</time>
      </trkpt>
      <trkpt lat="43.24361" lon="5.63486">
        <ele>508.2</ele>
        <time>2014-10-08T07:31:43Z</time>
      </trkpt>
      <trkpt lat="43.2436" lon="5.63481">
        <ele>507.8</ele>
        <time>2014-10-08T07:31:46Z</time>
      </trkpt>
      <trkpt lat="43.24359" lon="5.63475">
        <ele>507</ele>
        <time>2014-10-08T07:31:49Z</time>
      </trkpt>
      <trkpt lat="43.24357" lon="5.6347">
        <ele>507</ele>
        <time>2014-10-08T07:31:53Z</time>
      </trkpt>
      <trkpt lat="43.24354" lon="5.63465">
        <ele>507.5</ele>
        <time>2014-10-08T07:31:58Z</time>
      </trkpt>
      <trkpt lat="43.24352" lon="5.63461">
        <ele>506.8</ele>
        <time>2014-10-08T07:32:01Z</time>
      </trkpt>
      <trkpt lat="43.2435" lon="5.63458">
        <ele>506.5</ele>
        <time>2014-10-08T07:32:04Z</time>
      </trkpt>
      <trkpt lat="43.24349" lon="5.63457">
        <ele>506.5</ele>
        <time>2014-10-08T07:32:05Z</time>
      </trkpt>
      <trkpt lat="43.24345" lon="5.63451">
        <ele>506.3</ele>
        <time>2014-10-08T07:32:10Z</time>
      </trkpt>
      <trkpt lat="43.24342" lon="5.63448">
        <ele>506.7</ele>
        <time>2014-10-08T07:32:13Z</time>
      </trkpt>
      <trkpt lat="43.2434" lon="5.63444">
        <ele>505.7</ele>
        <time>2014-10-08T07:32:16Z</time>
      </trkpt>
      <trkpt lat="43.24337" lon="5.63441">
        <ele>506.8</ele>
        <time>2014-10-08T07:32:20Z</time>
      </trkpt>
      <trkpt lat="43.24334" lon="5.63438">
        <ele>506</ele>
        <time>2014-10-08T07:32:23Z</time>
      </trkpt>
      <trkpt lat="43.24332" lon="5.63434">
        <ele>503.2</ele>
        <time>2014-10-08T07:32:26Z</time>
      </trkpt>
      <trkpt lat="43.24329" lon="5.6343">
        <ele>502.6</ele>
        <time>2014-10-08T07:32:29Z</time>
      </trkpt>
      <trkpt lat="43.24326" lon="5.63426">
        <ele>502.2</ele>
        <time>2014-10-08T07:32:32Z</time>
      </trkpt>
      <trkpt lat="43.24324" lon="5.63421">
        <ele>502.5</ele>
        <time>2014-10-08T07:32:36Z</time>
      </trkpt>
      <trkpt lat="43.24322" lon="5.63417">
        <ele>501.7</ele>
        <time>2014-10-08T07:32:39Z</time>
      </trkpt>
      <trkpt lat="43.24319" lon="5.63413">
        <ele>503.6</ele>
        <time>2014-10-08T07:32:43Z</time>
      </trkpt>
      <trkpt lat="43.24316" lon="5.6341">
        <ele>507.3</ele>
        <time>2014-10-08T07:32:47Z</time>
      </trkpt>
      <trkpt lat="43.24314" lon="5.63405">
        <ele>507.2</ele>
        <time>2014-10-08T07:32:51Z</time>
      </trkpt>
      <trkpt lat="43.24311" lon="5.634">
        <ele>507.2</ele>
        <time>2014-10-08T07:32:55Z</time>
      </trkpt>
      <trkpt lat="43.2431" lon="5.63395">
        <ele>504.7</ele>
        <time>2014-10-08T07:32:58Z</time>
      </trkpt>
      <trkpt lat="43.24309" lon="5.6339">
        <ele>502.8</ele>
        <time>2014-10-08T07:33:01Z</time>
      </trkpt>
      <trkpt lat="43.24308" lon="5.63384">
        <ele>500</ele>
        <time>2014-10-08T07:33:05Z</time>
      </trkpt>
      <trkpt lat="43.24308" lon="5.63382">
        <ele>499.2</ele>
        <time>2014-10-08T07:33:06Z</time>
      </trkpt>
      <trkpt lat="43.24308" lon="5.63373">
        <ele>496.6</ele>
        <time>2014-10-08T07:33:12Z</time>
      </trkpt>
      <trkpt lat="43.24307" lon="5.63368">
        <ele>496.5</ele>
        <time>2014-10-08T07:33:17Z</time>
      </trkpt>
      <trkpt lat="43.24307" lon="5.63363">
        <ele>494.8</ele>
        <time>2014-10-08T07:33:20Z</time>
      </trkpt>
      <trkpt lat="43.24307" lon="5.63358">
        <ele>494.1</ele>
        <time>2014-10-08T07:33:23Z</time>
      </trkpt>
      <trkpt lat="43.24307" lon="5.63352">
        <ele>494.7</ele>
        <time>2014-10-08T07:33:27Z</time>
      </trkpt>
      <trkpt lat="43.24306" lon="5.63347">
        <ele>496.2</ele>
        <time>2014-10-08T07:33:31Z</time>
      </trkpt>
      <trkpt lat="43.24306" lon="5.63342">
        <ele>495.7</ele>
        <time>2014-10-08T07:33:34Z</time>
      </trkpt>
      <trkpt lat="43.24306" lon="5.63336">
        <ele>495.1</ele>
        <time>2014-10-08T07:33:39Z</time>
      </trkpt>
      <trkpt lat="43.24305" lon="5.63331">
        <ele>493.6</ele>
        <time>2014-10-08T07:33:42Z</time>
      </trkpt>
      <trkpt lat="43.24305" lon="5.63325">
        <ele>491</ele>
        <time>2014-10-08T07:33:45Z</time>
      </trkpt>
      <trkpt lat="43.24305" lon="5.63321">
        <ele>490.1</ele>
        <time>2014-10-08T07:33:47Z</time>
      </trkpt>
      <trkpt lat="43.24304" lon="5.63316">
        <ele>488</ele>
        <time>2014-10-08T07:33:50Z</time>
      </trkpt>
      <trkpt lat="43.24304" lon="5.6331">
        <ele>486</ele>
        <time>2014-10-08T07:33:53Z</time>
      </trkpt>
      <trkpt lat="43.24305" lon="5.63305">
        <ele>487</ele>
        <time>2014-10-08T07:33:57Z</time>
      </trkpt>
      <trkpt lat="43.24304" lon="5.63301">
        <ele>488.1</ele>
        <time>2014-10-08T07:34:00Z</time>
      </trkpt>
      <trkpt lat="43.24302" lon="5.63297">
        <ele>486.7</ele>
        <time>2014-10-08T07:34:03Z</time>
      </trkpt>
      <trkpt lat="43.24301" lon="5.63292">
        <ele>485.2</ele>
        <time>2014-10-08T07:34:06Z</time>
      </trkpt>
      <trkpt lat="43.243" lon="5.63291">
        <ele>485.7</ele>
        <time>2014-10-08T07:34:07Z</time>
      </trkpt>
      <trkpt lat="43.24297" lon="5.63283">
        <ele>489</ele>
        <time>2014-10-08T07:34:15Z</time>
      </trkpt>
      <trkpt lat="43.24295" lon="5.63279">
        <ele>490</ele>
        <time>2014-10-08T07:34:19Z</time>
      </trkpt>
      <trkpt lat="43.24293" lon="5.63274">
        <ele>490.5</ele>
        <time>2014-10-08T07:34:23Z</time>
      </trkpt>
      <trkpt lat="43.24291" lon="5.63269">
        <ele>491.2</ele>
        <time>2014-10-08T07:34:26Z</time>
      </trkpt>
      <trkpt lat="43.2429" lon="5.63264">
        <ele>488.7</ele>
        <time>2014-10-08T07:34:29Z</time>
      </trkpt>
      <trkpt lat="43.24288" lon="5.63259">
        <ele>489</ele>
        <time>2014-10-08T07:34:33Z</time>
      </trkpt>
      <trkpt lat="43.24287" lon="5.63254">
        <ele>489.1</ele>
        <time>2014-10-08T07:34:36Z</time>
      </trkpt>
      <trkpt lat="43.24285" lon="5.63249">
        <ele>488.8</ele>
        <time>2014-10-08T07:34:39Z</time>
      </trkpt>
      <trkpt lat="43.24283" lon="5.63245">
        <ele>489.2</ele>
        <time>2014-10-08T07:34:42Z</time>
      </trkpt>
      <trkpt lat="43.24281" lon="5.63241">
        <ele>487.6</ele>
        <time>2014-10-08T07:34:45Z</time>
      </trkpt>
      <trkpt lat="43.24281" lon="5.63235">
        <ele>485</ele>
        <time>2014-10-08T07:34:49Z</time>
      </trkpt>
      <trkpt lat="43.24279" lon="5.6323">
        <ele>483.5</ele>
        <time>2014-10-08T07:34:53Z</time>
      </trkpt>
      <trkpt lat="43.24277" lon="5.63225">
        <ele>481.7</ele>
        <time>2014-10-08T07:34:57Z</time>
      </trkpt>
      <trkpt lat="43.24275" lon="5.63221">
        <ele>482</ele>
        <time>2014-10-08T07:35:00Z</time>
      </trkpt>
      <trkpt lat="43.24274" lon="5.63217">
        <ele>482.1</ele>
        <time>2014-10-08T07:35:03Z</time>
      </trkpt>
      <trkpt lat="43.24274" lon="5.63212">
        <ele>480</ele>
        <time>2014-10-08T07:35:05Z</time>
      </trkpt>
      <trkpt lat="43.24271" lon="5.63207">
        <ele>480.7</ele>
        <time>2014-10-08T07:35:08Z</time>
      </trkpt>
      <trkpt lat="43.24271" lon="5.63205">
        <ele>479.3</ele>
        <time>2014-10-08T07:35:09Z</time>
      </trkpt>
      <trkpt lat="43.24268" lon="5.63196">
        <ele>477.7</ele>
        <time>2014-10-08T07:35:15Z</time>
      </trkpt>
      <trkpt lat="43.24268" lon="5.6319">
        <ele>477.1</ele>
        <time>2014-10-08T07:35:19Z</time>
      </trkpt>
      <trkpt lat="43.24268" lon="5.63185">
        <ele>475.8</ele>
        <time>2014-10-08T07:35:22Z</time>
      </trkpt>
      <trkpt lat="43.24266" lon="5.63181">
        <ele>476.7</ele>
        <time>2014-10-08T07:35:25Z</time>
      </trkpt>
      <trkpt lat="43.24264" lon="5.63175">
        <ele>478.1</ele>
        <time>2014-10-08T07:35:29Z</time>
      </trkpt>
      <trkpt lat="43.24263" lon="5.6317">
        <ele>478.2</ele>
        <time>2014-10-08T07:35:32Z</time>
      </trkpt>
      <trkpt lat="43.24262" lon="5.63165">
        <ele>477.3</ele>
        <time>2014-10-08T07:35:35Z</time>
      </trkpt>
      <trkpt lat="43.2426" lon="5.63162">
        <ele>477</ele>
        <time>2014-10-08T07:35:38Z</time>
      </trkpt>
      <trkpt lat="43.24259" lon="5.63156">
        <ele>474.6</ele>
        <time>2014-10-08T07:35:41Z</time>
      </trkpt>
      <trkpt lat="43.24259" lon="5.63151">
        <ele>475.1</ele>
        <time>2014-10-08T07:35:46Z</time>
      </trkpt>
      <trkpt lat="43.24258" lon="5.63145">
        <ele>472.7</ele>
        <time>2014-10-08T07:35:49Z</time>
      </trkpt>
      <trkpt lat="43.24257" lon="5.6314">
        <ele>469.8</ele>
        <time>2014-10-08T07:35:52Z</time>
      </trkpt>
      <trkpt lat="43.24256" lon="5.63136">
        <ele>468</ele>
        <time>2014-10-08T07:35:54Z</time>
      </trkpt>
      <trkpt lat="43.24256" lon="5.63132">
        <ele>466.5</ele>
        <time>2014-10-08T07:35:56Z</time>
      </trkpt>
      <trkpt lat="43.24255" lon="5.63126">
        <ele>465.2</ele>
        <time>2014-10-08T07:35:59Z</time>
      </trkpt>
      <trkpt lat="43.24253" lon="5.63121">
        <ele>465.6</ele>
        <time>2014-10-08T07:36:04Z</time>
      </trkpt>
      <trkpt lat="43.24252" lon="5.63117">
        <ele>465.6</ele>
        <time>2014-10-08T07:36:07Z</time>
      </trkpt>
      <trkpt lat="43.24252" lon="5.63111">
        <ele>463.2</ele>
        <time>2014-10-08T07:36:10Z</time>
      </trkpt>
      <trkpt lat="43.24251" lon="5.6311">
        <ele>464.2</ele>
        <time>2014-10-08T07:36:11Z</time>
      </trkpt>
      <trkpt lat="43.24248" lon="5.63102">
        <ele>466.7</ele>
        <time>2014-10-08T07:36:17Z</time>
      </trkpt>
      <trkpt lat="43.24246" lon="5.63097">
        <ele>466.8</ele>
        <time>2014-10-08T07:36:20Z</time>
      </trkpt>
      <trkpt lat="43.24245" lon="5.63092">
        <ele>468.8</ele>
        <time>2014-10-08T07:36:24Z</time>
      </trkpt>
      <trkpt lat="43.24245" lon="5.63087">
        <ele>468.3</ele>
        <time>2014-10-08T07:36:27Z</time>
      </trkpt>
      <trkpt lat="43.24245" lon="5.63082">
        <ele>467.7</ele>
        <time>2014-10-08T07:36:30Z</time>
      </trkpt>
      <trkpt lat="43.24244" lon="5.63078">
        <ele>469.2</ele>
        <time>2014-10-08T07:36:33Z</time>
      </trkpt>
      <trkpt lat="43.24243" lon="5.63073">
        <ele>470.1</ele>
        <time>2014-10-08T07:36:36Z</time>
      </trkpt>
      <trkpt lat="43.24242" lon="5.63068">
        <ele>472.7</ele>
        <time>2014-10-08T07:36:40Z</time>
      </trkpt>
      <trkpt lat="43.24242" lon="5.63062">
        <ele>470.8</ele>
        <time>2014-10-08T07:36:43Z</time>
      </trkpt>
      <trkpt lat="43.24241" lon="5.63057">
        <ele>469.3</ele>
        <time>2014-10-08T07:36:46Z</time>
      </trkpt>
      <trkpt lat="43.24241" lon="5.63051">
        <ele>468.7</ele>
        <time>2014-10-08T07:36:50Z</time>
      </trkpt>
      <trkpt lat="43.24241" lon="5.63046">
        <ele>468.5</ele>
        <time>2014-10-08T07:36:53Z</time>
      </trkpt>
      <trkpt lat="43.2424" lon="5.63041">
        <ele>466.8</ele>
        <time>2014-10-08T07:36:56Z</time>
      </trkpt>
      <trkpt lat="43.24241" lon="5.63035">
        <ele>466.2</ele>
        <time>2014-10-08T07:37:00Z</time>
      </trkpt>
      <trkpt lat="43.24241" lon="5.63029">
        <ele>467.3</ele>
        <time>2014-10-08T07:37:04Z</time>
      </trkpt>
      <trkpt lat="43.24242" lon="5.63025">
        <ele>466.5</ele>
        <time>2014-10-08T07:37:07Z</time>
      </trkpt>
      <trkpt lat="43.24241" lon="5.6302">
        <ele>467.1</ele>
        <time>2014-10-08T07:37:11Z</time>
      </trkpt>
      <trkpt lat="43.24241" lon="5.63019">
        <ele>467.5</ele>
        <time>2014-10-08T07:37:12Z</time>
      </trkpt>
    </trkseg>
  </trk>
  <trk>
    <name><![CDATA[Cabanon des Marquis_3]]></name>
    <trkseg>
      <trkpt lat="43.24252" lon="5.62968">
        <ele>483.5</ele>
        <time>2014-10-08T07:37:44Z</time>
      </trkpt>
      <trkpt lat="43.24252" lon="5.6297">
        <ele>486.3</ele>
        <time>2014-10-08T07:37:44Z</time>
      </trkpt>
      <trkpt lat="43.24259" lon="5.62966">
        <ele>480</ele>
        <time>2014-10-08T07:37:51Z</time>
      </trkpt>
      <trkpt lat="43.24257" lon="5.62961">
        <ele>475.2</ele>
        <time>2014-10-08T07:37:55Z</time>
      </trkpt>
      <trkpt lat="43.24259" lon="5.62956">
        <ele>475.3</ele>
        <time>2014-10-08T07:37:58Z</time>
      </trkpt>
      <trkpt lat="43.24261" lon="5.62952">
        <ele>473.7</ele>
        <time>2014-10-08T07:38:00Z</time>
      </trkpt>
      <trkpt lat="43.24263" lon="5.62948">
        <ele>473.3</ele>
        <time>2014-10-08T07:38:03Z</time>
      </trkpt>
      <trkpt lat="43.24263" lon="5.62942">
        <ele>471.5</ele>
        <time>2014-10-08T07:38:06Z</time>
      </trkpt>
      <trkpt lat="43.24264" lon="5.62937">
        <ele>469.1</ele>
        <time>2014-10-08T07:38:09Z</time>
      </trkpt>
      <trkpt lat="43.24264" lon="5.62932">
        <ele>466.3</ele>
        <time>2014-10-08T07:38:12Z</time>
      </trkpt>
      <trkpt lat="43.24264" lon="5.62926">
        <ele>465.7</ele>
        <time>2014-10-08T07:38:17Z</time>
      </trkpt>
      <trkpt lat="43.24265" lon="5.62921">
        <ele>463.7</ele>
        <time>2014-10-08T07:38:20Z</time>
      </trkpt>
      <trkpt lat="43.24266" lon="5.62916">
        <ele>464.7</ele>
        <time>2014-10-08T07:38:23Z</time>
      </trkpt>
      <trkpt lat="43.24269" lon="5.62911">
        <ele>468</ele>
        <time>2014-10-08T07:38:27Z</time>
      </trkpt>
      <trkpt lat="43.24268" lon="5.62905">
        <ele>466.7</ele>
        <time>2014-10-08T07:38:30Z</time>
      </trkpt>
      <trkpt lat="43.24269" lon="5.629">
        <ele>465.5</ele>
        <time>2014-10-08T07:38:33Z</time>
      </trkpt>
      <trkpt lat="43.2427" lon="5.62895">
        <ele>463.7</ele>
        <time>2014-10-08T07:38:36Z</time>
      </trkpt>
      <trkpt lat="43.24272" lon="5.6289">
        <ele>463.1</ele>
        <time>2014-10-08T07:38:39Z</time>
      </trkpt>
      <trkpt lat="43.24272" lon="5.62884">
        <ele>461.5</ele>
        <time>2014-10-08T07:38:43Z</time>
      </trkpt>
      <trkpt lat="43.24271" lon="5.62879">
        <ele>459</ele>
        <time>2014-10-08T07:38:46Z</time>
      </trkpt>
      <trkpt lat="43.24273" lon="5.62877">
        <ele>459</ele>
        <time>2014-10-08T07:38:47Z</time>
      </trkpt>
      <trkpt lat="43.24276" lon="5.62871">
        <ele>459</ele>
        <time>2014-10-08T07:38:51Z</time>
      </trkpt>
      <trkpt lat="43.24276" lon="5.62866">
        <ele>459.7</ele>
        <time>2014-10-08T07:38:54Z</time>
      </trkpt>
      <trkpt lat="43.24278" lon="5.62861">
        <ele>461.2</ele>
        <time>2014-10-08T07:38:57Z</time>
      </trkpt>
      <trkpt lat="43.24279" lon="5.62856">
        <ele>460.7</ele>
        <time>2014-10-08T07:39:01Z</time>
      </trkpt>
      <trkpt lat="43.24281" lon="5.62852">
        <ele>461.5</ele>
        <time>2014-10-08T07:39:04Z</time>
      </trkpt>
      <trkpt lat="43.24283" lon="5.62847">
        <ele>461.3</ele>
        <time>2014-10-08T07:39:06Z</time>
      </trkpt>
      <trkpt lat="43.24283" lon="5.62842">
        <ele>460.3</ele>
        <time>2014-10-08T07:39:09Z</time>
      </trkpt>
      <trkpt lat="43.24284" lon="5.62837">
        <ele>459.1</ele>
        <time>2014-10-08T07:39:11Z</time>
      </trkpt>
      <trkpt lat="43.24284" lon="5.62832">
        <ele>458.2</ele>
        <time>2014-10-08T07:39:14Z</time>
      </trkpt>
      <trkpt lat="43.24284" lon="5.62826">
        <ele>455.7</ele>
        <time>2014-10-08T07:39:16Z</time>
      </trkpt>
      <trkpt lat="43.24285" lon="5.62822">
        <ele>455.8</ele>
        <time>2014-10-08T07:39:18Z</time>
      </trkpt>
      <trkpt lat="43.24285" lon="5.62817">
        <ele>454.2</ele>
        <time>2014-10-08T07:39:20Z</time>
      </trkpt>
      <trkpt lat="43.24284" lon="5.62812">
        <ele>454.7</ele>
        <time>2014-10-08T07:39:24Z</time>
      </trkpt>
      <trkpt lat="43.24283" lon="5.62807">
        <ele>456.7</ele>
        <time>2014-10-08T07:39:28Z</time>
      </trkpt>
      <trkpt lat="43.24283" lon="5.62801">
        <ele>455.8</ele>
        <time>2014-10-08T07:39:31Z</time>
      </trkpt>
      <trkpt lat="43.24281" lon="5.62797">
        <ele>455.3</ele>
        <time>2014-10-08T07:39:35Z</time>
      </trkpt>
      <trkpt lat="43.24278" lon="5.62792">
        <ele>453.7</ele>
        <time>2014-10-08T07:39:38Z</time>
      </trkpt>
      <trkpt lat="43.24275" lon="5.62788">
        <ele>454.7</ele>
        <time>2014-10-08T07:39:42Z</time>
      </trkpt>
      <trkpt lat="43.24272" lon="5.62785">
        <ele>455.1</ele>
        <time>2014-10-08T07:39:46Z</time>
      </trkpt>
      <trkpt lat="43.2427" lon="5.62782">
        <ele>454.3</ele>
        <time>2014-10-08T07:39:48Z</time>
      </trkpt>
      <trkpt lat="43.24268" lon="5.6278">
        <ele>454.1</ele>
        <time>2014-10-08T07:39:49Z</time>
      </trkpt>
      <trkpt lat="43.24264" lon="5.62774">
        <ele>452.8</ele>
        <time>2014-10-08T07:39:54Z</time>
      </trkpt>
      <trkpt lat="43.24261" lon="5.62771">
        <ele>454</ele>
        <time>2014-10-08T07:39:57Z</time>
      </trkpt>
      <trkpt lat="43.24258" lon="5.62767">
        <ele>453.6</ele>
        <time>2014-10-08T07:40:00Z</time>
      </trkpt>
      <trkpt lat="43.24256" lon="5.62763">
        <ele>452.5</ele>
        <time>2014-10-08T07:40:03Z</time>
      </trkpt>
      <trkpt lat="43.24253" lon="5.6276">
        <ele>454.1</ele>
        <time>2014-10-08T07:40:06Z</time>
      </trkpt>
      <trkpt lat="43.24251" lon="5.62755">
        <ele>454</ele>
        <time>2014-10-08T07:40:09Z</time>
      </trkpt>
      <trkpt lat="43.24248" lon="5.6275">
        <ele>454</ele>
        <time>2014-10-08T07:40:12Z</time>
      </trkpt>
      <trkpt lat="43.24246" lon="5.62746">
        <ele>453.7</ele>
        <time>2014-10-08T07:40:15Z</time>
      </trkpt>
      <trkpt lat="43.24243" lon="5.62743">
        <ele>456.2</ele>
        <time>2014-10-08T07:40:18Z</time>
      </trkpt>
      <trkpt lat="43.2424" lon="5.62738">
        <ele>455.7</ele>
        <time>2014-10-08T07:40:22Z</time>
      </trkpt>
      <trkpt lat="43.24239" lon="5.62734">
        <ele>455.5</ele>
        <time>2014-10-08T07:40:25Z</time>
      </trkpt>
      <trkpt lat="43.24237" lon="5.62732">
        <ele>456</ele>
        <time>2014-10-08T07:40:27Z</time>
      </trkpt>
      <trkpt lat="43.24235" lon="5.62728">
        <ele>456</ele>
        <time>2014-10-08T07:40:29Z</time>
      </trkpt>
      <trkpt lat="43.24232" lon="5.62723">
        <ele>456.2</ele>
        <time>2014-10-08T07:40:32Z</time>
      </trkpt>
      <trkpt lat="43.24228" lon="5.62721">
        <ele>461.6</ele>
        <time>2014-10-08T07:40:36Z</time>
      </trkpt>
      <trkpt lat="43.24225" lon="5.62717">
        <ele>462.8</ele>
        <time>2014-10-08T07:40:40Z</time>
      </trkpt>
      <trkpt lat="43.24223" lon="5.62713">
        <ele>463.5</ele>
        <time>2014-10-08T07:40:43Z</time>
      </trkpt>
      <trkpt lat="43.2422" lon="5.62708">
        <ele>461.6</ele>
        <time>2014-10-08T07:40:47Z</time>
      </trkpt>
      <trkpt lat="43.24219" lon="5.62703">
        <ele>459.2</ele>
        <time>2014-10-08T07:40:50Z</time>
      </trkpt>
      <trkpt lat="43.24218" lon="5.62701">
        <ele>458.2</ele>
        <time>2014-10-08T07:40:51Z</time>
      </trkpt>
      <trkpt lat="43.24213" lon="5.62695">
        <ele>457.8</ele>
        <time>2014-10-08T07:40:56Z</time>
      </trkpt>
      <trkpt lat="43.24211" lon="5.62691">
        <ele>456.7</ele>
        <time>2014-10-08T07:40:59Z</time>
      </trkpt>
      <trkpt lat="43.24208" lon="5.62688">
        <ele>456</ele>
        <time>2014-10-08T07:41:02Z</time>
      </trkpt>
      <trkpt lat="43.24206" lon="5.62684">
        <ele>457.3</ele>
        <time>2014-10-08T07:41:05Z</time>
      </trkpt>
      <trkpt lat="43.24203" lon="5.62681">
        <ele>458.2</ele>
        <time>2014-10-08T07:41:08Z</time>
      </trkpt>
      <trkpt lat="43.242" lon="5.62677">
        <ele>458.7</ele>
        <time>2014-10-08T07:41:11Z</time>
      </trkpt>
      <trkpt lat="43.24197" lon="5.62675">
        <ele>461.6</ele>
        <time>2014-10-08T07:41:15Z</time>
      </trkpt>
      <trkpt lat="43.24193" lon="5.62671">
        <ele>464</ele>
        <time>2014-10-08T07:41:18Z</time>
      </trkpt>
      <trkpt lat="43.24191" lon="5.62667">
        <ele>465.2</ele>
        <time>2014-10-08T07:41:22Z</time>
      </trkpt>
      <trkpt lat="43.24189" lon="5.62663">
        <ele>465.2</ele>
        <time>2014-10-08T07:41:25Z</time>
      </trkpt>
      <trkpt lat="43.24188" lon="5.62658">
        <ele>462.1</ele>
        <time>2014-10-08T07:41:28Z</time>
      </trkpt>
      <trkpt lat="43.24187" lon="5.62653">
        <ele>458.8</ele>
        <time>2014-10-08T07:41:31Z</time>
      </trkpt>
      <trkpt lat="43.24186" lon="5.62648">
        <ele>456.6</ele>
        <time>2014-10-08T07:41:34Z</time>
      </trkpt>
      <trkpt lat="43.24184" lon="5.62642">
        <ele>453.1</ele>
        <time>2014-10-08T07:41:37Z</time>
      </trkpt>
      <trkpt lat="43.24183" lon="5.62638">
        <ele>451.2</ele>
        <time>2014-10-08T07:41:39Z</time>
      </trkpt>
      <trkpt lat="43.24181" lon="5.62634">
        <ele>448.7</ele>
        <time>2014-10-08T07:41:41Z</time>
      </trkpt>
      <trkpt lat="43.2418" lon="5.6263">
        <ele>448.5</ele>
        <time>2014-10-08T07:41:44Z</time>
      </trkpt>
      <trkpt lat="43.24178" lon="5.62625">
        <ele>446.7</ele>
        <time>2014-10-08T07:41:47Z</time>
      </trkpt>
      <trkpt lat="43.24177" lon="5.6262">
        <ele>444.1</ele>
        <time>2014-10-08T07:41:50Z</time>
      </trkpt>
      <trkpt lat="43.24174" lon="5.62615">
        <ele>445.2</ele>
        <time>2014-10-08T07:41:54Z</time>
      </trkpt>
      <trkpt lat="43.24174" lon="5.62614">
        <ele>445.8</ele>
        <time>2014-10-08T07:41:55Z</time>
      </trkpt>
      <trkpt lat="43.24172" lon="5.62605">
        <ele>442.8</ele>
        <time>2014-10-08T07:42:00Z</time>
      </trkpt>
      <trkpt lat="43.24172" lon="5.626">
        <ele>441.3</ele>
        <time>2014-10-08T07:42:02Z</time>
      </trkpt>
      <trkpt lat="43.24171" lon="5.62595">
        <ele>441.7</ele>
        <time>2014-10-08T07:42:05Z</time>
      </trkpt>
      <trkpt lat="43.24172" lon="5.62591">
        <ele>441.2</ele>
        <time>2014-10-08T07:42:08Z</time>
      </trkpt>
      <trkpt lat="43.24173" lon="5.62585">
        <ele>440.7</ele>
        <time>2014-10-08T07:42:11Z</time>
      </trkpt>
      <trkpt lat="43.24173" lon="5.62579">
        <ele>442.5</ele>
        <time>2014-10-08T07:42:16Z</time>
      </trkpt>
      <trkpt lat="43.24172" lon="5.62574">
        <ele>442.7</ele>
        <time>2014-10-08T07:42:19Z</time>
      </trkpt>
      <trkpt lat="43.24172" lon="5.62568">
        <ele>443.3</ele>
        <time>2014-10-08T07:42:22Z</time>
      </trkpt>
      <trkpt lat="43.24172" lon="5.62564">
        <ele>447.7</ele>
        <time>2014-10-08T07:42:25Z</time>
      </trkpt>
      <trkpt lat="43.24169" lon="5.6256">
        <ele>452</ele>
        <time>2014-10-08T07:42:28Z</time>
      </trkpt>
      <trkpt lat="43.24167" lon="5.62555">
        <ele>454.3</ele>
        <time>2014-10-08T07:42:31Z</time>
      </trkpt>
      <trkpt lat="43.24166" lon="5.6255">
        <ele>459</ele>
        <time>2014-10-08T07:42:34Z</time>
      </trkpt>
      <trkpt lat="43.24163" lon="5.62546">
        <ele>465.7</ele>
        <time>2014-10-08T07:42:37Z</time>
      </trkpt>
      <trkpt lat="43.2416" lon="5.62542">
        <ele>475.6</ele>
        <time>2014-10-08T07:42:40Z</time>
      </trkpt>
      <trkpt lat="43.24157" lon="5.62538">
        <ele>487.1</ele>
        <time>2014-10-08T07:42:44Z</time>
      </trkpt>
      <trkpt lat="43.24155" lon="5.62533">
        <ele>490</ele>
        <time>2014-10-08T07:42:48Z</time>
      </trkpt>
      <trkpt lat="43.24154" lon="5.62529">
        <ele>490</ele>
        <time>2014-10-08T07:42:51Z</time>
      </trkpt>
      <trkpt lat="43.24155" lon="5.62523">
        <ele>482.7</ele>
        <time>2014-10-08T07:42:57Z</time>
      </trkpt>
      <trkpt lat="43.24156" lon="5.6252">
        <ele>478.2</ele>
        <time>2014-10-08T07:42:58Z</time>
      </trkpt>
      <trkpt lat="43.24157" lon="5.62517">
        <ele>474.2</ele>
        <time>2014-10-08T07:42:59Z</time>
      </trkpt>
      <trkpt lat="43.24159" lon="5.62514">
        <ele>471</ele>
        <time>2014-10-08T07:43:00Z</time>
      </trkpt>
      <trkpt lat="43.2416" lon="5.62511">
        <ele>467.5</ele>
        <time>2014-10-08T07:43:01Z</time>
      </trkpt>
      <trkpt lat="43.24161" lon="5.62508">
        <ele>463.8</ele>
        <time>2014-10-08T07:43:02Z</time>
      </trkpt>
      <trkpt lat="43.24162" lon="5.62504">
        <ele>462.5</ele>
        <time>2014-10-08T07:43:04Z</time>
      </trkpt>
      <trkpt lat="43.24162" lon="5.625">
        <ele>459.8</ele>
        <time>2014-10-08T07:43:05Z</time>
      </trkpt>
      <trkpt lat="43.24163" lon="5.62497">
        <ele>457.6</ele>
        <time>2014-10-08T07:43:06Z</time>
      </trkpt>
      <trkpt lat="43.24164" lon="5.62492">
        <ele>453.7</ele>
        <time>2014-10-08T07:43:08Z</time>
      </trkpt>
      <trkpt lat="43.24165" lon="5.62488">
        <ele>450.2</ele>
        <time>2014-10-08T07:43:10Z</time>
      </trkpt>
      <trkpt lat="43.24167" lon="5.62483">
        <ele>447.2</ele>
        <time>2014-10-08T07:43:14Z</time>
      </trkpt>
      <trkpt lat="43.24169" lon="5.62478">
        <ele>446</ele>
        <time>2014-10-08T07:43:17Z</time>
      </trkpt>
      <trkpt lat="43.2417" lon="5.62473">
        <ele>445.2</ele>
        <time>2014-10-08T07:43:20Z</time>
      </trkpt>
      <trkpt lat="43.24172" lon="5.62469">
        <ele>444.8</ele>
        <time>2014-10-08T07:43:23Z</time>
      </trkpt>
      <trkpt lat="43.24175" lon="5.62464">
        <ele>444.2</ele>
        <time>2014-10-08T07:43:27Z</time>
      </trkpt>
      <trkpt lat="43.24176" lon="5.62459">
        <ele>444.3</ele>
        <time>2014-10-08T07:43:30Z</time>
      </trkpt>
      <trkpt lat="43.24175" lon="5.62453">
        <ele>443.1</ele>
        <time>2014-10-08T07:43:33Z</time>
      </trkpt>
      <trkpt lat="43.24175" lon="5.62448">
        <ele>441.7</ele>
        <time>2014-10-08T07:43:35Z</time>
      </trkpt>
      <trkpt lat="43.24175" lon="5.62442">
        <ele>441.2</ele>
        <time>2014-10-08T07:43:38Z</time>
      </trkpt>
      <trkpt lat="43.24176" lon="5.62437">
        <ele>440.7</ele>
        <time>2014-10-08T07:43:42Z</time>
      </trkpt>
      <trkpt lat="43.24177" lon="5.62431">
        <ele>439.2</ele>
        <time>2014-10-08T07:43:45Z</time>
      </trkpt>
      <trkpt lat="43.24178" lon="5.62426">
        <ele>439.5</ele>
        <time>2014-10-08T07:43:49Z</time>
      </trkpt>
      <trkpt lat="43.24179" lon="5.62421">
        <ele>439.7</ele>
        <time>2014-10-08T07:43:54Z</time>
      </trkpt>
      <trkpt lat="43.24178" lon="5.62416">
        <ele>439.2</ele>
        <time>2014-10-08T07:43:58Z</time>
      </trkpt>
      <trkpt lat="43.24178" lon="5.62414">
        <ele>438.6</ele>
        <time>2014-10-08T07:43:59Z</time>
      </trkpt>
      <trkpt lat="43.2418" lon="5.62408">
        <ele>440</ele>
        <time>2014-10-08T07:44:02Z</time>
      </trkpt>
      <trkpt lat="43.24181" lon="5.62403">
        <ele>439.2</ele>
        <time>2014-10-08T07:44:04Z</time>
      </trkpt>
      <trkpt lat="43.24181" lon="5.62397">
        <ele>440.7</ele>
        <time>2014-10-08T07:44:08Z</time>
      </trkpt>
      <trkpt lat="43.24182" lon="5.62393">
        <ele>444</ele>
        <time>2014-10-08T07:44:12Z</time>
      </trkpt>
      <trkpt lat="43.24183" lon="5.62387">
        <ele>446</ele>
        <time>2014-10-08T07:44:17Z</time>
      </trkpt>
      <trkpt lat="43.24185" lon="5.62383">
        <ele>448.2</ele>
        <time>2014-10-08T07:44:21Z</time>
      </trkpt>
      <trkpt lat="43.24186" lon="5.62378">
        <ele>451.3</ele>
        <time>2014-10-08T07:44:27Z</time>
      </trkpt>
      <trkpt lat="43.24186" lon="5.62372">
        <ele>450.2</ele>
        <time>2014-10-08T07:44:30Z</time>
      </trkpt>
      <trkpt lat="43.24188" lon="5.62367">
        <ele>452.6</ele>
        <time>2014-10-08T07:44:34Z</time>
      </trkpt>
      <trkpt lat="43.24189" lon="5.62361">
        <ele>451.7</ele>
        <time>2014-10-08T07:44:37Z</time>
      </trkpt>
      <trkpt lat="43.24189" lon="5.62356">
        <ele>451.2</ele>
        <time>2014-10-08T07:44:41Z</time>
      </trkpt>
      <trkpt lat="43.24188" lon="5.62351">
        <ele>449.8</ele>
        <time>2014-10-08T07:44:44Z</time>
      </trkpt>
      <trkpt lat="43.24188" lon="5.62346">
        <ele>449</ele>
        <time>2014-10-08T07:44:47Z</time>
      </trkpt>
      <trkpt lat="43.24187" lon="5.62342">
        <ele>448.3</ele>
        <time>2014-10-08T07:44:50Z</time>
      </trkpt>
      <trkpt lat="43.24187" lon="5.62336">
        <ele>447</ele>
        <time>2014-10-08T07:44:53Z</time>
      </trkpt>
      <trkpt lat="43.24186" lon="5.6233">
        <ele>447.2</ele>
        <time>2014-10-08T07:44:57Z</time>
      </trkpt>
      <trkpt lat="43.24186" lon="5.62324">
        <ele>448.7</ele>
        <time>2014-10-08T07:45:02Z</time>
      </trkpt>
      <trkpt lat="43.24186" lon="5.62323">
        <ele>449.2</ele>
        <time>2014-10-08T07:45:03Z</time>
      </trkpt>
      <trkpt lat="43.24184" lon="5.62314">
        <ele>451.1</ele>
        <time>2014-10-08T07:45:10Z</time>
      </trkpt>
      <trkpt lat="43.24185" lon="5.62309">
        <ele>452.7</ele>
        <time>2014-10-08T07:45:14Z</time>
      </trkpt>
      <trkpt lat="43.24185" lon="5.62304">
        <ele>454.1</ele>
        <time>2014-10-08T07:45:18Z</time>
      </trkpt>
      <trkpt lat="43.24187" lon="5.62299">
        <ele>455.7</ele>
        <time>2014-10-08T07:45:22Z</time>
      </trkpt>
      <trkpt lat="43.24189" lon="5.62294">
        <ele>456.5</ele>
        <time>2014-10-08T07:45:25Z</time>
      </trkpt>
      <trkpt lat="43.2419" lon="5.62289">
        <ele>456.6</ele>
        <time>2014-10-08T07:45:29Z</time>
      </trkpt>
      <trkpt lat="43.24192" lon="5.62285">
        <ele>456.2</ele>
        <time>2014-10-08T07:45:32Z</time>
      </trkpt>
      <trkpt lat="43.24194" lon="5.6228">
        <ele>456.2</ele>
        <time>2014-10-08T07:45:36Z</time>
      </trkpt>
      <trkpt lat="43.24196" lon="5.62276">
        <ele>456.7</ele>
        <time>2014-10-08T07:45:39Z</time>
      </trkpt>
      <trkpt lat="43.24197" lon="5.62271">
        <ele>457.6</ele>
        <time>2014-10-08T07:45:43Z</time>
      </trkpt>
      <trkpt lat="43.24198" lon="5.62266">
        <ele>457.7</ele>
        <time>2014-10-08T07:45:47Z</time>
      </trkpt>
      <trkpt lat="43.24199" lon="5.6226">
        <ele>456.3</ele>
        <time>2014-10-08T07:45:51Z</time>
      </trkpt>
      <trkpt lat="43.24201" lon="5.62254">
        <ele>456.5</ele>
        <time>2014-10-08T07:45:55Z</time>
      </trkpt>
      <trkpt lat="43.24203" lon="5.6225">
        <ele>457.6</ele>
        <time>2014-10-08T07:45:59Z</time>
      </trkpt>
      <trkpt lat="43.24205" lon="5.62245">
        <ele>459.2</ele>
        <time>2014-10-08T07:46:04Z</time>
      </trkpt>
      <trkpt lat="43.24205" lon="5.62244">
        <ele>459</ele>
        <time>2014-10-08T07:46:05Z</time>
      </trkpt>
      <trkpt lat="43.24209" lon="5.62235">
        <ele>459.2</ele>
        <time>2014-10-08T07:46:12Z</time>
      </trkpt>
      <trkpt lat="43.24211" lon="5.62231">
        <ele>458.7</ele>
        <time>2014-10-08T07:46:15Z</time>
      </trkpt>
      <trkpt lat="43.24213" lon="5.62226">
        <ele>458.7</ele>
        <time>2014-10-08T07:46:18Z</time>
      </trkpt>
      <trkpt lat="43.24215" lon="5.62222">
        <ele>459.3</ele>
        <time>2014-10-08T07:46:22Z</time>
      </trkpt>
      <trkpt lat="43.24218" lon="5.62218">
        <ele>461.2</ele>
        <time>2014-10-08T07:46:26Z</time>
      </trkpt>
      <trkpt lat="43.24222" lon="5.62215">
        <ele>464.1</ele>
        <time>2014-10-08T07:46:31Z</time>
      </trkpt>
      <trkpt lat="43.24224" lon="5.62212">
        <ele>464.1</ele>
        <time>2014-10-08T07:46:34Z</time>
      </trkpt>
      <trkpt lat="43.24227" lon="5.62208">
        <ele>464.2</ele>
        <time>2014-10-08T07:46:38Z</time>
      </trkpt>
      <trkpt lat="43.2423" lon="5.62204">
        <ele>464.8</ele>
        <time>2014-10-08T07:46:41Z</time>
      </trkpt>
      <trkpt lat="43.24234" lon="5.62201">
        <ele>466.1</ele>
        <time>2014-10-08T07:46:45Z</time>
      </trkpt>
      <trkpt lat="43.24235" lon="5.62196">
        <ele>466.5</ele>
        <time>2014-10-08T07:46:48Z</time>
      </trkpt>
      <trkpt lat="43.24237" lon="5.62192">
        <ele>466.8</ele>
        <time>2014-10-08T07:46:52Z</time>
      </trkpt>
      <trkpt lat="43.24239" lon="5.62188">
        <ele>466.2</ele>
        <time>2014-10-08T07:46:54Z</time>
      </trkpt>
      <trkpt lat="43.24241" lon="5.62184">
        <ele>466.2</ele>
        <time>2014-10-08T07:46:57Z</time>
      </trkpt>
      <trkpt lat="43.24243" lon="5.62179">
        <ele>467.2</ele>
        <time>2014-10-08T07:47:01Z</time>
      </trkpt>
      <trkpt lat="43.24244" lon="5.62174">
        <ele>468.1</ele>
        <time>2014-10-08T07:47:05Z</time>
      </trkpt>
      <trkpt lat="43.24244" lon="5.62172">
        <ele>468.2</ele>
        <time>2014-10-08T07:47:06Z</time>
      </trkpt>
      <trkpt lat="43.24246" lon="5.62163">
        <ele>469.2</ele>
        <time>2014-10-08T07:47:13Z</time>
      </trkpt>
      <trkpt lat="43.24247" lon="5.62158">
        <ele>469.2</ele>
        <time>2014-10-08T07:47:17Z</time>
      </trkpt>
      <trkpt lat="43.24248" lon="5.62152">
        <ele>469.6</ele>
        <time>2014-10-08T07:47:21Z</time>
      </trkpt>
      <trkpt lat="43.24249" lon="5.62147">
        <ele>469.7</ele>
        <time>2014-10-08T07:47:25Z</time>
      </trkpt>
      <trkpt lat="43.2425" lon="5.62142">
        <ele>469.8</ele>
        <time>2014-10-08T07:47:29Z</time>
      </trkpt>
      <trkpt lat="43.24252" lon="5.62137">
        <ele>470.2</ele>
        <time>2014-10-08T07:47:33Z</time>
      </trkpt>
      <trkpt lat="43.24252" lon="5.62131">
        <ele>470.2</ele>
        <time>2014-10-08T07:47:37Z</time>
      </trkpt>
      <trkpt lat="43.24253" lon="5.62126">
        <ele>470.6</ele>
        <time>2014-10-08T07:47:41Z</time>
      </trkpt>
      <trkpt lat="43.24254" lon="5.6212">
        <ele>470.6</ele>
        <time>2014-10-08T07:47:45Z</time>
      </trkpt>
      <trkpt lat="43.24255" lon="5.62115">
        <ele>470.3</ele>
        <time>2014-10-08T07:47:49Z</time>
      </trkpt>
      <trkpt lat="43.24257" lon="5.62109">
        <ele>470</ele>
        <time>2014-10-08T07:47:54Z</time>
      </trkpt>
      <trkpt lat="43.24257" lon="5.62104">
        <ele>469.1</ele>
        <time>2014-10-08T07:48:04Z</time>
      </trkpt>
      <trkpt lat="43.24257" lon="5.62098">
        <ele>470.1</ele>
        <time>2014-10-08T07:48:19Z</time>
      </trkpt>
      <trkpt lat="43.24257" lon="5.62098">
        <ele>470.2</ele>
        <time>2014-10-08T07:48:20Z</time>
      </trkpt>
      <trkpt lat="43.24258" lon="5.62091">
        <ele>476.1</ele>
        <time>2014-10-08T07:56:11Z</time>
      </trkpt>
      <trkpt lat="43.24259" lon="5.62091">
        <ele>476.7</ele>
        <time>2014-10-08T07:56:12Z</time>
      </trkpt>
      <trkpt lat="43.24263" lon="5.62081">
        <ele>474.6</ele>
        <time>2014-10-08T07:56:32Z</time>
      </trkpt>
      <trkpt lat="43.24264" lon="5.62075">
        <ele>472.7</ele>
        <time>2014-10-08T07:56:38Z</time>
      </trkpt>
      <trkpt lat="43.24265" lon="5.6207">
        <ele>472.3</ele>
        <time>2014-10-08T07:56:46Z</time>
      </trkpt>
      <trkpt lat="43.24267" lon="5.62065">
        <ele>475.2</ele>
        <time>2014-10-08T07:56:59Z</time>
      </trkpt>
      <trkpt lat="43.2427" lon="5.62061">
        <ele>474.2</ele>
        <time>2014-10-08T07:57:05Z</time>
      </trkpt>
      <trkpt lat="43.24272" lon="5.62056">
        <ele>474.2</ele>
        <time>2014-10-08T07:57:09Z</time>
      </trkpt>
      <trkpt lat="43.24273" lon="5.62051">
        <ele>474.1</ele>
        <time>2014-10-08T07:57:13Z</time>
      </trkpt>
      <trkpt lat="43.24274" lon="5.6205">
        <ele>473.8</ele>
        <time>2014-10-08T07:57:14Z</time>
      </trkpt>
      <trkpt lat="43.24275" lon="5.62039">
        <ele>472.7</ele>
        <time>2014-10-08T07:57:21Z</time>
      </trkpt>
      <trkpt lat="43.24276" lon="5.62034">
        <ele>472.1</ele>
        <time>2014-10-08T07:57:25Z</time>
      </trkpt>
      <trkpt lat="43.24277" lon="5.6203">
        <ele>472.1</ele>
        <time>2014-10-08T07:57:28Z</time>
      </trkpt>
      <trkpt lat="43.24279" lon="5.62025">
        <ele>472</ele>
        <time>2014-10-08T07:57:31Z</time>
      </trkpt>
      <trkpt lat="43.24281" lon="5.6202">
        <ele>472.6</ele>
        <time>2014-10-08T07:57:34Z</time>
      </trkpt>
      <trkpt lat="43.24283" lon="5.62016">
        <ele>472.7</ele>
        <time>2014-10-08T07:57:37Z</time>
      </trkpt>
      <trkpt lat="43.24285" lon="5.62011">
        <ele>472.7</ele>
        <time>2014-10-08T07:57:40Z</time>
      </trkpt>
      <trkpt lat="43.24286" lon="5.62006">
        <ele>472.3</ele>
        <time>2014-10-08T07:57:43Z</time>
      </trkpt>
      <trkpt lat="43.24287" lon="5.62002">
        <ele>472.1</ele>
        <time>2014-10-08T07:57:46Z</time>
      </trkpt>
      <trkpt lat="43.24289" lon="5.61997">
        <ele>472</ele>
        <time>2014-10-08T07:57:49Z</time>
      </trkpt>
      <trkpt lat="43.2429" lon="5.61992">
        <ele>472.5</ele>
        <time>2014-10-08T07:57:52Z</time>
      </trkpt>
      <trkpt lat="43.24291" lon="5.61988">
        <ele>472.6</ele>
        <time>2014-10-08T07:57:55Z</time>
      </trkpt>
      <trkpt lat="43.24292" lon="5.61984">
        <ele>472.6</ele>
        <time>2014-10-08T07:57:58Z</time>
      </trkpt>
      <trkpt lat="43.24293" lon="5.61979">
        <ele>472.2</ele>
        <time>2014-10-08T07:58:01Z</time>
      </trkpt>
      <trkpt lat="43.24295" lon="5.61975">
        <ele>472.2</ele>
        <time>2014-10-08T07:58:04Z</time>
      </trkpt>
      <trkpt lat="43.24296" lon="5.61969">
        <ele>472</ele>
        <time>2014-10-08T07:58:08Z</time>
      </trkpt>
      <trkpt lat="43.24297" lon="5.61965">
        <ele>472.2</ele>
        <time>2014-10-08T07:58:11Z</time>
      </trkpt>
      <trkpt lat="43.24298" lon="5.6196">
        <ele>472.2</ele>
        <time>2014-10-08T07:58:14Z</time>
      </trkpt>
      <trkpt lat="43.24299" lon="5.61958">
        <ele>472.6</ele>
        <time>2014-10-08T07:58:15Z</time>
      </trkpt>
      <trkpt lat="43.24301" lon="5.6195">
        <ele>472.6</ele>
        <time>2014-10-08T07:58:21Z</time>
      </trkpt>
      <trkpt lat="43.24303" lon="5.61945">
        <ele>473.2</ele>
        <time>2014-10-08T07:58:24Z</time>
      </trkpt>
      <trkpt lat="43.24304" lon="5.61939">
        <ele>473.1</ele>
        <time>2014-10-08T07:58:28Z</time>
      </trkpt>
      <trkpt lat="43.24305" lon="5.61934">
        <ele>473.6</ele>
        <time>2014-10-08T07:58:32Z</time>
      </trkpt>
      <trkpt lat="43.24306" lon="5.61928">
        <ele>473.3</ele>
        <time>2014-10-08T07:58:36Z</time>
      </trkpt>
      <trkpt lat="43.24307" lon="5.61924">
        <ele>474.2</ele>
        <time>2014-10-08T07:58:39Z</time>
      </trkpt>
      <trkpt lat="43.24308" lon="5.61918">
        <ele>473.8</ele>
        <time>2014-10-08T07:58:43Z</time>
      </trkpt>
      <trkpt lat="43.24309" lon="5.61914">
        <ele>474.1</ele>
        <time>2014-10-08T07:58:46Z</time>
      </trkpt>
      <trkpt lat="43.2431" lon="5.61908">
        <ele>474.6</ele>
        <time>2014-10-08T07:58:50Z</time>
      </trkpt>
      <trkpt lat="43.24311" lon="5.61902">
        <ele>474.7</ele>
        <time>2014-10-08T07:58:54Z</time>
      </trkpt>
      <trkpt lat="43.24312" lon="5.61898">
        <ele>474.7</ele>
        <time>2014-10-08T07:58:57Z</time>
      </trkpt>
      <trkpt lat="43.24312" lon="5.61893">
        <ele>474.8</ele>
        <time>2014-10-08T07:59:00Z</time>
      </trkpt>
      <trkpt lat="43.24314" lon="5.61888">
        <ele>474.8</ele>
        <time>2014-10-08T07:59:04Z</time>
      </trkpt>
      <trkpt lat="43.24316" lon="5.61883">
        <ele>474.8</ele>
        <time>2014-10-08T07:59:08Z</time>
      </trkpt>
      <trkpt lat="43.24319" lon="5.6188">
        <ele>475</ele>
        <time>2014-10-08T07:59:11Z</time>
      </trkpt>
      <trkpt lat="43.24321" lon="5.61875">
        <ele>475.1</ele>
        <time>2014-10-08T07:59:15Z</time>
      </trkpt>
      <trkpt lat="43.24321" lon="5.61874">
        <ele>475</ele>
        <time>2014-10-08T07:59:16Z</time>
      </trkpt>
      <trkpt lat="43.24326" lon="5.61865">
        <ele>475.8</ele>
        <time>2014-10-08T07:59:25Z</time>
      </trkpt>
      <trkpt lat="43.24329" lon="5.61861">
        <ele>475.6</ele>
        <time>2014-10-08T07:59:31Z</time>
      </trkpt>
      <trkpt lat="43.24333" lon="5.61858">
        <ele>475.8</ele>
        <time>2014-10-08T07:59:37Z</time>
      </trkpt>
      <trkpt lat="43.24337" lon="5.61858">
        <ele>476.2</ele>
        <time>2014-10-08T07:59:41Z</time>
      </trkpt>
      <trkpt lat="43.2434" lon="5.61855">
        <ele>475.7</ele>
        <time>2014-10-08T07:59:44Z</time>
      </trkpt>
      <trkpt lat="43.24343" lon="5.61852">
        <ele>475.7</ele>
        <time>2014-10-08T07:59:47Z</time>
      </trkpt>
      <trkpt lat="43.24346" lon="5.61849">
        <ele>475.5</ele>
        <time>2014-10-08T07:59:50Z</time>
      </trkpt>
      <trkpt lat="43.24349" lon="5.61846">
        <ele>474.8</ele>
        <time>2014-10-08T07:59:53Z</time>
      </trkpt>
      <trkpt lat="43.24351" lon="5.61843">
        <ele>474.7</ele>
        <time>2014-10-08T07:59:55Z</time>
      </trkpt>
      <trkpt lat="43.24355" lon="5.61841">
        <ele>474.3</ele>
        <time>2014-10-08T07:59:58Z</time>
      </trkpt>
      <trkpt lat="43.24358" lon="5.61837">
        <ele>473.7</ele>
        <time>2014-10-08T08:00:02Z</time>
      </trkpt>
      <trkpt lat="43.24362" lon="5.61833">
        <ele>473.3</ele>
        <time>2014-10-08T08:00:06Z</time>
      </trkpt>
      <trkpt lat="43.24365" lon="5.6183">
        <ele>472.5</ele>
        <time>2014-10-08T08:00:10Z</time>
      </trkpt>
      <trkpt lat="43.24368" lon="5.61826">
        <ele>471.7</ele>
        <time>2014-10-08T08:00:15Z</time>
      </trkpt>
      <trkpt lat="43.24372" lon="5.61825">
        <ele>471.5</ele>
        <time>2014-10-08T08:00:19Z</time>
      </trkpt>
      <trkpt lat="43.24373" lon="5.61824">
        <ele>471.3</ele>
        <time>2014-10-08T08:00:20Z</time>
      </trkpt>
      <trkpt lat="43.24378" lon="5.61819">
        <ele>471.2</ele>
        <time>2014-10-08T08:00:26Z</time>
      </trkpt>
      <trkpt lat="43.24381" lon="5.61816">
        <ele>471</ele>
        <time>2014-10-08T08:00:29Z</time>
      </trkpt>
      <trkpt lat="43.24384" lon="5.61813">
        <ele>471.2</ele>
        <time>2014-10-08T08:00:33Z</time>
      </trkpt>
      <trkpt lat="43.24388" lon="5.61812">
        <ele>471.8</ele>
        <time>2014-10-08T08:00:38Z</time>
      </trkpt>
      <trkpt lat="43.24391" lon="5.61809">
        <ele>473.3</ele>
        <time>2014-10-08T08:00:42Z</time>
      </trkpt>
      <trkpt lat="43.24395" lon="5.61806">
        <ele>473.2</ele>
        <time>2014-10-08T08:00:46Z</time>
      </trkpt>
      <trkpt lat="43.24398" lon="5.61803">
        <ele>473.7</ele>
        <time>2014-10-08T08:00:50Z</time>
      </trkpt>
      <trkpt lat="43.24401" lon="5.618">
        <ele>475.2</ele>
        <time>2014-10-08T08:00:55Z</time>
      </trkpt>
      <trkpt lat="43.24404" lon="5.61796">
        <ele>476.5</ele>
        <time>2014-10-08T08:00:58Z</time>
      </trkpt>
      <trkpt lat="43.24408" lon="5.61794">
        <ele>476</ele>
        <time>2014-10-08T08:01:00Z</time>
      </trkpt>
      <trkpt lat="43.2441" lon="5.61791">
        <ele>477.5</ele>
        <time>2014-10-08T08:01:02Z</time>
      </trkpt>
      <trkpt lat="43.24413" lon="5.61787">
        <ele>478.2</ele>
        <time>2014-10-08T08:01:06Z</time>
      </trkpt>
      <trkpt lat="43.24416" lon="5.61784">
        <ele>478.2</ele>
        <time>2014-10-08T08:01:09Z</time>
      </trkpt>
      <trkpt lat="43.24419" lon="5.61781">
        <ele>476.3</ele>
        <time>2014-10-08T08:01:12Z</time>
      </trkpt>
      <trkpt lat="43.24421" lon="5.61777">
        <ele>476.1</ele>
        <time>2014-10-08T08:01:14Z</time>
      </trkpt>
      <trkpt lat="43.24423" lon="5.61775">
        <ele>475.8</ele>
        <time>2014-10-08T08:01:15Z</time>
      </trkpt>
      <trkpt lat="43.24426" lon="5.61771">
        <ele>476.1</ele>
        <time>2014-10-08T08:01:18Z</time>
      </trkpt>
      <trkpt lat="43.2443" lon="5.6177">
        <ele>476.7</ele>
        <time>2014-10-08T08:01:22Z</time>
      </trkpt>
      <trkpt lat="43.24431" lon="5.61769">
        <ele>476.8</ele>
        <time>2014-10-08T08:01:23Z</time>
      </trkpt>
      <trkpt lat="43.24437" lon="5.61765">
        <ele>480.1</ele>
        <time>2014-10-08T08:01:30Z</time>
      </trkpt>
      <trkpt lat="43.2444" lon="5.61761">
        <ele>481.2</ele>
        <time>2014-10-08T08:01:35Z</time>
      </trkpt>
      <trkpt lat="43.24443" lon="5.61759">
        <ele>483.3</ele>
        <time>2014-10-08T08:01:39Z</time>
      </trkpt>
      <trkpt lat="43.24446" lon="5.61755">
        <ele>482.3</ele>
        <time>2014-10-08T08:01:42Z</time>
      </trkpt>
      <trkpt lat="43.24448" lon="5.61751">
        <ele>481.2</ele>
        <time>2014-10-08T08:01:44Z</time>
      </trkpt>
      <trkpt lat="43.24449" lon="5.61748">
        <ele>479.3</ele>
        <time>2014-10-08T08:01:46Z</time>
      </trkpt>
      <trkpt lat="43.24452" lon="5.61743">
        <ele>478</ele>
        <time>2014-10-08T08:01:49Z</time>
      </trkpt>
      <trkpt lat="43.24454" lon="5.61739">
        <ele>476.2</ele>
        <time>2014-10-08T08:01:52Z</time>
      </trkpt>
      <trkpt lat="43.24455" lon="5.61735">
        <ele>475.7</ele>
        <time>2014-10-08T08:01:55Z</time>
      </trkpt>
      <trkpt lat="43.24457" lon="5.61731">
        <ele>475.1</ele>
        <time>2014-10-08T08:01:58Z</time>
      </trkpt>
      <trkpt lat="43.24459" lon="5.61726">
        <ele>474.8</ele>
        <time>2014-10-08T08:02:01Z</time>
      </trkpt>
      <trkpt lat="43.2446" lon="5.6172">
        <ele>474.2</ele>
        <time>2014-10-08T08:02:04Z</time>
      </trkpt>
      <trkpt lat="43.24461" lon="5.61715">
        <ele>473.5</ele>
        <time>2014-10-08T08:02:07Z</time>
      </trkpt>
      <trkpt lat="43.24461" lon="5.6171">
        <ele>473.3</ele>
        <time>2014-10-08T08:02:10Z</time>
      </trkpt>
      <trkpt lat="43.24461" lon="5.61705">
        <ele>473</ele>
        <time>2014-10-08T08:02:14Z</time>
      </trkpt>
      <trkpt lat="43.24461" lon="5.617">
        <ele>472.2</ele>
        <time>2014-10-08T08:02:19Z</time>
      </trkpt>
      <trkpt lat="43.24461" lon="5.61694">
        <ele>471.7</ele>
        <time>2014-10-08T08:02:25Z</time>
      </trkpt>
      <trkpt lat="43.24461" lon="5.61693">
        <ele>471.7</ele>
        <time>2014-10-08T08:02:26Z</time>
      </trkpt>
      <trkpt lat="43.24461" lon="5.61683">
        <ele>472.2</ele>
        <time>2014-10-08T08:02:34Z</time>
      </trkpt>
      <trkpt lat="43.24461" lon="5.61677">
        <ele>472.7</ele>
        <time>2014-10-08T08:02:38Z</time>
      </trkpt>
      <trkpt lat="43.24459" lon="5.61672">
        <ele>471.3</ele>
        <time>2014-10-08T08:02:42Z</time>
      </trkpt>
      <trkpt lat="43.2446" lon="5.61666">
        <ele>471.3</ele>
        <time>2014-10-08T08:02:46Z</time>
      </trkpt>
      <trkpt lat="43.24458" lon="5.61661">
        <ele>470.5</ele>
        <time>2014-10-08T08:02:50Z</time>
      </trkpt>
      <trkpt lat="43.24458" lon="5.61656">
        <ele>470.3</ele>
        <time>2014-10-08T08:02:54Z</time>
      </trkpt>
      <trkpt lat="43.24457" lon="5.6165">
        <ele>470.5</ele>
        <time>2014-10-08T08:02:58Z</time>
      </trkpt>
      <trkpt lat="43.24455" lon="5.61646">
        <ele>470.2</ele>
        <time>2014-10-08T08:03:02Z</time>
      </trkpt>
      <trkpt lat="43.24452" lon="5.61641">
        <ele>468.3</ele>
        <time>2014-10-08T08:04:31Z</time>
      </trkpt>
      <trkpt lat="43.24452" lon="5.61641">
        <ele>468.2</ele>
        <time>2014-10-08T08:04:32Z</time>
      </trkpt>
      <trkpt lat="43.24449" lon="5.61637">
        <ele>469.2</ele>
        <time>2014-10-08T08:06:35Z</time>
      </trkpt>
      <trkpt lat="43.24444" lon="5.61631">
        <ele>468.3</ele>
        <time>2014-10-08T08:06:42Z</time>
      </trkpt>
      <trkpt lat="43.24442" lon="5.61626">
        <ele>469.2</ele>
        <time>2014-10-08T08:06:46Z</time>
      </trkpt>
      <trkpt lat="43.24439" lon="5.61622">
        <ele>470.6</ele>
        <time>2014-10-08T08:06:50Z</time>
      </trkpt>
      <trkpt lat="43.24437" lon="5.61618">
        <ele>471</ele>
        <time>2014-10-08T08:06:55Z</time>
      </trkpt>
      <trkpt lat="43.24434" lon="5.61613">
        <ele>471.2</ele>
        <time>2014-10-08T08:07:00Z</time>
      </trkpt>
      <trkpt lat="43.24434" lon="5.61609">
        <ele>473.3</ele>
        <time>2014-10-08T08:07:03Z</time>
      </trkpt>
      <trkpt lat="43.24432" lon="5.61604">
        <ele>474.1</ele>
        <time>2014-10-08T08:07:06Z</time>
      </trkpt>
      <trkpt lat="43.2443" lon="5.61599">
        <ele>473.6</ele>
        <time>2014-10-08T08:07:10Z</time>
      </trkpt>
      <trkpt lat="43.24429" lon="5.61593">
        <ele>473.7</ele>
        <time>2014-10-08T08:07:14Z</time>
      </trkpt>
      <trkpt lat="43.24428" lon="5.61588">
        <ele>473.2</ele>
        <time>2014-10-08T08:07:18Z</time>
      </trkpt>
      <trkpt lat="43.24427" lon="5.61583">
        <ele>472.5</ele>
        <time>2014-10-08T08:07:22Z</time>
      </trkpt>
      <trkpt lat="43.24426" lon="5.61577">
        <ele>471.2</ele>
        <time>2014-10-08T08:07:26Z</time>
      </trkpt>
      <trkpt lat="43.24425" lon="5.61572">
        <ele>471</ele>
        <time>2014-10-08T08:07:30Z</time>
      </trkpt>
      <trkpt lat="43.24425" lon="5.61566">
        <ele>471.6</ele>
        <time>2014-10-08T08:07:34Z</time>
      </trkpt>
      <trkpt lat="43.24424" lon="5.6156">
        <ele>472.1</ele>
        <time>2014-10-08T08:07:38Z</time>
      </trkpt>
      <trkpt lat="43.24424" lon="5.61559">
        <ele>472</ele>
        <time>2014-10-08T08:07:39Z</time>
      </trkpt>
      <trkpt lat="43.24421" lon="5.6155">
        <ele>472.2</ele>
        <time>2014-10-08T08:07:46Z</time>
      </trkpt>
      <trkpt lat="43.24419" lon="5.61546">
        <ele>470.8</ele>
        <time>2014-10-08T08:07:49Z</time>
      </trkpt>
      <trkpt lat="43.24418" lon="5.61541">
        <ele>471.2</ele>
        <time>2014-10-08T08:07:53Z</time>
      </trkpt>
      <trkpt lat="43.24418" lon="5.61536">
        <ele>472.1</ele>
        <time>2014-10-08T08:07:56Z</time>
      </trkpt>
      <trkpt lat="43.24418" lon="5.61531">
        <ele>473.5</ele>
        <time>2014-10-08T08:07:59Z</time>
      </trkpt>
      <trkpt lat="43.24417" lon="5.61526">
        <ele>473.2</ele>
        <time>2014-10-08T08:08:03Z</time>
      </trkpt>
      <trkpt lat="43.24418" lon="5.61521">
        <ele>473.5</ele>
        <time>2014-10-08T08:08:06Z</time>
      </trkpt>
      <trkpt lat="43.24418" lon="5.61515">
        <ele>473.2</ele>
        <time>2014-10-08T08:08:10Z</time>
      </trkpt>
      <trkpt lat="43.24419" lon="5.6151">
        <ele>472.8</ele>
        <time>2014-10-08T08:08:14Z</time>
      </trkpt>
      <trkpt lat="43.24421" lon="5.61505">
        <ele>472.7</ele>
        <time>2014-10-08T08:08:17Z</time>
      </trkpt>
      <trkpt lat="43.24423" lon="5.615">
        <ele>472.6</ele>
        <time>2014-10-08T08:08:21Z</time>
      </trkpt>
      <trkpt lat="43.24425" lon="5.61496">
        <ele>472.8</ele>
        <time>2014-10-08T08:08:25Z</time>
      </trkpt>
      <trkpt lat="43.24428" lon="5.61491">
        <ele>473.3</ele>
        <time>2014-10-08T08:08:31Z</time>
      </trkpt>
      <trkpt lat="43.2443" lon="5.61486">
        <ele>472.5</ele>
        <time>2014-10-08T08:08:41Z</time>
      </trkpt>
      <trkpt lat="43.2443" lon="5.61486">
        <ele>472.2</ele>
        <time>2014-10-08T08:08:42Z</time>
      </trkpt>
      <trkpt lat="43.24433" lon="5.61476">
        <ele>472</ele>
        <time>2014-10-08T08:08:51Z</time>
      </trkpt>
      <trkpt lat="43.24433" lon="5.61471">
        <ele>472</ele>
        <time>2014-10-08T08:08:55Z</time>
      </trkpt>
      <trkpt lat="43.24434" lon="5.61467">
        <ele>472.2</ele>
        <time>2014-10-08T08:08:58Z</time>
      </trkpt>
      <trkpt lat="43.24435" lon="5.61461">
        <ele>473.2</ele>
        <time>2014-10-08T08:09:02Z</time>
      </trkpt>
      <trkpt lat="43.24435" lon="5.61456">
        <ele>473.1</ele>
        <time>2014-10-08T08:09:06Z</time>
      </trkpt>
      <trkpt lat="43.24435" lon="5.6145">
        <ele>474.2</ele>
        <time>2014-10-08T08:09:10Z</time>
      </trkpt>
      <trkpt lat="43.24434" lon="5.61445">
        <ele>474.8</ele>
        <time>2014-10-08T08:09:14Z</time>
      </trkpt>
      <trkpt lat="43.24433" lon="5.61439">
        <ele>474.3</ele>
        <time>2014-10-08T08:09:18Z</time>
      </trkpt>
      <trkpt lat="43.24431" lon="5.61434">
        <ele>474.2</ele>
        <time>2014-10-08T08:09:23Z</time>
      </trkpt>
      <trkpt lat="43.24428" lon="5.6143">
        <ele>472.2</ele>
        <time>2014-10-08T08:09:28Z</time>
      </trkpt>
      <trkpt lat="43.24427" lon="5.61424">
        <ele>473.5</ele>
        <time>2014-10-08T08:09:38Z</time>
      </trkpt>
      <trkpt lat="43.24424" lon="5.6142">
        <ele>472.2</ele>
        <time>2014-10-08T08:09:44Z</time>
      </trkpt>
      <trkpt lat="43.24424" lon="5.6142">
        <ele>472.1</ele>
        <time>2014-10-08T08:09:45Z</time>
      </trkpt>
      <trkpt lat="43.24418" lon="5.61414">
        <ele>470</ele>
        <time>2014-10-08T08:09:53Z</time>
      </trkpt>
      <trkpt lat="43.24416" lon="5.61411">
        <ele>468.8</ele>
        <time>2014-10-08T08:09:56Z</time>
      </trkpt>
      <trkpt lat="43.24414" lon="5.61405">
        <ele>469.1</ele>
        <time>2014-10-08T08:10:02Z</time>
      </trkpt>
      <trkpt lat="43.24412" lon="5.61401">
        <ele>468.7</ele>
        <time>2014-10-08T08:10:07Z</time>
      </trkpt>
      <trkpt lat="43.2441" lon="5.61396">
        <ele>469.2</ele>
        <time>2014-10-08T08:10:12Z</time>
      </trkpt>
      <trkpt lat="43.24408" lon="5.61391">
        <ele>468.6</ele>
        <time>2014-10-08T08:10:17Z</time>
      </trkpt>
      <trkpt lat="43.24407" lon="5.61386">
        <ele>474.2</ele>
        <time>2014-10-08T08:10:25Z</time>
      </trkpt>
      <trkpt lat="43.24408" lon="5.61381">
        <ele>476.2</ele>
        <time>2014-10-08T08:10:29Z</time>
      </trkpt>
      <trkpt lat="43.24407" lon="5.61376">
        <ele>476</ele>
        <time>2014-10-08T08:10:33Z</time>
      </trkpt>
      <trkpt lat="43.24405" lon="5.61372">
        <ele>474.2</ele>
        <time>2014-10-08T08:10:36Z</time>
      </trkpt>
      <trkpt lat="43.24403" lon="5.61368">
        <ele>472.2</ele>
        <time>2014-10-08T08:10:40Z</time>
      </trkpt>
      <trkpt lat="43.244" lon="5.61364">
        <ele>470.2</ele>
        <time>2014-10-08T08:10:44Z</time>
      </trkpt>
      <trkpt lat="43.24398" lon="5.61359">
        <ele>469.7</ele>
        <time>2014-10-08T08:10:48Z</time>
      </trkpt>
      <trkpt lat="43.24397" lon="5.61358">
        <ele>468.7</ele>
        <time>2014-10-08T08:10:49Z</time>
      </trkpt>
      <trkpt lat="43.24393" lon="5.61349">
        <ele>467.3</ele>
        <time>2014-10-08T08:10:56Z</time>
      </trkpt>
      <trkpt lat="43.24392" lon="5.61343">
        <ele>467.3</ele>
        <time>2014-10-08T08:11:00Z</time>
      </trkpt>
      <trkpt lat="43.2439" lon="5.61338">
        <ele>468.8</ele>
        <time>2014-10-08T08:11:04Z</time>
      </trkpt>
      <trkpt lat="43.24393" lon="5.61334">
        <ele>475.6</ele>
        <time>2014-10-08T08:12:11Z</time>
      </trkpt>
      <trkpt lat="43.24393" lon="5.61333">
        <ele>475.2</ele>
        <time>2014-10-08T08:12:12Z</time>
      </trkpt>
      <trkpt lat="43.24392" lon="5.61323">
        <ele>471.8</ele>
        <time>2014-10-08T08:12:20Z</time>
      </trkpt>
      <trkpt lat="43.24391" lon="5.61319">
        <ele>472.3</ele>
        <time>2014-10-08T08:12:24Z</time>
      </trkpt>
      <trkpt lat="43.24391" lon="5.61313">
        <ele>474.8</ele>
        <time>2014-10-08T08:12:28Z</time>
      </trkpt>
      <trkpt lat="43.2439" lon="5.61308">
        <ele>475.3</ele>
        <time>2014-10-08T08:12:32Z</time>
      </trkpt>
      <trkpt lat="43.24387" lon="5.61305">
        <ele>473.8</ele>
        <time>2014-10-08T08:12:36Z</time>
      </trkpt>
      <trkpt lat="43.24385" lon="5.61299">
        <ele>474.2</ele>
        <time>2014-10-08T08:12:39Z</time>
      </trkpt>
      <trkpt lat="43.24383" lon="5.61295">
        <ele>472.3</ele>
        <time>2014-10-08T08:12:43Z</time>
      </trkpt>
      <trkpt lat="43.24382" lon="5.61289">
        <ele>472.6</ele>
        <time>2014-10-08T08:12:48Z</time>
      </trkpt>
      <trkpt lat="43.24379" lon="5.61285">
        <ele>471.3</ele>
        <time>2014-10-08T08:12:52Z</time>
      </trkpt>
      <trkpt lat="43.24377" lon="5.61281">
        <ele>470.2</ele>
        <time>2014-10-08T08:12:56Z</time>
      </trkpt>
      <trkpt lat="43.24377" lon="5.61276">
        <ele>473.5</ele>
        <time>2014-10-08T08:12:59Z</time>
      </trkpt>
      <trkpt lat="43.24375" lon="5.61272">
        <ele>471.5</ele>
        <time>2014-10-08T08:13:03Z</time>
      </trkpt>
      <trkpt lat="43.24374" lon="5.61266">
        <ele>472.2</ele>
        <time>2014-10-08T08:13:07Z</time>
      </trkpt>
      <trkpt lat="43.24371" lon="5.61262">
        <ele>470.5</ele>
        <time>2014-10-08T08:13:11Z</time>
      </trkpt>
      <trkpt lat="43.24369" lon="5.61257">
        <ele>470.2</ele>
        <time>2014-10-08T08:13:15Z</time>
      </trkpt>
      <trkpt lat="43.24369" lon="5.61256">
        <ele>469.8</ele>
        <time>2014-10-08T08:13:16Z</time>
      </trkpt>
      <trkpt lat="43.24367" lon="5.61246">
        <ele>468.6</ele>
        <time>2014-10-08T08:13:23Z</time>
      </trkpt>
      <trkpt lat="43.24366" lon="5.61242">
        <ele>470</ele>
        <time>2014-10-08T08:13:27Z</time>
      </trkpt>
      <trkpt lat="43.24363" lon="5.61237">
        <ele>470</ele>
        <time>2014-10-08T08:13:31Z</time>
      </trkpt>
      <trkpt lat="43.24361" lon="5.61232">
        <ele>468.3</ele>
        <time>2014-10-08T08:13:35Z</time>
      </trkpt>
      <trkpt lat="43.24361" lon="5.61227">
        <ele>469.7</ele>
        <time>2014-10-08T08:13:39Z</time>
      </trkpt>
      <trkpt lat="43.24359" lon="5.61222">
        <ele>467.5</ele>
        <time>2014-10-08T08:13:43Z</time>
      </trkpt>
      <trkpt lat="43.24358" lon="5.61218">
        <ele>467.3</ele>
        <time>2014-10-08T08:13:47Z</time>
      </trkpt>
      <trkpt lat="43.24358" lon="5.61212">
        <ele>466.7</ele>
        <time>2014-10-08T08:13:51Z</time>
      </trkpt>
      <trkpt lat="43.24357" lon="5.61207">
        <ele>465.1</ele>
        <time>2014-10-08T08:13:55Z</time>
      </trkpt>
      <trkpt lat="43.24357" lon="5.61201">
        <ele>464.6</ele>
        <time>2014-10-08T08:13:59Z</time>
      </trkpt>
      <trkpt lat="43.24354" lon="5.61197">
        <ele>462.7</ele>
        <time>2014-10-08T08:14:07Z</time>
      </trkpt>
      <trkpt lat="43.24355" lon="5.61191">
        <ele>469.3</ele>
        <time>2014-10-08T08:14:55Z</time>
      </trkpt>
      <trkpt lat="43.24355" lon="5.6119">
        <ele>469.2</ele>
        <time>2014-10-08T08:14:56Z</time>
      </trkpt>
      <trkpt lat="43.24355" lon="5.61191">
        <ele>463</ele>
        <time>2014-10-08T08:15:38Z</time>
      </trkpt>
      <trkpt lat="43.24357" lon="5.61187">
        <ele>461.2</ele>
        <time>2014-10-08T08:17:39Z</time>
      </trkpt>
      <trkpt lat="43.24357" lon="5.61186">
        <ele>461.6</ele>
        <time>2014-10-08T08:17:40Z</time>
      </trkpt>
      <trkpt lat="43.24357" lon="5.61175">
        <ele>464.2</ele>
        <time>2014-10-08T08:18:27Z</time>
      </trkpt>
      <trkpt lat="43.24358" lon="5.6117">
        <ele>463.2</ele>
        <time>2014-10-08T08:18:32Z</time>
      </trkpt>
      <trkpt lat="43.2436" lon="5.61164">
        <ele>462.2</ele>
        <time>2014-10-08T08:18:37Z</time>
      </trkpt>
      <trkpt lat="43.24361" lon="5.61158">
        <ele>463.1</ele>
        <time>2014-10-08T08:18:41Z</time>
      </trkpt>
      <trkpt lat="43.24361" lon="5.61157">
        <ele>462.8</ele>
        <time>2014-10-08T08:18:42Z</time>
      </trkpt>
      <trkpt lat="43.24361" lon="5.61148">
        <ele>462.6</ele>
        <time>2014-10-08T08:18:49Z</time>
      </trkpt>
      <trkpt lat="43.2436" lon="5.61143">
        <ele>463.3</ele>
        <time>2014-10-08T08:18:54Z</time>
      </trkpt>
      <trkpt lat="43.24358" lon="5.61137">
        <ele>463.2</ele>
        <time>2014-10-08T08:18:59Z</time>
      </trkpt>
      <trkpt lat="43.24355" lon="5.61135">
        <ele>462.1</ele>
        <time>2014-10-08T08:19:03Z</time>
      </trkpt>
      <trkpt lat="43.24351" lon="5.61134">
        <ele>460.2</ele>
        <time>2014-10-08T08:19:06Z</time>
      </trkpt>
      <trkpt lat="43.24347" lon="5.61133">
        <ele>457.2</ele>
        <time>2014-10-08T08:19:09Z</time>
      </trkpt>
      <trkpt lat="43.24343" lon="5.61134">
        <ele>454.5</ele>
        <time>2014-10-08T08:19:13Z</time>
      </trkpt>
      <trkpt lat="43.24339" lon="5.61133">
        <ele>451.5</ele>
        <time>2014-10-08T08:19:17Z</time>
      </trkpt>
      <trkpt lat="43.24335" lon="5.61135">
        <ele>449.2</ele>
        <time>2014-10-08T08:19:21Z</time>
      </trkpt>
      <trkpt lat="43.24331" lon="5.61135">
        <ele>451.3</ele>
        <time>2014-10-08T08:19:26Z</time>
      </trkpt>
      <trkpt lat="43.24327" lon="5.61135">
        <ele>459</ele>
        <time>2014-10-08T08:19:31Z</time>
      </trkpt>
      <trkpt lat="43.24323" lon="5.61135">
        <ele>461.6</ele>
        <time>2014-10-08T08:19:37Z</time>
      </trkpt>
      <trkpt lat="43.24319" lon="5.61134">
        <ele>461.5</ele>
        <time>2014-10-08T08:19:40Z</time>
      </trkpt>
      <trkpt lat="43.24316" lon="5.61134">
        <ele>458.7</ele>
        <time>2014-10-08T08:19:43Z</time>
      </trkpt>
      <trkpt lat="43.24314" lon="5.61133">
        <ele>456.7</ele>
        <time>2014-10-08T08:19:44Z</time>
      </trkpt>
      <trkpt lat="43.24309" lon="5.61131">
        <ele>455.7</ele>
        <time>2014-10-08T08:19:48Z</time>
      </trkpt>
      <trkpt lat="43.24305" lon="5.61129">
        <ele>454.8</ele>
        <time>2014-10-08T08:19:51Z</time>
      </trkpt>
      <trkpt lat="43.24302" lon="5.61126">
        <ele>455.2</ele>
        <time>2014-10-08T08:19:54Z</time>
      </trkpt>
      <trkpt lat="43.24299" lon="5.61122">
        <ele>461.2</ele>
        <time>2014-10-08T08:20:00Z</time>
      </trkpt>
      <trkpt lat="43.24296" lon="5.61118">
        <ele>466.2</ele>
        <time>2014-10-08T08:20:04Z</time>
      </trkpt>
      <trkpt lat="43.24293" lon="5.61115">
        <ele>467.2</ele>
        <time>2014-10-08T08:20:08Z</time>
      </trkpt>
      <trkpt lat="43.2429" lon="5.61114">
        <ele>466.3</ele>
        <time>2014-10-08T08:20:11Z</time>
      </trkpt>
      <trkpt lat="43.24287" lon="5.6111">
        <ele>467.3</ele>
        <time>2014-10-08T08:20:14Z</time>
      </trkpt>
      <trkpt lat="43.24284" lon="5.61109">
        <ele>465.8</ele>
        <time>2014-10-08T08:20:17Z</time>
      </trkpt>
      <trkpt lat="43.2428" lon="5.61109">
        <ele>462.1</ele>
        <time>2014-10-08T08:20:20Z</time>
      </trkpt>
      <trkpt lat="43.24277" lon="5.61105">
        <ele>464.5</ele>
        <time>2014-10-08T08:20:24Z</time>
      </trkpt>
      <trkpt lat="43.24274" lon="5.61101">
        <ele>467.7</ele>
        <time>2014-10-08T08:20:28Z</time>
      </trkpt>
      <trkpt lat="43.24271" lon="5.61098">
        <ele>467.1</ele>
        <time>2014-10-08T08:20:31Z</time>
      </trkpt>
      <trkpt lat="43.24267" lon="5.61096">
        <ele>466.2</ele>
        <time>2014-10-08T08:20:34Z</time>
      </trkpt>
      <trkpt lat="43.24264" lon="5.61094">
        <ele>465.6</ele>
        <time>2014-10-08T08:20:38Z</time>
      </trkpt>
      <trkpt lat="43.2426" lon="5.61091">
        <ele>463.6</ele>
        <time>2014-10-08T08:20:42Z</time>
      </trkpt>
      <trkpt lat="43.24255" lon="5.6109">
        <ele>460.7</ele>
        <time>2014-10-08T08:20:46Z</time>
      </trkpt>
      <trkpt lat="43.24254" lon="5.61089">
        <ele>460.2</ele>
        <time>2014-10-08T08:20:47Z</time>
      </trkpt>
      <trkpt lat="43.24248" lon="5.61086">
        <ele>455.6</ele>
        <time>2014-10-08T08:20:53Z</time>
      </trkpt>
      <trkpt lat="43.24244" lon="5.61084">
        <ele>453.1</ele>
        <time>2014-10-08T08:20:57Z</time>
      </trkpt>
      <trkpt lat="43.24241" lon="5.6108">
        <ele>452</ele>
        <time>2014-10-08T08:21:01Z</time>
      </trkpt>
      <trkpt lat="43.24237" lon="5.61077">
        <ele>452</ele>
        <time>2014-10-08T08:21:05Z</time>
      </trkpt>
      <trkpt lat="43.24236" lon="5.61072">
        <ele>456.2</ele>
        <time>2014-10-08T08:21:08Z</time>
      </trkpt>
      <trkpt lat="43.24233" lon="5.61068">
        <ele>460</ele>
        <time>2014-10-08T08:21:12Z</time>
      </trkpt>
      <trkpt lat="43.24231" lon="5.61065">
        <ele>460.5</ele>
        <time>2014-10-08T08:21:15Z</time>
      </trkpt>
      <trkpt lat="43.24229" lon="5.61061">
        <ele>462</ele>
        <time>2014-10-08T08:21:19Z</time>
      </trkpt>
      <trkpt lat="43.24226" lon="5.61059">
        <ele>459.6</ele>
        <time>2014-10-08T08:21:21Z</time>
      </trkpt>
      <trkpt lat="43.24223" lon="5.61058">
        <ele>456.2</ele>
        <time>2014-10-08T08:21:23Z</time>
      </trkpt>
      <trkpt lat="43.2422" lon="5.61054">
        <ele>457.7</ele>
        <time>2014-10-08T08:21:27Z</time>
      </trkpt>
      <trkpt lat="43.24217" lon="5.6105">
        <ele>455</ele>
        <time>2014-10-08T08:21:31Z</time>
      </trkpt>
      <trkpt lat="43.24214" lon="5.61047">
        <ele>452.2</ele>
        <time>2014-10-08T08:21:34Z</time>
      </trkpt>
      <trkpt lat="43.24211" lon="5.61044">
        <ele>450.2</ele>
        <time>2014-10-08T08:21:37Z</time>
      </trkpt>
      <trkpt lat="43.2421" lon="5.61039">
        <ele>452.2</ele>
        <time>2014-10-08T08:21:41Z</time>
      </trkpt>
      <trkpt lat="43.24211" lon="5.61034">
        <ele>457.2</ele>
        <time>2014-10-08T08:21:45Z</time>
      </trkpt>
      <trkpt lat="43.24212" lon="5.61028">
        <ele>463.7</ele>
        <time>2014-10-08T08:21:48Z</time>
      </trkpt>
      <trkpt lat="43.24213" lon="5.61026">
        <ele>466.2</ele>
        <time>2014-10-08T08:21:49Z</time>
      </trkpt>
      <trkpt lat="43.24213" lon="5.61018">
        <ele>474.2</ele>
        <time>2014-10-08T08:21:54Z</time>
      </trkpt>
      <trkpt lat="43.24213" lon="5.61012">
        <ele>477.7</ele>
        <time>2014-10-08T08:21:57Z</time>
      </trkpt>
      <trkpt lat="43.24213" lon="5.61007">
        <ele>480.8</ele>
        <time>2014-10-08T08:22:00Z</time>
      </trkpt>
      <trkpt lat="43.24213" lon="5.61001">
        <ele>486.3</ele>
        <time>2014-10-08T08:22:03Z</time>
      </trkpt>
      <trkpt lat="43.24211" lon="5.60996">
        <ele>486.8</ele>
        <time>2014-10-08T08:22:07Z</time>
      </trkpt>
      <trkpt lat="43.24209" lon="5.60992">
        <ele>487.1</ele>
        <time>2014-10-08T08:22:10Z</time>
      </trkpt>
      <trkpt lat="43.24208" lon="5.60986">
        <ele>489.8</ele>
        <time>2014-10-08T08:22:13Z</time>
      </trkpt>
      <trkpt lat="43.24206" lon="5.60981">
        <ele>485.7</ele>
        <time>2014-10-08T08:22:18Z</time>
      </trkpt>
      <trkpt lat="43.24203" lon="5.60978">
        <ele>478</ele>
        <time>2014-10-08T08:22:22Z</time>
      </trkpt>
      <trkpt lat="43.24201" lon="5.60973">
        <ele>471.2</ele>
        <time>2014-10-08T08:22:27Z</time>
      </trkpt>
      <trkpt lat="43.242" lon="5.60968">
        <ele>469</ele>
        <time>2014-10-08T08:22:31Z</time>
      </trkpt>
      <trkpt lat="43.24201" lon="5.60962">
        <ele>470.1</ele>
        <time>2014-10-08T08:22:34Z</time>
      </trkpt>
      <trkpt lat="43.242" lon="5.60957">
        <ele>466.5</ele>
        <time>2014-10-08T08:22:38Z</time>
      </trkpt>
      <trkpt lat="43.24196" lon="5.60955">
        <ele>459.6</ele>
        <time>2014-10-08T08:22:41Z</time>
      </trkpt>
      <trkpt lat="43.24194" lon="5.60952">
        <ele>453.7</ele>
        <time>2014-10-08T08:22:45Z</time>
      </trkpt>
      <trkpt lat="43.24191" lon="5.60947">
        <ele>447.7</ele>
        <time>2014-10-08T08:22:49Z</time>
      </trkpt>
      <trkpt lat="43.24191" lon="5.60946">
        <ele>447.1</ele>
        <time>2014-10-08T08:22:50Z</time>
      </trkpt>
      <trkpt lat="43.24188" lon="5.60937">
        <ele>441.1</ele>
        <time>2014-10-08T08:22:58Z</time>
      </trkpt>
      <trkpt lat="43.24185" lon="5.60933">
        <ele>437.7</ele>
        <time>2014-10-08T08:23:01Z</time>
      </trkpt>
      <trkpt lat="43.24182" lon="5.60931">
        <ele>433.6</ele>
        <time>2014-10-08T08:23:04Z</time>
      </trkpt>
      <trkpt lat="43.24179" lon="5.60928">
        <ele>429.6</ele>
        <time>2014-10-08T08:23:07Z</time>
      </trkpt>
      <trkpt lat="43.24177" lon="5.60923">
        <ele>428.7</ele>
        <time>2014-10-08T08:23:10Z</time>
      </trkpt>
      <trkpt lat="43.24175" lon="5.60919">
        <ele>425.7</ele>
        <time>2014-10-08T08:23:14Z</time>
      </trkpt>
      <trkpt lat="43.24174" lon="5.60914">
        <ele>426.2</ele>
        <time>2014-10-08T08:23:18Z</time>
      </trkpt>
      <trkpt lat="43.24174" lon="5.60909">
        <ele>426.7</ele>
        <time>2014-10-08T08:23:22Z</time>
      </trkpt>
      <trkpt lat="43.2417" lon="5.60905">
        <ele>424.6</ele>
        <time>2014-10-08T08:23:25Z</time>
      </trkpt>
      <trkpt lat="43.24168" lon="5.60901">
        <ele>424.7</ele>
        <time>2014-10-08T08:23:29Z</time>
      </trkpt>
      <trkpt lat="43.24166" lon="5.60895">
        <ele>426.3</ele>
        <time>2014-10-08T08:23:33Z</time>
      </trkpt>
      <trkpt lat="43.24165" lon="5.6089">
        <ele>428.2</ele>
        <time>2014-10-08T08:23:37Z</time>
      </trkpt>
      <trkpt lat="43.24163" lon="5.60885">
        <ele>426.7</ele>
        <time>2014-10-08T08:23:41Z</time>
      </trkpt>
      <trkpt lat="43.24161" lon="5.60881">
        <ele>424.8</ele>
        <time>2014-10-08T08:23:44Z</time>
      </trkpt>
      <trkpt lat="43.24159" lon="5.60876">
        <ele>425.7</ele>
        <time>2014-10-08T08:23:47Z</time>
      </trkpt>
      <trkpt lat="43.24158" lon="5.60871">
        <ele>425.5</ele>
        <time>2014-10-08T08:23:51Z</time>
      </trkpt>
      <trkpt lat="43.24157" lon="5.6087">
        <ele>425.7</ele>
        <time>2014-10-08T08:23:52Z</time>
      </trkpt>
      <trkpt lat="43.24156" lon="5.60861">
        <ele>429.2</ele>
        <time>2014-10-08T08:23:59Z</time>
      </trkpt>
      <trkpt lat="43.24156" lon="5.60855">
        <ele>432.3</ele>
        <time>2014-10-08T08:24:03Z</time>
      </trkpt>
      <trkpt lat="43.24154" lon="5.60849">
        <ele>433.6</ele>
        <time>2014-10-08T08:24:07Z</time>
      </trkpt>
      <trkpt lat="43.24152" lon="5.60846">
        <ele>430.8</ele>
        <time>2014-10-08T08:24:10Z</time>
      </trkpt>
      <trkpt lat="43.24149" lon="5.60843">
        <ele>428.6</ele>
        <time>2014-10-08T08:24:13Z</time>
      </trkpt>
      <trkpt lat="43.24146" lon="5.6084">
        <ele>426.5</ele>
        <time>2014-10-08T08:24:16Z</time>
      </trkpt>
      <trkpt lat="43.24143" lon="5.60836">
        <ele>425.8</ele>
        <time>2014-10-08T08:24:19Z</time>
      </trkpt>
      <trkpt lat="43.24139" lon="5.60834">
        <ele>421.3</ele>
        <time>2014-10-08T08:24:22Z</time>
      </trkpt>
      <trkpt lat="43.24136" lon="5.60832">
        <ele>418.1</ele>
        <time>2014-10-08T08:24:24Z</time>
      </trkpt>
      <trkpt lat="43.24132" lon="5.6083">
        <ele>416</ele>
        <time>2014-10-08T08:24:27Z</time>
      </trkpt>
      <trkpt lat="43.24129" lon="5.60827">
        <ele>415.2</ele>
        <time>2014-10-08T08:24:30Z</time>
      </trkpt>
      <trkpt lat="43.24127" lon="5.60825">
        <ele>414</ele>
        <time>2014-10-08T08:24:32Z</time>
      </trkpt>
      <trkpt lat="43.24123" lon="5.60821">
        <ele>413.2</ele>
        <time>2014-10-08T08:24:36Z</time>
      </trkpt>
      <trkpt lat="43.24119" lon="5.60819">
        <ele>411.2</ele>
        <time>2014-10-08T08:24:40Z</time>
      </trkpt>
      <trkpt lat="43.24116" lon="5.60816">
        <ele>407.8</ele>
        <time>2014-10-08T08:24:43Z</time>
      </trkpt>
      <trkpt lat="43.24112" lon="5.60813">
        <ele>407.1</ele>
        <time>2014-10-08T08:24:47Z</time>
      </trkpt>
      <trkpt lat="43.24109" lon="5.60811">
        <ele>407.2</ele>
        <time>2014-10-08T08:24:51Z</time>
      </trkpt>
      <trkpt lat="43.24107" lon="5.60806">
        <ele>410.2</ele>
        <time>2014-10-08T08:24:55Z</time>
      </trkpt>
      <trkpt lat="43.24106" lon="5.60804">
        <ele>410.7</ele>
        <time>2014-10-08T08:24:56Z</time>
      </trkpt>
      <trkpt lat="43.24105" lon="5.60796">
        <ele>415.2</ele>
        <time>2014-10-08T08:25:03Z</time>
      </trkpt>
      <trkpt lat="43.24105" lon="5.60792">
        <ele>417.6</ele>
        <time>2014-10-08T08:25:05Z</time>
      </trkpt>
      <trkpt lat="43.24106" lon="5.60786">
        <ele>422.7</ele>
        <time>2014-10-08T08:25:08Z</time>
      </trkpt>
      <trkpt lat="43.24106" lon="5.6078">
        <ele>428.7</ele>
        <time>2014-10-08T08:25:11Z</time>
      </trkpt>
      <trkpt lat="43.24105" lon="5.60774">
        <ele>433.1</ele>
        <time>2014-10-08T08:25:15Z</time>
      </trkpt>
      <trkpt lat="43.24101" lon="5.60771">
        <ele>432.2</ele>
        <time>2014-10-08T08:25:19Z</time>
      </trkpt>
      <trkpt lat="43.24099" lon="5.60769">
        <ele>430</ele>
        <time>2014-10-08T08:25:22Z</time>
      </trkpt>
      <trkpt lat="43.24095" lon="5.60767">
        <ele>426.7</ele>
        <time>2014-10-08T08:25:25Z</time>
      </trkpt>
      <trkpt lat="43.2409" lon="5.60765">
        <ele>422.2</ele>
        <time>2014-10-08T08:25:29Z</time>
      </trkpt>
      <trkpt lat="43.24087" lon="5.60762">
        <ele>422.3</ele>
        <time>2014-10-08T08:25:33Z</time>
      </trkpt>
      <trkpt lat="43.24083" lon="5.6076">
        <ele>420.7</ele>
        <time>2014-10-08T08:25:36Z</time>
      </trkpt>
      <trkpt lat="43.24079" lon="5.60758">
        <ele>417.3</ele>
        <time>2014-10-08T08:25:39Z</time>
      </trkpt>
      <trkpt lat="43.24075" lon="5.60757">
        <ele>415.3</ele>
        <time>2014-10-08T08:25:42Z</time>
      </trkpt>
      <trkpt lat="43.24072" lon="5.60755">
        <ele>414.2</ele>
        <time>2014-10-08T08:25:45Z</time>
      </trkpt>
      <trkpt lat="43.24067" lon="5.60755">
        <ele>409.5</ele>
        <time>2014-10-08T08:25:48Z</time>
      </trkpt>
      <trkpt lat="43.24063" lon="5.60755">
        <ele>405.2</ele>
        <time>2014-10-08T08:25:51Z</time>
      </trkpt>
      <trkpt lat="43.24062" lon="5.60749">
        <ele>406.7</ele>
        <time>2014-10-08T08:25:56Z</time>
      </trkpt>
      <trkpt lat="43.24062" lon="5.60748">
        <ele>406.7</ele>
        <time>2014-10-08T08:25:57Z</time>
      </trkpt>
      <trkpt lat="43.24068" lon="5.60743">
        <ele>414.2</ele>
        <time>2014-10-08T08:26:53Z</time>
      </trkpt>
      <trkpt lat="43.24071" lon="5.6074">
        <ele>418.1</ele>
        <time>2014-10-08T08:27:09Z</time>
      </trkpt>
      <trkpt lat="43.24072" lon="5.60739">
        <ele>418.6</ele>
        <time>2014-10-08T08:27:10Z</time>
      </trkpt>
      <trkpt lat="43.24078" lon="5.60746">
        <ele>416.1</ele>
        <time>2014-10-08T08:27:24Z</time>
      </trkpt>
      <trkpt lat="43.24081" lon="5.6075">
        <ele>419.1</ele>
        <time>2014-10-08T08:27:28Z</time>
      </trkpt>
      <trkpt lat="43.24084" lon="5.60752">
        <ele>420</ele>
        <time>2014-10-08T08:27:32Z</time>
      </trkpt>
      <trkpt lat="43.24088" lon="5.60753">
        <ele>419.3</ele>
        <time>2014-10-08T08:27:36Z</time>
      </trkpt>
      <trkpt lat="43.24092" lon="5.60754">
        <ele>419.7</ele>
        <time>2014-10-08T08:27:41Z</time>
      </trkpt>
      <trkpt lat="43.24095" lon="5.60755">
        <ele>418.5</ele>
        <time>2014-10-08T08:27:44Z</time>
      </trkpt>
      <trkpt lat="43.24099" lon="5.60756">
        <ele>419</ele>
        <time>2014-10-08T08:27:47Z</time>
      </trkpt>
      <trkpt lat="43.24102" lon="5.60755">
        <ele>419.5</ele>
        <time>2014-10-08T08:27:49Z</time>
      </trkpt>
      <trkpt lat="43.24106" lon="5.60755">
        <ele>418</ele>
        <time>2014-10-08T08:27:52Z</time>
      </trkpt>
      <trkpt lat="43.2411" lon="5.60755">
        <ele>418.1</ele>
        <time>2014-10-08T08:27:54Z</time>
      </trkpt>
      <trkpt lat="43.24114" lon="5.60753">
        <ele>418.5</ele>
        <time>2014-10-08T08:27:57Z</time>
      </trkpt>
      <trkpt lat="43.24118" lon="5.60751">
        <ele>417.1</ele>
        <time>2014-10-08T08:28:01Z</time>
      </trkpt>
      <trkpt lat="43.24122" lon="5.60751">
        <ele>411</ele>
        <time>2014-10-08T08:28:11Z</time>
      </trkpt>
      <trkpt lat="43.24122" lon="5.60751">
        <ele>410.3</ele>
        <time>2014-10-08T08:28:12Z</time>
      </trkpt>
      <trkpt lat="43.24129" lon="5.60746">
        <ele>405.3</ele>
        <time>2014-10-08T08:28:46Z</time>
      </trkpt>
      <trkpt lat="43.2413" lon="5.6074">
        <ele>405.1</ele>
        <time>2014-10-08T08:28:50Z</time>
      </trkpt>
      <trkpt lat="43.2413" lon="5.60734">
        <ele>400.2</ele>
        <time>2014-10-08T08:28:55Z</time>
      </trkpt>
      <trkpt lat="43.24129" lon="5.60729">
        <ele>398.3</ele>
        <time>2014-10-08T08:29:01Z</time>
      </trkpt>
      <trkpt lat="43.24127" lon="5.60724">
        <ele>398.3</ele>
        <time>2014-10-08T08:29:04Z</time>
      </trkpt>
      <trkpt lat="43.24126" lon="5.60719">
        <ele>398.2</ele>
        <time>2014-10-08T08:29:07Z</time>
      </trkpt>
      <trkpt lat="43.24125" lon="5.60713">
        <ele>396.8</ele>
        <time>2014-10-08T08:29:11Z</time>
      </trkpt>
      <trkpt lat="43.24123" lon="5.60709">
        <ele>395.7</ele>
        <time>2014-10-08T08:29:14Z</time>
      </trkpt>
      <trkpt lat="43.24122" lon="5.60708">
        <ele>395.7</ele>
        <time>2014-10-08T08:29:15Z</time>
      </trkpt>
      <trkpt lat="43.24118" lon="5.60702">
        <ele>394.2</ele>
        <time>2014-10-08T08:29:20Z</time>
      </trkpt>
      <trkpt lat="43.24115" lon="5.60699">
        <ele>394.7</ele>
        <time>2014-10-08T08:29:23Z</time>
      </trkpt>
      <trkpt lat="43.24112" lon="5.60697">
        <ele>395.7</ele>
        <time>2014-10-08T08:29:26Z</time>
      </trkpt>
      <trkpt lat="43.24108" lon="5.60697">
        <ele>395.3</ele>
        <time>2014-10-08T08:29:29Z</time>
      </trkpt>
      <trkpt lat="43.24104" lon="5.607">
        <ele>395.2</ele>
        <time>2014-10-08T08:29:33Z</time>
      </trkpt>
      <trkpt lat="43.24102" lon="5.60704">
        <ele>395.1</ele>
        <time>2014-10-08T08:29:37Z</time>
      </trkpt>
      <trkpt lat="43.24099" lon="5.60708">
        <ele>394.6</ele>
        <time>2014-10-08T08:29:41Z</time>
      </trkpt>
      <trkpt lat="43.24096" lon="5.60713">
        <ele>393.8</ele>
        <time>2014-10-08T08:29:45Z</time>
      </trkpt>
      <trkpt lat="43.24094" lon="5.60717">
        <ele>393.7</ele>
        <time>2014-10-08T08:29:50Z</time>
      </trkpt>
      <trkpt lat="43.24091" lon="5.60718">
        <ele>394.6</ele>
        <time>2014-10-08T08:29:53Z</time>
      </trkpt>
      <trkpt lat="43.24086" lon="5.60716">
        <ele>396.5</ele>
        <time>2014-10-08T08:29:57Z</time>
      </trkpt>
      <trkpt lat="43.24084" lon="5.60714">
        <ele>398.6</ele>
        <time>2014-10-08T08:30:00Z</time>
      </trkpt>
      <trkpt lat="43.2408" lon="5.60711">
        <ele>398.8</ele>
        <time>2014-10-08T08:30:03Z</time>
      </trkpt>
      <trkpt lat="43.24077" lon="5.60707">
        <ele>399.2</ele>
        <time>2014-10-08T08:30:08Z</time>
      </trkpt>
      <trkpt lat="43.24073" lon="5.60705">
        <ele>399.3</ele>
        <time>2014-10-08T08:30:11Z</time>
      </trkpt>
      <trkpt lat="43.24071" lon="5.60702">
        <ele>399.8</ele>
        <time>2014-10-08T08:30:13Z</time>
      </trkpt>
      <trkpt lat="43.24068" lon="5.607">
        <ele>400.3</ele>
        <time>2014-10-08T08:30:15Z</time>
      </trkpt>
      <trkpt lat="43.24067" lon="5.60698">
        <ele>400.8</ele>
        <time>2014-10-08T08:30:16Z</time>
      </trkpt>
      <trkpt lat="43.24062" lon="5.60697">
        <ele>401.2</ele>
        <time>2014-10-08T08:30:20Z</time>
      </trkpt>
      <trkpt lat="43.24058" lon="5.60698">
        <ele>400.1</ele>
        <time>2014-10-08T08:30:24Z</time>
      </trkpt>
      <trkpt lat="43.24054" lon="5.60697">
        <ele>400.6</ele>
        <time>2014-10-08T08:30:28Z</time>
      </trkpt>
      <trkpt lat="43.2405" lon="5.60698">
        <ele>400.1</ele>
        <time>2014-10-08T08:30:32Z</time>
      </trkpt>
      <trkpt lat="43.24046" lon="5.60696">
        <ele>400.5</ele>
        <time>2014-10-08T08:30:35Z</time>
      </trkpt>
      <trkpt lat="43.24042" lon="5.60695">
        <ele>401.1</ele>
        <time>2014-10-08T08:30:38Z</time>
      </trkpt>
      <trkpt lat="43.24038" lon="5.60697">
        <ele>400.1</ele>
        <time>2014-10-08T08:30:42Z</time>
      </trkpt>
      <trkpt lat="43.24034" lon="5.60696">
        <ele>400.2</ele>
        <time>2014-10-08T08:30:45Z</time>
      </trkpt>
      <trkpt lat="43.2403" lon="5.60696">
        <ele>398.8</ele>
        <time>2014-10-08T08:30:49Z</time>
      </trkpt>
      <trkpt lat="43.24026" lon="5.60694">
        <ele>397.7</ele>
        <time>2014-10-08T08:30:55Z</time>
      </trkpt>
      <trkpt lat="43.24022" lon="5.60692">
        <ele>396.1</ele>
        <time>2014-10-08T08:31:00Z</time>
      </trkpt>
      <trkpt lat="43.2402" lon="5.60689">
        <ele>396.5</ele>
        <time>2014-10-08T08:31:02Z</time>
      </trkpt>
      <trkpt lat="43.24018" lon="5.60686">
        <ele>397</ele>
        <time>2014-10-08T08:31:04Z</time>
      </trkpt>
      <trkpt lat="43.24014" lon="5.60683">
        <ele>396.2</ele>
        <time>2014-10-08T08:31:07Z</time>
      </trkpt>
      <trkpt lat="43.24011" lon="5.60681">
        <ele>396.5</ele>
        <time>2014-10-08T08:31:11Z</time>
      </trkpt>
      <trkpt lat="43.24008" lon="5.60677">
        <ele>399.2</ele>
        <time>2014-10-08T08:31:15Z</time>
      </trkpt>
      <trkpt lat="43.24004" lon="5.60675">
        <ele>399.8</ele>
        <time>2014-10-08T08:31:19Z</time>
      </trkpt>
      <trkpt lat="43.24003" lon="5.60674">
        <ele>400</ele>
        <time>2014-10-08T08:31:20Z</time>
      </trkpt>
      <trkpt lat="43.23997" lon="5.60672">
        <ele>399.1</ele>
        <time>2014-10-08T08:31:26Z</time>
      </trkpt>
      <trkpt lat="43.23993" lon="5.6067">
        <ele>398.7</ele>
        <time>2014-10-08T08:31:29Z</time>
      </trkpt>
      <trkpt lat="43.2399" lon="5.60668">
        <ele>399.5</ele>
        <time>2014-10-08T08:31:32Z</time>
      </trkpt>
      <trkpt lat="43.23987" lon="5.60665">
        <ele>399.6</ele>
        <time>2014-10-08T08:31:36Z</time>
      </trkpt>
      <trkpt lat="43.23983" lon="5.60662">
        <ele>398.2</ele>
        <time>2014-10-08T08:31:40Z</time>
      </trkpt>
      <trkpt lat="43.23979" lon="5.60659">
        <ele>396.7</ele>
        <time>2014-10-08T08:31:46Z</time>
      </trkpt>
      <trkpt lat="43.23976" lon="5.60655">
        <ele>396.8</ele>
        <time>2014-10-08T08:31:49Z</time>
      </trkpt>
      <trkpt lat="43.23973" lon="5.60653">
        <ele>396.7</ele>
        <time>2014-10-08T08:31:53Z</time>
      </trkpt>
      <trkpt lat="43.2397" lon="5.6065">
        <ele>397.1</ele>
        <time>2014-10-08T08:31:57Z</time>
      </trkpt>
      <trkpt lat="43.23968" lon="5.60645">
        <ele>396.8</ele>
        <time>2014-10-08T08:32:01Z</time>
      </trkpt>
      <trkpt lat="43.23965" lon="5.60641">
        <ele>396</ele>
        <time>2014-10-08T08:32:04Z</time>
      </trkpt>
      <trkpt lat="43.23961" lon="5.60638">
        <ele>395.3</ele>
        <time>2014-10-08T08:32:08Z</time>
      </trkpt>
      <trkpt lat="43.23959" lon="5.60636">
        <ele>394.7</ele>
        <time>2014-10-08T08:32:11Z</time>
      </trkpt>
      <trkpt lat="43.23956" lon="5.60633">
        <ele>393.7</ele>
        <time>2014-10-08T08:32:14Z</time>
      </trkpt>
      <trkpt lat="43.23952" lon="5.60629">
        <ele>393</ele>
        <time>2014-10-08T08:32:17Z</time>
      </trkpt>
      <trkpt lat="43.23949" lon="5.60627">
        <ele>392.2</ele>
        <time>2014-10-08T08:32:20Z</time>
      </trkpt>
      <trkpt lat="43.23949" lon="5.60626">
        <ele>392.1</ele>
        <time>2014-10-08T08:32:21Z</time>
      </trkpt>
      <trkpt lat="43.23943" lon="5.60621">
        <ele>389.7</ele>
        <time>2014-10-08T08:32:27Z</time>
      </trkpt>
      <trkpt lat="43.23939" lon="5.60618">
        <ele>389.6</ele>
        <time>2014-10-08T08:32:31Z</time>
      </trkpt>
      <trkpt lat="43.23937" lon="5.60614">
        <ele>390.1</ele>
        <time>2014-10-08T08:32:35Z</time>
      </trkpt>
      <trkpt lat="43.23935" lon="5.60611">
        <ele>390.5</ele>
        <time>2014-10-08T08:32:38Z</time>
      </trkpt>
      <trkpt lat="43.23933" lon="5.60606">
        <ele>391.2</ele>
        <time>2014-10-08T08:32:42Z</time>
      </trkpt>
      <trkpt lat="43.23931" lon="5.606">
        <ele>392.2</ele>
        <time>2014-10-08T08:32:47Z</time>
      </trkpt>
      <trkpt lat="43.23928" lon="5.60596">
        <ele>391.7</ele>
        <time>2014-10-08T08:32:51Z</time>
      </trkpt>
      <trkpt lat="43.23927" lon="5.60591">
        <ele>393.8</ele>
        <time>2014-10-08T08:32:55Z</time>
      </trkpt>
      <trkpt lat="43.23927" lon="5.60588">
        <ele>397.7</ele>
        <time>2014-10-08T08:32:57Z</time>
      </trkpt>
      <trkpt lat="43.23928" lon="5.60582">
        <ele>408.2</ele>
        <time>2014-10-08T08:32:59Z</time>
      </trkpt>
      <trkpt lat="43.23928" lon="5.60577">
        <ele>415.7</ele>
        <time>2014-10-08T08:33:01Z</time>
      </trkpt>
      <trkpt lat="43.23928" lon="5.60573">
        <ele>421.2</ele>
        <time>2014-10-08T08:33:03Z</time>
      </trkpt>
      <trkpt lat="43.23927" lon="5.60568">
        <ele>428.6</ele>
        <time>2014-10-08T08:33:06Z</time>
      </trkpt>
      <trkpt lat="43.23925" lon="5.60564">
        <ele>434.5</ele>
        <time>2014-10-08T08:33:10Z</time>
      </trkpt>
      <trkpt lat="43.23922" lon="5.60562">
        <ele>430</ele>
        <time>2014-10-08T08:33:13Z</time>
      </trkpt>
      <trkpt lat="43.23918" lon="5.60561">
        <ele>425</ele>
        <time>2014-10-08T08:33:17Z</time>
      </trkpt>
      <trkpt lat="43.23914" lon="5.6056">
        <ele>419.8</ele>
        <time>2014-10-08T08:33:20Z</time>
      </trkpt>
      <trkpt lat="43.23911" lon="5.60558">
        <ele>416.1</ele>
        <time>2014-10-08T08:33:23Z</time>
      </trkpt>
      <trkpt lat="43.2391" lon="5.60558">
        <ele>413.3</ele>
        <time>2014-10-08T08:33:24Z</time>
      </trkpt>
      <trkpt lat="43.23904" lon="5.60557">
        <ele>402.6</ele>
        <time>2014-10-08T08:33:30Z</time>
      </trkpt>
      <trkpt lat="43.239" lon="5.60554">
        <ele>397.1</ele>
        <time>2014-10-08T08:33:33Z</time>
      </trkpt>
      <trkpt lat="43.23897" lon="5.6055">
        <ele>394.3</ele>
        <time>2014-10-08T08:33:37Z</time>
      </trkpt>
      <trkpt lat="43.23894" lon="5.60546">
        <ele>390.8</ele>
        <time>2014-10-08T08:33:42Z</time>
      </trkpt>
      <trkpt lat="43.23892" lon="5.60542">
        <ele>392</ele>
        <time>2014-10-08T08:33:46Z</time>
      </trkpt>
      <trkpt lat="43.2389" lon="5.60537">
        <ele>394</ele>
        <time>2014-10-08T08:33:49Z</time>
      </trkpt>
      <trkpt lat="43.23887" lon="5.60533">
        <ele>391.8</ele>
        <time>2014-10-08T08:33:52Z</time>
      </trkpt>
      <trkpt lat="43.23884" lon="5.60529">
        <ele>389.8</ele>
        <time>2014-10-08T08:33:55Z</time>
      </trkpt>
      <trkpt lat="43.23881" lon="5.60526">
        <ele>389.2</ele>
        <time>2014-10-08T08:33:59Z</time>
      </trkpt>
      <trkpt lat="43.23877" lon="5.60523">
        <ele>387.2</ele>
        <time>2014-10-08T08:34:03Z</time>
      </trkpt>
      <trkpt lat="43.23873" lon="5.60519">
        <ele>385.5</ele>
        <time>2014-10-08T08:34:07Z</time>
      </trkpt>
      <trkpt lat="43.23872" lon="5.60515">
        <ele>390</ele>
        <time>2014-10-08T08:34:10Z</time>
      </trkpt>
      <trkpt lat="43.23869" lon="5.60511">
        <ele>388.2</ele>
        <time>2014-10-08T08:34:14Z</time>
      </trkpt>
      <trkpt lat="43.23866" lon="5.60508">
        <ele>385.6</ele>
        <time>2014-10-08T08:34:17Z</time>
      </trkpt>
      <trkpt lat="43.23863" lon="5.60506">
        <ele>381</ele>
        <time>2014-10-08T08:34:20Z</time>
      </trkpt>
      <trkpt lat="43.2386" lon="5.60503">
        <ele>376.1</ele>
        <time>2014-10-08T08:34:23Z</time>
      </trkpt>
      <trkpt lat="43.23857" lon="5.605">
        <ele>371.1</ele>
        <time>2014-10-08T08:34:27Z</time>
      </trkpt>
      <trkpt lat="43.23856" lon="5.60499">
        <ele>369.7</ele>
        <time>2014-10-08T08:34:28Z</time>
      </trkpt>
      <trkpt lat="43.23852" lon="5.60492">
        <ele>363.3</ele>
        <time>2014-10-08T08:34:34Z</time>
      </trkpt>
      <trkpt lat="43.2385" lon="5.60487">
        <ele>362.3</ele>
        <time>2014-10-08T08:34:38Z</time>
      </trkpt>
      <trkpt lat="43.23848" lon="5.60481">
        <ele>366</ele>
        <time>2014-10-08T08:34:42Z</time>
      </trkpt>
      <trkpt lat="43.23848" lon="5.60477">
        <ele>369.1</ele>
        <time>2014-10-08T08:34:45Z</time>
      </trkpt>
      <trkpt lat="43.23845" lon="5.60473">
        <ele>368.3</ele>
        <time>2014-10-08T08:34:48Z</time>
      </trkpt>
      <trkpt lat="43.23843" lon="5.60469">
        <ele>367.5</ele>
        <time>2014-10-08T08:34:52Z</time>
      </trkpt>
      <trkpt lat="43.23841" lon="5.60464">
        <ele>368.1</ele>
        <time>2014-10-08T08:34:56Z</time>
      </trkpt>
      <trkpt lat="43.23839" lon="5.60459">
        <ele>367.8</ele>
        <time>2014-10-08T08:35:00Z</time>
      </trkpt>
      <trkpt lat="43.23835" lon="5.60455">
        <ele>364.7</ele>
        <time>2014-10-08T08:35:03Z</time>
      </trkpt>
      <trkpt lat="43.23833" lon="5.60451">
        <ele>362.3</ele>
        <time>2014-10-08T08:35:09Z</time>
      </trkpt>
      <trkpt lat="43.2383" lon="5.60446">
        <ele>361.7</ele>
        <time>2014-10-08T08:35:13Z</time>
      </trkpt>
      <trkpt lat="43.23828" lon="5.60442">
        <ele>360.1</ele>
        <time>2014-10-08T08:35:17Z</time>
      </trkpt>
      <trkpt lat="43.23826" lon="5.60437">
        <ele>358.7</ele>
        <time>2014-10-08T08:35:21Z</time>
      </trkpt>
      <trkpt lat="43.23824" lon="5.60432">
        <ele>358</ele>
        <time>2014-10-08T08:35:25Z</time>
      </trkpt>
      <trkpt lat="43.23821" lon="5.60427">
        <ele>356.3</ele>
        <time>2014-10-08T08:35:28Z</time>
      </trkpt>
      <trkpt lat="43.2382" lon="5.60426">
        <ele>353.5</ele>
        <time>2014-10-08T08:35:29Z</time>
      </trkpt>
      <trkpt lat="43.23816" lon="5.60419">
        <ele>350.6</ele>
        <time>2014-10-08T08:35:36Z</time>
      </trkpt>
      <trkpt lat="43.23814" lon="5.60414">
        <ele>351.7</ele>
        <time>2014-10-08T08:35:41Z</time>
      </trkpt>
      <trkpt lat="43.23811" lon="5.6041">
        <ele>351.7</ele>
        <time>2014-10-08T08:35:45Z</time>
      </trkpt>
      <trkpt lat="43.23809" lon="5.60406">
        <ele>348.2</ele>
        <time>2014-10-08T08:35:48Z</time>
      </trkpt>
      <trkpt lat="43.23806" lon="5.60402">
        <ele>344.6</ele>
        <time>2014-10-08T08:35:51Z</time>
      </trkpt>
      <trkpt lat="43.23804" lon="5.60398">
        <ele>341.7</ele>
        <time>2014-10-08T08:35:54Z</time>
      </trkpt>
      <trkpt lat="43.23802" lon="5.60392">
        <ele>342.6</ele>
        <time>2014-10-08T08:35:58Z</time>
      </trkpt>
      <trkpt lat="43.23802" lon="5.60386">
        <ele>343.7</ele>
        <time>2014-10-08T08:36:03Z</time>
      </trkpt>
      <trkpt lat="43.23802" lon="5.60381">
        <ele>345.2</ele>
        <time>2014-10-08T08:36:07Z</time>
      </trkpt>
      <trkpt lat="43.23803" lon="5.60377">
        <ele>347.6</ele>
        <time>2014-10-08T08:36:10Z</time>
      </trkpt>
      <trkpt lat="43.23807" lon="5.60373">
        <ele>351.7</ele>
        <time>2014-10-08T08:36:13Z</time>
      </trkpt>
      <trkpt lat="43.2381" lon="5.60371">
        <ele>353.2</ele>
        <time>2014-10-08T08:36:15Z</time>
      </trkpt>
      <trkpt lat="43.23813" lon="5.60366">
        <ele>355.6</ele>
        <time>2014-10-08T08:36:19Z</time>
      </trkpt>
      <trkpt lat="43.23817" lon="5.60364">
        <ele>360</ele>
        <time>2014-10-08T08:36:23Z</time>
      </trkpt>
      <trkpt lat="43.2382" lon="5.60366">
        <ele>364.5</ele>
        <time>2014-10-08T08:36:28Z</time>
      </trkpt>
      <trkpt lat="43.23824" lon="5.60367">
        <ele>368.7</ele>
        <time>2014-10-08T08:36:32Z</time>
      </trkpt>
      <trkpt lat="43.23825" lon="5.60367">
        <ele>369.2</ele>
        <time>2014-10-08T08:36:33Z</time>
      </trkpt>
      <trkpt lat="43.23831" lon="5.6037">
        <ele>376.3</ele>
        <time>2014-10-08T08:36:42Z</time>
      </trkpt>
      <trkpt lat="43.23834" lon="5.60369">
        <ele>379.7</ele>
        <time>2014-10-08T08:36:45Z</time>
      </trkpt>
      <trkpt lat="43.23838" lon="5.6037">
        <ele>380.2</ele>
        <time>2014-10-08T08:36:50Z</time>
      </trkpt>
      <trkpt lat="43.23841" lon="5.60368">
        <ele>379.2</ele>
        <time>2014-10-08T08:36:52Z</time>
      </trkpt>
      <trkpt lat="43.23845" lon="5.60364">
        <ele>377.8</ele>
        <time>2014-10-08T08:36:55Z</time>
      </trkpt>
      <trkpt lat="43.23848" lon="5.60361">
        <ele>377.2</ele>
        <time>2014-10-08T08:36:59Z</time>
      </trkpt>
      <trkpt lat="43.23851" lon="5.60359">
        <ele>376.2</ele>
        <time>2014-10-08T08:37:02Z</time>
      </trkpt>
      <trkpt lat="43.23854" lon="5.60355">
        <ele>376</ele>
        <time>2014-10-08T08:37:04Z</time>
      </trkpt>
      <trkpt lat="43.23857" lon="5.60351">
        <ele>375.7</ele>
        <time>2014-10-08T08:37:07Z</time>
      </trkpt>
      <trkpt lat="43.2386" lon="5.60349">
        <ele>375.3</ele>
        <time>2014-10-08T08:37:10Z</time>
      </trkpt>
      <trkpt lat="43.23863" lon="5.60347">
        <ele>376.3</ele>
        <time>2014-10-08T08:37:13Z</time>
      </trkpt>
      <trkpt lat="43.23866" lon="5.60343">
        <ele>374.3</ele>
        <time>2014-10-08T08:37:15Z</time>
      </trkpt>
      <trkpt lat="43.23869" lon="5.60339">
        <ele>373.3</ele>
        <time>2014-10-08T08:37:18Z</time>
      </trkpt>
      <trkpt lat="43.23872" lon="5.60337">
        <ele>373.3</ele>
        <time>2014-10-08T08:37:21Z</time>
      </trkpt>
      <trkpt lat="43.23875" lon="5.60335">
        <ele>373.1</ele>
        <time>2014-10-08T08:37:24Z</time>
      </trkpt>
      <trkpt lat="43.23879" lon="5.60332">
        <ele>371.5</ele>
        <time>2014-10-08T08:37:27Z</time>
      </trkpt>
      <trkpt lat="43.23883" lon="5.6033">
        <ele>373.5</ele>
        <time>2014-10-08T08:37:32Z</time>
      </trkpt>
      <trkpt lat="43.23886" lon="5.60328">
        <ele>373.6</ele>
        <time>2014-10-08T08:37:36Z</time>
      </trkpt>
      <trkpt lat="43.23887" lon="5.60328">
        <ele>373.7</ele>
        <time>2014-10-08T08:37:37Z</time>
      </trkpt>
      <trkpt lat="43.23894" lon="5.60325">
        <ele>374.5</ele>
        <time>2014-10-08T08:37:43Z</time>
      </trkpt>
      <trkpt lat="43.23897" lon="5.60323">
        <ele>373.8</ele>
        <time>2014-10-08T08:37:45Z</time>
      </trkpt>
      <trkpt lat="43.239" lon="5.60319">
        <ele>374.1</ele>
        <time>2014-10-08T08:37:48Z</time>
      </trkpt>
      <trkpt lat="43.23904" lon="5.60318">
        <ele>374.5</ele>
        <time>2014-10-08T08:37:51Z</time>
      </trkpt>
      <trkpt lat="43.23906" lon="5.60315">
        <ele>373.6</ele>
        <time>2014-10-08T08:37:53Z</time>
      </trkpt>
      <trkpt lat="43.23909" lon="5.60311">
        <ele>374</ele>
        <time>2014-10-08T08:37:56Z</time>
      </trkpt>
      <trkpt lat="43.23913" lon="5.60308">
        <ele>373.6</ele>
        <time>2014-10-08T08:37:59Z</time>
      </trkpt>
      <trkpt lat="43.23916" lon="5.60306">
        <ele>373.2</ele>
        <time>2014-10-08T08:38:02Z</time>
      </trkpt>
      <trkpt lat="43.23919" lon="5.60303">
        <ele>372.3</ele>
        <time>2014-10-08T08:38:04Z</time>
      </trkpt>
      <trkpt lat="43.23922" lon="5.603">
        <ele>372.2</ele>
        <time>2014-10-08T08:38:07Z</time>
      </trkpt>
      <trkpt lat="43.23924" lon="5.60297">
        <ele>372.6</ele>
        <time>2014-10-08T08:38:10Z</time>
      </trkpt>
      <trkpt lat="43.23928" lon="5.60295">
        <ele>371.2</ele>
        <time>2014-10-08T08:38:13Z</time>
      </trkpt>
      <trkpt lat="43.23931" lon="5.60292">
        <ele>370.2</ele>
        <time>2014-10-08T08:38:17Z</time>
      </trkpt>
      <trkpt lat="43.23934" lon="5.6029">
        <ele>368.7</ele>
        <time>2014-10-08T08:38:21Z</time>
      </trkpt>
      <trkpt lat="43.23938" lon="5.60287">
        <ele>368.7</ele>
        <time>2014-10-08T08:38:24Z</time>
      </trkpt>
      <trkpt lat="43.23941" lon="5.60285">
        <ele>368.2</ele>
        <time>2014-10-08T08:38:27Z</time>
      </trkpt>
      <trkpt lat="43.23944" lon="5.60282">
        <ele>368</ele>
        <time>2014-10-08T08:38:30Z</time>
      </trkpt>
      <trkpt lat="43.23947" lon="5.60279">
        <ele>367.8</ele>
        <time>2014-10-08T08:38:35Z</time>
      </trkpt>
      <trkpt lat="43.2395" lon="5.60276">
        <ele>367.8</ele>
        <time>2014-10-08T08:38:38Z</time>
      </trkpt>
      <trkpt lat="43.23951" lon="5.60275">
        <ele>367.8</ele>
        <time>2014-10-08T08:38:39Z</time>
      </trkpt>
      <trkpt lat="43.23956" lon="5.60271">
        <ele>369.6</ele>
        <time>2014-10-08T08:38:44Z</time>
      </trkpt>
      <trkpt lat="43.23959" lon="5.60268">
        <ele>370.3</ele>
        <time>2014-10-08T08:38:47Z</time>
      </trkpt>
      <trkpt lat="43.23962" lon="5.60266">
        <ele>370.7</ele>
        <time>2014-10-08T08:38:50Z</time>
      </trkpt>
      <trkpt lat="43.23966" lon="5.60262">
        <ele>370.7</ele>
        <time>2014-10-08T08:38:54Z</time>
      </trkpt>
      <trkpt lat="43.23969" lon="5.60259">
        <ele>370.1</ele>
        <time>2014-10-08T08:38:58Z</time>
      </trkpt>
      <trkpt lat="43.23972" lon="5.60256">
        <ele>370.1</ele>
        <time>2014-10-08T08:39:01Z</time>
      </trkpt>
      <trkpt lat="43.23976" lon="5.60254">
        <ele>370.6</ele>
        <time>2014-10-08T08:39:04Z</time>
      </trkpt>
      <trkpt lat="43.23979" lon="5.60251">
        <ele>372.3</ele>
        <time>2014-10-08T08:39:06Z</time>
      </trkpt>
      <trkpt lat="43.23982" lon="5.60247">
        <ele>372.3</ele>
        <time>2014-10-08T08:39:10Z</time>
      </trkpt>
      <trkpt lat="43.23984" lon="5.60243">
        <ele>369.6</ele>
        <time>2014-10-08T08:39:14Z</time>
      </trkpt>
      <trkpt lat="43.23986" lon="5.60238">
        <ele>369.5</ele>
        <time>2014-10-08T08:39:18Z</time>
      </trkpt>
      <trkpt lat="43.23988" lon="5.60234">
        <ele>370.7</ele>
        <time>2014-10-08T08:39:21Z</time>
      </trkpt>
      <trkpt lat="43.23991" lon="5.6023">
        <ele>373.3</ele>
        <time>2014-10-08T08:39:24Z</time>
      </trkpt>
      <trkpt lat="43.23992" lon="5.60226">
        <ele>376.1</ele>
        <time>2014-10-08T08:39:27Z</time>
      </trkpt>
      <trkpt lat="43.23994" lon="5.6022">
        <ele>378</ele>
        <time>2014-10-08T08:39:31Z</time>
      </trkpt>
      <trkpt lat="43.23995" lon="5.60216">
        <ele>380.1</ele>
        <time>2014-10-08T08:39:34Z</time>
      </trkpt>
      <trkpt lat="43.23997" lon="5.60212">
        <ele>380.7</ele>
        <time>2014-10-08T08:39:37Z</time>
      </trkpt>
      <trkpt lat="43.23997" lon="5.60207">
        <ele>379.7</ele>
        <time>2014-10-08T08:39:40Z</time>
      </trkpt>
      <trkpt lat="43.23997" lon="5.60206">
        <ele>379.6</ele>
        <time>2014-10-08T08:39:41Z</time>
      </trkpt>
      <trkpt lat="43.23999" lon="5.60195">
        <ele>377.7</ele>
        <time>2014-10-08T08:39:48Z</time>
      </trkpt>
      <trkpt lat="43.24001" lon="5.60191">
        <ele>377.2</ele>
        <time>2014-10-08T08:39:51Z</time>
      </trkpt>
      <trkpt lat="43.24002" lon="5.60185">
        <ele>376.7</ele>
        <time>2014-10-08T08:39:54Z</time>
      </trkpt>
      <trkpt lat="43.24003" lon="5.60181">
        <ele>377.2</ele>
        <time>2014-10-08T08:39:57Z</time>
      </trkpt>
      <trkpt lat="43.24004" lon="5.60175">
        <ele>377.6</ele>
        <time>2014-10-08T08:40:01Z</time>
      </trkpt>
      <trkpt lat="43.24005" lon="5.60169">
        <ele>376.1</ele>
        <time>2014-10-08T08:40:04Z</time>
      </trkpt>
      <trkpt lat="43.24007" lon="5.60165">
        <ele>377</ele>
        <time>2014-10-08T08:40:07Z</time>
      </trkpt>
      <trkpt lat="43.24008" lon="5.60161">
        <ele>377.2</ele>
        <time>2014-10-08T08:40:10Z</time>
      </trkpt>
      <trkpt lat="43.2401" lon="5.60156">
        <ele>377.7</ele>
        <time>2014-10-08T08:40:13Z</time>
      </trkpt>
      <trkpt lat="43.2401" lon="5.60151">
        <ele>377.5</ele>
        <time>2014-10-08T08:40:16Z</time>
      </trkpt>
      <trkpt lat="43.24009" lon="5.60146">
        <ele>375.8</ele>
        <time>2014-10-08T08:40:19Z</time>
      </trkpt>
      <trkpt lat="43.24009" lon="5.60142">
        <ele>374.6</ele>
        <time>2014-10-08T08:40:22Z</time>
      </trkpt>
      <trkpt lat="43.24009" lon="5.60136">
        <ele>373.7</ele>
        <time>2014-10-08T08:40:26Z</time>
      </trkpt>
      <trkpt lat="43.2401" lon="5.6013">
        <ele>374.6</ele>
        <time>2014-10-08T08:40:30Z</time>
      </trkpt>
      <trkpt lat="43.24012" lon="5.60125">
        <ele>376.2</ele>
        <time>2014-10-08T08:40:33Z</time>
      </trkpt>
      <trkpt lat="43.24012" lon="5.60121">
        <ele>377</ele>
        <time>2014-10-08T08:40:36Z</time>
      </trkpt>
      <trkpt lat="43.24013" lon="5.60116">
        <ele>378.6</ele>
        <time>2014-10-08T08:40:39Z</time>
      </trkpt>
      <trkpt lat="43.24014" lon="5.60111">
        <ele>380.3</ele>
        <time>2014-10-08T08:40:42Z</time>
      </trkpt>
      <trkpt lat="43.24014" lon="5.6011">
        <ele>380.6</ele>
        <time>2014-10-08T08:40:43Z</time>
      </trkpt>
      <trkpt lat="43.24015" lon="5.601">
        <ele>381</ele>
        <time>2014-10-08T08:40:49Z</time>
      </trkpt>
      <trkpt lat="43.24014" lon="5.60095">
        <ele>382.6</ele>
        <time>2014-10-08T08:40:52Z</time>
      </trkpt>
      <trkpt lat="43.24012" lon="5.6009">
        <ele>384.2</ele>
        <time>2014-10-08T08:40:55Z</time>
      </trkpt>
      <trkpt lat="43.2401" lon="5.60085">
        <ele>384.7</ele>
        <time>2014-10-08T08:40:58Z</time>
      </trkpt>
      <trkpt lat="43.24008" lon="5.6008">
        <ele>384.2</ele>
        <time>2014-10-08T08:41:02Z</time>
      </trkpt>
      <trkpt lat="43.24006" lon="5.60076">
        <ele>383.1</ele>
        <time>2014-10-08T08:41:06Z</time>
      </trkpt>
      <trkpt lat="43.24004" lon="5.60071">
        <ele>382.8</ele>
        <time>2014-10-08T08:41:16Z</time>
      </trkpt>
      <trkpt lat="43.24001" lon="5.60066">
        <ele>385.8</ele>
        <time>2014-10-08T08:41:29Z</time>
      </trkpt>
      <trkpt lat="43.23999" lon="5.60061">
        <ele>386.5</ele>
        <time>2014-10-08T08:41:35Z</time>
      </trkpt>
      <trkpt lat="43.23997" lon="5.60057">
        <ele>386.8</ele>
        <time>2014-10-08T08:41:45Z</time>
      </trkpt>
      <trkpt lat="43.23996" lon="5.60055">
        <ele>386.6</ele>
        <time>2014-10-08T08:41:46Z</time>
      </trkpt>
      <trkpt lat="43.23995" lon="5.60047">
        <ele>393.7</ele>
        <time>2014-10-08T08:41:50Z</time>
      </trkpt>
      <trkpt lat="43.23994" lon="5.60041">
        <ele>397.8</ele>
        <time>2014-10-08T08:41:53Z</time>
      </trkpt>
      <trkpt lat="43.23993" lon="5.60036">
        <ele>403</ele>
        <time>2014-10-08T08:41:59Z</time>
      </trkpt>
      <trkpt lat="43.23992" lon="5.60031">
        <ele>404.3</ele>
        <time>2014-10-08T08:42:02Z</time>
      </trkpt>
      <trkpt lat="43.2399" lon="5.60026">
        <ele>402.3</ele>
        <time>2014-10-08T08:42:06Z</time>
      </trkpt>
      <trkpt lat="43.23989" lon="5.6002">
        <ele>399.7</ele>
        <time>2014-10-08T08:42:11Z</time>
      </trkpt>
      <trkpt lat="43.23987" lon="5.60015">
        <ele>396.3</ele>
        <time>2014-10-08T08:42:16Z</time>
      </trkpt>
      <trkpt lat="43.23987" lon="5.6001">
        <ele>395.2</ele>
        <time>2014-10-08T08:42:20Z</time>
      </trkpt>
      <trkpt lat="43.23986" lon="5.60005">
        <ele>394.3</ele>
        <time>2014-10-08T08:42:24Z</time>
      </trkpt>
      <trkpt lat="43.23985" lon="5.6">
        <ele>393.2</ele>
        <time>2014-10-08T08:42:28Z</time>
      </trkpt>
      <trkpt lat="43.23983" lon="5.59995">
        <ele>390.5</ele>
        <time>2014-10-08T08:42:31Z</time>
      </trkpt>
      <trkpt lat="43.23982" lon="5.5999">
        <ele>389.2</ele>
        <time>2014-10-08T08:42:35Z</time>
      </trkpt>
      <trkpt lat="43.23981" lon="5.59985">
        <ele>390.5</ele>
        <time>2014-10-08T08:42:38Z</time>
      </trkpt>
      <trkpt lat="43.23979" lon="5.59981">
        <ele>388.1</ele>
        <time>2014-10-08T08:42:41Z</time>
      </trkpt>
      <trkpt lat="43.23978" lon="5.59977">
        <ele>384.6</ele>
        <time>2014-10-08T08:42:44Z</time>
      </trkpt>
      <trkpt lat="43.23975" lon="5.59973">
        <ele>382.6</ele>
        <time>2014-10-08T08:42:47Z</time>
      </trkpt>
      <trkpt lat="43.23975" lon="5.59971">
        <ele>382.7</ele>
        <time>2014-10-08T08:42:48Z</time>
      </trkpt>
      <trkpt lat="43.23972" lon="5.59962">
        <ele>380.6</ele>
        <time>2014-10-08T08:42:54Z</time>
      </trkpt>
      <trkpt lat="43.2397" lon="5.59958">
        <ele>381.1</ele>
        <time>2014-10-08T08:42:57Z</time>
      </trkpt>
      <trkpt lat="43.23968" lon="5.59952">
        <ele>382.7</ele>
        <time>2014-10-08T08:43:00Z</time>
      </trkpt>
      <trkpt lat="43.23967" lon="5.59947">
        <ele>385.1</ele>
        <time>2014-10-08T08:43:03Z</time>
      </trkpt>
      <trkpt lat="43.23965" lon="5.59942">
        <ele>387.8</ele>
        <time>2014-10-08T08:43:06Z</time>
      </trkpt>
      <trkpt lat="43.23963" lon="5.59938">
        <ele>387.3</ele>
        <time>2014-10-08T08:43:09Z</time>
      </trkpt>
      <trkpt lat="43.23961" lon="5.59933">
        <ele>385.8</ele>
        <time>2014-10-08T08:43:13Z</time>
      </trkpt>
      <trkpt lat="43.2396" lon="5.59928">
        <ele>386.2</ele>
        <time>2014-10-08T08:43:16Z</time>
      </trkpt>
      <trkpt lat="43.2396" lon="5.59923">
        <ele>386.1</ele>
        <time>2014-10-08T08:43:19Z</time>
      </trkpt>
      <trkpt lat="43.2396" lon="5.59918">
        <ele>386.1</ele>
        <time>2014-10-08T08:43:22Z</time>
      </trkpt>
      <trkpt lat="43.23961" lon="5.59913">
        <ele>384</ele>
        <time>2014-10-08T08:43:26Z</time>
      </trkpt>
      <trkpt lat="43.2396" lon="5.59907">
        <ele>384.6</ele>
        <time>2014-10-08T08:43:30Z</time>
      </trkpt>
      <trkpt lat="43.23962" lon="5.59903">
        <ele>386</ele>
        <time>2014-10-08T08:43:33Z</time>
      </trkpt>
      <trkpt lat="43.23964" lon="5.59899">
        <ele>385.8</ele>
        <time>2014-10-08T08:43:36Z</time>
      </trkpt>
      <trkpt lat="43.23966" lon="5.59895">
        <ele>385.2</ele>
        <time>2014-10-08T08:43:39Z</time>
      </trkpt>
      <trkpt lat="43.23968" lon="5.59891">
        <ele>385.7</ele>
        <time>2014-10-08T08:43:42Z</time>
      </trkpt>
      <trkpt lat="43.2397" lon="5.59887">
        <ele>385.7</ele>
        <time>2014-10-08T08:43:46Z</time>
      </trkpt>
      <trkpt lat="43.23972" lon="5.59883">
        <ele>385.2</ele>
        <time>2014-10-08T08:43:49Z</time>
      </trkpt>
      <trkpt lat="43.23972" lon="5.59881">
        <ele>385.6</ele>
        <time>2014-10-08T08:43:50Z</time>
      </trkpt>
      <trkpt lat="43.23974" lon="5.59872">
        <ele>386.8</ele>
        <time>2014-10-08T08:43:56Z</time>
      </trkpt>
      <trkpt lat="43.23974" lon="5.59866">
        <ele>384.8</ele>
        <time>2014-10-08T08:44:00Z</time>
      </trkpt>
      <trkpt lat="43.23975" lon="5.59861">
        <ele>384.6</ele>
        <time>2014-10-08T08:44:04Z</time>
      </trkpt>
      <trkpt lat="43.23975" lon="5.59856">
        <ele>384</ele>
        <time>2014-10-08T08:44:08Z</time>
      </trkpt>
      <trkpt lat="43.23976" lon="5.5985">
        <ele>383.7</ele>
        <time>2014-10-08T08:44:12Z</time>
      </trkpt>
      <trkpt lat="43.23976" lon="5.59844">
        <ele>383.2</ele>
        <time>2014-10-08T08:44:16Z</time>
      </trkpt>
      <trkpt lat="43.23976" lon="5.59839">
        <ele>382.6</ele>
        <time>2014-10-08T08:44:20Z</time>
      </trkpt>
      <trkpt lat="43.23976" lon="5.59833">
        <ele>383.1</ele>
        <time>2014-10-08T08:44:24Z</time>
      </trkpt>
      <trkpt lat="43.23975" lon="5.59828">
        <ele>381</ele>
        <time>2014-10-08T08:44:28Z</time>
      </trkpt>
      <trkpt lat="43.23975" lon="5.59822">
        <ele>380.2</ele>
        <time>2014-10-08T08:44:32Z</time>
      </trkpt>
      <trkpt lat="43.23974" lon="5.59817">
        <ele>376.7</ele>
        <time>2014-10-08T08:44:36Z</time>
      </trkpt>
      <trkpt lat="43.23972" lon="5.59812">
        <ele>374.2</ele>
        <time>2014-10-08T08:44:40Z</time>
      </trkpt>
      <trkpt lat="43.23971" lon="5.59808">
        <ele>369.8</ele>
        <time>2014-10-08T08:44:44Z</time>
      </trkpt>
      <trkpt lat="43.23969" lon="5.59803">
        <ele>366</ele>
        <time>2014-10-08T08:44:48Z</time>
      </trkpt>
      <trkpt lat="43.23967" lon="5.59799">
        <ele>364.2</ele>
        <time>2014-10-08T08:44:52Z</time>
      </trkpt>
      <trkpt lat="43.23966" lon="5.59798">
        <ele>363.7</ele>
        <time>2014-10-08T08:44:53Z</time>
      </trkpt>
      <trkpt lat="43.23961" lon="5.5979">
        <ele>366.5</ele>
        <time>2014-10-08T08:45:00Z</time>
      </trkpt>
      <trkpt lat="43.23959" lon="5.59787">
        <ele>365.6</ele>
        <time>2014-10-08T08:45:03Z</time>
      </trkpt>
      <trkpt lat="43.23957" lon="5.59783">
        <ele>364.7</ele>
        <time>2014-10-08T08:45:06Z</time>
      </trkpt>
      <trkpt lat="43.23955" lon="5.59779">
        <ele>363.8</ele>
        <time>2014-10-08T08:45:09Z</time>
      </trkpt>
      <trkpt lat="43.23952" lon="5.59775">
        <ele>363.5</ele>
        <time>2014-10-08T08:45:13Z</time>
      </trkpt>
      <trkpt lat="43.23949" lon="5.59772">
        <ele>362.3</ele>
        <time>2014-10-08T08:45:17Z</time>
      </trkpt>
      <trkpt lat="43.23947" lon="5.59768">
        <ele>361.6</ele>
        <time>2014-10-08T08:45:20Z</time>
      </trkpt>
      <trkpt lat="43.23944" lon="5.59765">
        <ele>360.5</ele>
        <time>2014-10-08T08:45:24Z</time>
      </trkpt>
      <trkpt lat="43.23942" lon="5.5976">
        <ele>361.2</ele>
        <time>2014-10-08T08:45:28Z</time>
      </trkpt>
      <trkpt lat="43.23939" lon="5.59756">
        <ele>361.8</ele>
        <time>2014-10-08T08:45:32Z</time>
      </trkpt>
      <trkpt lat="43.23937" lon="5.59751">
        <ele>362.5</ele>
        <time>2014-10-08T08:45:36Z</time>
      </trkpt>
      <trkpt lat="43.23934" lon="5.59747">
        <ele>362.1</ele>
        <time>2014-10-08T08:45:40Z</time>
      </trkpt>
      <trkpt lat="43.23932" lon="5.59742">
        <ele>361.2</ele>
        <time>2014-10-08T08:45:43Z</time>
      </trkpt>
      <trkpt lat="43.23931" lon="5.59737">
        <ele>363.7</ele>
        <time>2014-10-08T08:45:46Z</time>
      </trkpt>
      <trkpt lat="43.23929" lon="5.59732">
        <ele>364.1</ele>
        <time>2014-10-08T08:45:50Z</time>
      </trkpt>
      <trkpt lat="43.23927" lon="5.59727">
        <ele>365</ele>
        <time>2014-10-08T08:45:55Z</time>
      </trkpt>
      <trkpt lat="43.23927" lon="5.59726">
        <ele>365.1</ele>
        <time>2014-10-08T08:45:56Z</time>
      </trkpt>
      <trkpt lat="43.23924" lon="5.59717">
        <ele>364.3</ele>
        <time>2014-10-08T08:46:03Z</time>
      </trkpt>
      <trkpt lat="43.23923" lon="5.59712">
        <ele>364.7</ele>
        <time>2014-10-08T08:46:06Z</time>
      </trkpt>
      <trkpt lat="43.23921" lon="5.59707">
        <ele>363.8</ele>
        <time>2014-10-08T08:46:10Z</time>
      </trkpt>
      <trkpt lat="43.2392" lon="5.59702">
        <ele>362.7</ele>
        <time>2014-10-08T08:46:14Z</time>
      </trkpt>
      <trkpt lat="43.23919" lon="5.59698">
        <ele>361.7</ele>
        <time>2014-10-08T08:46:17Z</time>
      </trkpt>
      <trkpt lat="43.23917" lon="5.59693">
        <ele>362.2</ele>
        <time>2014-10-08T08:46:20Z</time>
      </trkpt>
      <trkpt lat="43.23916" lon="5.59689">
        <ele>363</ele>
        <time>2014-10-08T08:46:23Z</time>
      </trkpt>
      <trkpt lat="43.23914" lon="5.59684">
        <ele>364.7</ele>
        <time>2014-10-08T08:46:27Z</time>
      </trkpt>
      <trkpt lat="43.23912" lon="5.59679">
        <ele>364.7</ele>
        <time>2014-10-08T08:46:31Z</time>
      </trkpt>
      <trkpt lat="43.2391" lon="5.59674">
        <ele>365.3</ele>
        <time>2014-10-08T08:46:34Z</time>
      </trkpt>
      <trkpt lat="43.23908" lon="5.59669">
        <ele>366.6</ele>
        <time>2014-10-08T08:46:38Z</time>
      </trkpt>
      <trkpt lat="43.23907" lon="5.59665">
        <ele>367</ele>
        <time>2014-10-08T08:46:41Z</time>
      </trkpt>
      <trkpt lat="43.23905" lon="5.5966">
        <ele>361.7</ele>
        <time>2014-10-08T08:46:46Z</time>
      </trkpt>
      <trkpt lat="43.23903" lon="5.59656">
        <ele>361.5</ele>
        <time>2014-10-08T08:46:49Z</time>
      </trkpt>
      <trkpt lat="43.23901" lon="5.59651">
        <ele>361.7</ele>
        <time>2014-10-08T08:46:54Z</time>
      </trkpt>
      <trkpt lat="43.23898" lon="5.59647">
        <ele>359.7</ele>
        <time>2014-10-08T08:46:59Z</time>
      </trkpt>
      <trkpt lat="43.23898" lon="5.59646">
        <ele>360</ele>
        <time>2014-10-08T08:47:00Z</time>
      </trkpt>
    </trkseg>
  </trk>
  <trk>
    <name><![CDATA[Cabanon des Marquis_4]]></name>
    <trkseg>
      <trkpt lat="43.23706" lon="5.59894">
        <ele>402.9</ele>
        <time>2014-10-08T09:03:22Z</time>
      </trkpt>
      <trkpt lat="43.23706" lon="5.59894">
        <ele>402.9</ele>
        <time>2014-10-08T09:03:23Z</time>
      </trkpt>
      <trkpt lat="43.23701" lon="5.59897">
        <ele>399.7</ele>
        <time>2014-10-08T09:04:20Z</time>
      </trkpt>
      <trkpt lat="43.23697" lon="5.59897">
        <ele>402.7</ele>
        <time>2014-10-08T09:05:09Z</time>
      </trkpt>
      <trkpt lat="43.23696" lon="5.59897">
        <ele>402.6</ele>
        <time>2014-10-08T09:05:10Z</time>
      </trkpt>
      <trkpt lat="43.23694" lon="5.59902">
        <ele>409.1</ele>
        <time>2014-10-08T09:06:55Z</time>
      </trkpt>
      <trkpt lat="43.2369" lon="5.59905">
        <ele>421.7</ele>
        <time>2014-10-08T09:08:17Z</time>
      </trkpt>
      <trkpt lat="43.23685" lon="5.59913">
        <ele>421.8</ele>
        <time>2014-10-08T09:08:58Z</time>
      </trkpt>
      <trkpt lat="43.23688" lon="5.5991">
        <ele>422.2</ele>
        <time>2014-10-08T09:09:15Z</time>
      </trkpt>
      <trkpt lat="43.23691" lon="5.59906">
        <ele>406.2</ele>
        <time>2014-10-08T09:09:43Z</time>
      </trkpt>
      <trkpt lat="43.23691" lon="5.59905">
        <ele>405.8</ele>
        <time>2014-10-08T09:09:44Z</time>
      </trkpt>
      <trkpt lat="43.23689" lon="5.59914">
        <ele>406.3</ele>
        <time>2014-10-08T09:10:09Z</time>
      </trkpt>
      <trkpt lat="43.23689" lon="5.5992">
        <ele>424.6</ele>
        <time>2014-10-08T09:10:28Z</time>
      </trkpt>
      <trkpt lat="43.23689" lon="5.59915">
        <ele>419.5</ele>
        <time>2014-10-08T09:10:42Z</time>
      </trkpt>
      <trkpt lat="43.23689" lon="5.59909">
        <ele>427.2</ele>
        <time>2014-10-08T09:11:04Z</time>
      </trkpt>
      <trkpt lat="43.2369" lon="5.59908">
        <ele>425</ele>
        <time>2014-10-08T09:11:05Z</time>
      </trkpt>
      <trkpt lat="43.23689" lon="5.59907">
        <ele>403.6</ele>
        <time>2014-10-08T09:12:04Z</time>
      </trkpt>
      <trkpt lat="43.23689" lon="5.59907">
        <ele>404</ele>
        <time>2014-10-08T09:12:05Z</time>
      </trkpt>
      <trkpt lat="43.23688" lon="5.59918">
        <ele>403.2</ele>
        <time>2014-10-08T09:12:18Z</time>
      </trkpt>
      <trkpt lat="43.23688" lon="5.59924">
        <ele>404.8</ele>
        <time>2014-10-08T09:12:24Z</time>
      </trkpt>
      <trkpt lat="43.23688" lon="5.59929">
        <ele>405.5</ele>
        <time>2014-10-08T09:12:28Z</time>
      </trkpt>
      <trkpt lat="43.23688" lon="5.59935">
        <ele>406.3</ele>
        <time>2014-10-08T09:12:33Z</time>
      </trkpt>
      <trkpt lat="43.23688" lon="5.59941">
        <ele>406</ele>
        <time>2014-10-08T09:12:38Z</time>
      </trkpt>
      <trkpt lat="43.23689" lon="5.59946">
        <ele>405.7</ele>
        <time>2014-10-08T09:12:42Z</time>
      </trkpt>
      <trkpt lat="43.23691" lon="5.59952">
        <ele>406.7</ele>
        <time>2014-10-08T09:12:46Z</time>
      </trkpt>
      <trkpt lat="43.23693" lon="5.59957">
        <ele>406.7</ele>
        <time>2014-10-08T09:12:51Z</time>
      </trkpt>
      <trkpt lat="43.23694" lon="5.59962">
        <ele>408</ele>
        <time>2014-10-08T09:12:55Z</time>
      </trkpt>
      <trkpt lat="43.23696" lon="5.59967">
        <ele>408.2</ele>
        <time>2014-10-08T09:13:00Z</time>
      </trkpt>
      <trkpt lat="43.23697" lon="5.59972">
        <ele>410.7</ele>
        <time>2014-10-08T09:13:04Z</time>
      </trkpt>
      <trkpt lat="43.23697" lon="5.59978">
        <ele>413.5</ele>
        <time>2014-10-08T09:13:08Z</time>
      </trkpt>
      <trkpt lat="43.23697" lon="5.59979">
        <ele>414.2</ele>
        <time>2014-10-08T09:13:09Z</time>
      </trkpt>
      <trkpt lat="43.23699" lon="5.59989">
        <ele>414.8</ele>
        <time>2014-10-08T09:13:17Z</time>
      </trkpt>
      <trkpt lat="43.237" lon="5.59994">
        <ele>414.1</ele>
        <time>2014-10-08T09:13:22Z</time>
      </trkpt>
      <trkpt lat="43.23702" lon="5.59999">
        <ele>413.7</ele>
        <time>2014-10-08T09:13:27Z</time>
      </trkpt>
      <trkpt lat="43.23703" lon="5.60004">
        <ele>412</ele>
        <time>2014-10-08T09:13:31Z</time>
      </trkpt>
      <trkpt lat="43.23704" lon="5.60009">
        <ele>413.5</ele>
        <time>2014-10-08T09:13:35Z</time>
      </trkpt>
      <trkpt lat="43.23707" lon="5.60013">
        <ele>412</ele>
        <time>2014-10-08T09:13:39Z</time>
      </trkpt>
      <trkpt lat="43.23709" lon="5.60017">
        <ele>410.8</ele>
        <time>2014-10-08T09:13:42Z</time>
      </trkpt>
      <trkpt lat="43.23711" lon="5.60022">
        <ele>410.5</ele>
        <time>2014-10-08T09:13:46Z</time>
      </trkpt>
      <trkpt lat="43.23713" lon="5.60027">
        <ele>412.1</ele>
        <time>2014-10-08T09:13:51Z</time>
      </trkpt>
      <trkpt lat="43.23715" lon="5.60032">
        <ele>412.7</ele>
        <time>2014-10-08T09:13:57Z</time>
      </trkpt>
      <trkpt lat="43.23717" lon="5.60036">
        <ele>411.7</ele>
        <time>2014-10-08T09:14:01Z</time>
      </trkpt>
      <trkpt lat="43.2372" lon="5.6004">
        <ele>412</ele>
        <time>2014-10-08T09:14:05Z</time>
      </trkpt>
      <trkpt lat="43.23722" lon="5.60044">
        <ele>412</ele>
        <time>2014-10-08T09:14:09Z</time>
      </trkpt>
      <trkpt lat="43.23723" lon="5.60045">
        <ele>411.7</ele>
        <time>2014-10-08T09:14:10Z</time>
      </trkpt>
      <trkpt lat="43.23727" lon="5.60053">
        <ele>412.5</ele>
        <time>2014-10-08T09:14:17Z</time>
      </trkpt>
      <trkpt lat="43.2373" lon="5.60057">
        <ele>412.1</ele>
        <time>2014-10-08T09:14:21Z</time>
      </trkpt>
      <trkpt lat="43.23732" lon="5.6006">
        <ele>411.5</ele>
        <time>2014-10-08T09:14:25Z</time>
      </trkpt>
      <trkpt lat="43.23733" lon="5.60066">
        <ele>414</ele>
        <time>2014-10-08T09:14:29Z</time>
      </trkpt>
      <trkpt lat="43.23734" lon="5.60072">
        <ele>415.3</ele>
        <time>2014-10-08T09:14:33Z</time>
      </trkpt>
      <trkpt lat="43.23735" lon="5.60078">
        <ele>416.1</ele>
        <time>2014-10-08T09:14:37Z</time>
      </trkpt>
      <trkpt lat="43.23736" lon="5.60083">
        <ele>415.7</ele>
        <time>2014-10-08T09:14:41Z</time>
      </trkpt>
      <trkpt lat="43.23738" lon="5.60088">
        <ele>414.6</ele>
        <time>2014-10-08T09:14:46Z</time>
      </trkpt>
      <trkpt lat="43.23739" lon="5.60093">
        <ele>414.3</ele>
        <time>2014-10-08T09:14:50Z</time>
      </trkpt>
      <trkpt lat="43.2374" lon="5.60098">
        <ele>413.6</ele>
        <time>2014-10-08T09:14:54Z</time>
      </trkpt>
      <trkpt lat="43.23741" lon="5.60103">
        <ele>413.2</ele>
        <time>2014-10-08T09:14:58Z</time>
      </trkpt>
      <trkpt lat="43.23741" lon="5.60109">
        <ele>413</ele>
        <time>2014-10-08T09:15:02Z</time>
      </trkpt>
      <trkpt lat="43.23741" lon="5.60114">
        <ele>413</ele>
        <time>2014-10-08T09:15:06Z</time>
      </trkpt>
      <trkpt lat="43.2374" lon="5.6012">
        <ele>414</ele>
        <time>2014-10-08T09:15:10Z</time>
      </trkpt>
      <trkpt lat="43.23739" lon="5.60122">
        <ele>414.2</ele>
        <time>2014-10-08T09:15:11Z</time>
      </trkpt>
      <trkpt lat="43.23738" lon="5.60132">
        <ele>414.7</ele>
        <time>2014-10-08T09:15:18Z</time>
      </trkpt>
      <trkpt lat="43.23737" lon="5.60136">
        <ele>416.1</ele>
        <time>2014-10-08T09:15:21Z</time>
      </trkpt>
      <trkpt lat="43.23736" lon="5.60141">
        <ele>417.2</ele>
        <time>2014-10-08T09:15:24Z</time>
      </trkpt>
      <trkpt lat="43.23735" lon="5.60146">
        <ele>418.1</ele>
        <time>2014-10-08T09:15:27Z</time>
      </trkpt>
      <trkpt lat="43.23734" lon="5.60151">
        <ele>418.5</ele>
        <time>2014-10-08T09:15:31Z</time>
      </trkpt>
      <trkpt lat="43.23731" lon="5.60156">
        <ele>418</ele>
        <time>2014-10-08T09:15:35Z</time>
      </trkpt>
      <trkpt lat="43.23728" lon="5.6016">
        <ele>417.7</ele>
        <time>2014-10-08T09:15:39Z</time>
      </trkpt>
      <trkpt lat="43.23726" lon="5.60165">
        <ele>417.7</ele>
        <time>2014-10-08T09:15:43Z</time>
      </trkpt>
      <trkpt lat="43.23723" lon="5.60168">
        <ele>418.2</ele>
        <time>2014-10-08T09:15:46Z</time>
      </trkpt>
      <trkpt lat="43.2372" lon="5.60172">
        <ele>418.6</ele>
        <time>2014-10-08T09:15:50Z</time>
      </trkpt>
      <trkpt lat="43.23717" lon="5.60177">
        <ele>419.7</ele>
        <time>2014-10-08T09:15:54Z</time>
      </trkpt>
      <trkpt lat="43.23715" lon="5.6018">
        <ele>420.3</ele>
        <time>2014-10-08T09:15:57Z</time>
      </trkpt>
      <trkpt lat="43.23712" lon="5.60185">
        <ele>421.6</ele>
        <time>2014-10-08T09:16:01Z</time>
      </trkpt>
      <trkpt lat="43.23708" lon="5.60189">
        <ele>422.8</ele>
        <time>2014-10-08T09:16:05Z</time>
      </trkpt>
      <trkpt lat="43.23706" lon="5.60193">
        <ele>422.3</ele>
        <time>2014-10-08T09:16:09Z</time>
      </trkpt>
      <trkpt lat="43.23702" lon="5.60197">
        <ele>422.7</ele>
        <time>2014-10-08T09:16:13Z</time>
      </trkpt>
      <trkpt lat="43.23702" lon="5.60198">
        <ele>422.3</ele>
        <time>2014-10-08T09:16:14Z</time>
      </trkpt>
      <trkpt lat="43.23698" lon="5.60205">
        <ele>423.6</ele>
        <time>2014-10-08T09:16:20Z</time>
      </trkpt>
      <trkpt lat="43.23695" lon="5.60209">
        <ele>423.7</ele>
        <time>2014-10-08T09:16:23Z</time>
      </trkpt>
      <trkpt lat="43.23693" lon="5.60212">
        <ele>422.6</ele>
        <time>2014-10-08T09:16:26Z</time>
      </trkpt>
      <trkpt lat="43.23691" lon="5.60217">
        <ele>422</ele>
        <time>2014-10-08T09:16:29Z</time>
      </trkpt>
      <trkpt lat="43.23689" lon="5.60222">
        <ele>421.2</ele>
        <time>2014-10-08T09:16:33Z</time>
      </trkpt>
      <trkpt lat="43.23686" lon="5.60226">
        <ele>421.1</ele>
        <time>2014-10-08T09:16:37Z</time>
      </trkpt>
      <trkpt lat="43.23684" lon="5.60231">
        <ele>421</ele>
        <time>2014-10-08T09:16:41Z</time>
      </trkpt>
      <trkpt lat="43.23681" lon="5.60234">
        <ele>421.5</ele>
        <time>2014-10-08T09:16:44Z</time>
      </trkpt>
      <trkpt lat="43.23679" lon="5.60239">
        <ele>421.8</ele>
        <time>2014-10-08T09:16:48Z</time>
      </trkpt>
      <trkpt lat="43.23677" lon="5.60244">
        <ele>421.3</ele>
        <time>2014-10-08T09:16:52Z</time>
      </trkpt>
      <trkpt lat="43.23675" lon="5.60248">
        <ele>421.6</ele>
        <time>2014-10-08T09:16:56Z</time>
      </trkpt>
      <trkpt lat="43.23672" lon="5.60252">
        <ele>421.7</ele>
        <time>2014-10-08T09:16:59Z</time>
      </trkpt>
      <trkpt lat="43.2367" lon="5.60256">
        <ele>421.7</ele>
        <time>2014-10-08T09:17:03Z</time>
      </trkpt>
      <trkpt lat="43.23669" lon="5.60262">
        <ele>422.2</ele>
        <time>2014-10-08T09:17:07Z</time>
      </trkpt>
      <trkpt lat="43.23669" lon="5.60267">
        <ele>422.5</ele>
        <time>2014-10-08T09:17:11Z</time>
      </trkpt>
      <trkpt lat="43.23668" lon="5.60273">
        <ele>422.5</ele>
        <time>2014-10-08T09:17:16Z</time>
      </trkpt>
      <trkpt lat="43.23668" lon="5.60274">
        <ele>422.2</ele>
        <time>2014-10-08T09:17:17Z</time>
      </trkpt>
      <trkpt lat="43.23669" lon="5.60285">
        <ele>422.7</ele>
        <time>2014-10-08T09:17:41Z</time>
      </trkpt>
      <trkpt lat="43.23672" lon="5.60287">
        <ele>422.8</ele>
        <time>2014-10-08T09:17:45Z</time>
      </trkpt>
      <trkpt lat="43.23675" lon="5.6029">
        <ele>422.8</ele>
        <time>2014-10-08T09:17:49Z</time>
      </trkpt>
      <trkpt lat="43.23677" lon="5.60293">
        <ele>422.2</ele>
        <time>2014-10-08T09:17:52Z</time>
      </trkpt>
      <trkpt lat="43.23681" lon="5.60296">
        <ele>421.1</ele>
        <time>2014-10-08T09:17:56Z</time>
      </trkpt>
      <trkpt lat="43.23685" lon="5.60298">
        <ele>420.7</ele>
        <time>2014-10-08T09:18:00Z</time>
      </trkpt>
      <trkpt lat="43.23688" lon="5.60301">
        <ele>422</ele>
        <time>2014-10-08T09:18:04Z</time>
      </trkpt>
      <trkpt lat="43.23691" lon="5.60304">
        <ele>421.6</ele>
        <time>2014-10-08T09:18:07Z</time>
      </trkpt>
      <trkpt lat="43.23694" lon="5.60308">
        <ele>421.2</ele>
        <time>2014-10-08T09:18:11Z</time>
      </trkpt>
      <trkpt lat="43.23696" lon="5.60312">
        <ele>421.6</ele>
        <time>2014-10-08T09:18:15Z</time>
      </trkpt>
      <trkpt lat="43.23698" lon="5.60317">
        <ele>421.1</ele>
        <time>2014-10-08T09:18:19Z</time>
      </trkpt>
      <trkpt lat="43.23699" lon="5.60318">
        <ele>420.8</ele>
        <time>2014-10-08T09:18:20Z</time>
      </trkpt>
      <trkpt lat="43.23702" lon="5.60327">
        <ele>420</ele>
        <time>2014-10-08T09:18:27Z</time>
      </trkpt>
      <trkpt lat="43.23702" lon="5.60333">
        <ele>419.5</ele>
        <time>2014-10-08T09:18:31Z</time>
      </trkpt>
      <trkpt lat="43.23704" lon="5.60338">
        <ele>418.7</ele>
        <time>2014-10-08T09:18:35Z</time>
      </trkpt>
      <trkpt lat="43.23705" lon="5.60343">
        <ele>418.1</ele>
        <time>2014-10-08T09:18:39Z</time>
      </trkpt>
      <trkpt lat="43.23706" lon="5.60349">
        <ele>417.2</ele>
        <time>2014-10-08T09:18:43Z</time>
      </trkpt>
      <trkpt lat="43.23708" lon="5.60354">
        <ele>416.3</ele>
        <time>2014-10-08T09:18:47Z</time>
      </trkpt>
      <trkpt lat="43.2371" lon="5.60358">
        <ele>415.6</ele>
        <time>2014-10-08T09:18:51Z</time>
      </trkpt>
      <trkpt lat="43.23711" lon="5.60363">
        <ele>415.2</ele>
        <time>2014-10-08T09:18:55Z</time>
      </trkpt>
      <trkpt lat="43.23713" lon="5.60369">
        <ele>415.2</ele>
        <time>2014-10-08T09:18:59Z</time>
      </trkpt>
      <trkpt lat="43.23715" lon="5.60374">
        <ele>415.5</ele>
        <time>2014-10-08T09:19:03Z</time>
      </trkpt>
      <trkpt lat="43.23716" lon="5.60378">
        <ele>415.2</ele>
        <time>2014-10-08T09:19:07Z</time>
      </trkpt>
      <trkpt lat="43.23717" lon="5.60384">
        <ele>415</ele>
        <time>2014-10-08T09:19:11Z</time>
      </trkpt>
      <trkpt lat="43.23718" lon="5.6039">
        <ele>414.7</ele>
        <time>2014-10-08T09:19:15Z</time>
      </trkpt>
      <trkpt lat="43.23719" lon="5.60396">
        <ele>414.7</ele>
        <time>2014-10-08T09:19:19Z</time>
      </trkpt>
      <trkpt lat="43.2372" lon="5.60401">
        <ele>414.8</ele>
        <time>2014-10-08T09:19:22Z</time>
      </trkpt>
      <trkpt lat="43.2372" lon="5.60402">
        <ele>414.8</ele>
        <time>2014-10-08T09:19:23Z</time>
      </trkpt>
      <trkpt lat="43.23721" lon="5.60411">
        <ele>415.2</ele>
        <time>2014-10-08T09:19:29Z</time>
      </trkpt>
      <trkpt lat="43.23722" lon="5.60416">
        <ele>415.6</ele>
        <time>2014-10-08T09:19:32Z</time>
      </trkpt>
      <trkpt lat="43.23723" lon="5.6042">
        <ele>416.2</ele>
        <time>2014-10-08T09:19:35Z</time>
      </trkpt>
      <trkpt lat="43.23724" lon="5.60425">
        <ele>416.7</ele>
        <time>2014-10-08T09:19:38Z</time>
      </trkpt>
      <trkpt lat="43.23724" lon="5.6043">
        <ele>417.7</ele>
        <time>2014-10-08T09:19:41Z</time>
      </trkpt>
      <trkpt lat="43.23725" lon="5.60435">
        <ele>418.7</ele>
        <time>2014-10-08T09:19:44Z</time>
      </trkpt>
      <trkpt lat="43.23726" lon="5.6044">
        <ele>419.1</ele>
        <time>2014-10-08T09:19:47Z</time>
      </trkpt>
      <trkpt lat="43.23727" lon="5.60444">
        <ele>419.2</ele>
        <time>2014-10-08T09:19:50Z</time>
      </trkpt>
      <trkpt lat="43.23727" lon="5.60449">
        <ele>419.3</ele>
        <time>2014-10-08T09:19:53Z</time>
      </trkpt>
      <trkpt lat="43.23728" lon="5.60453">
        <ele>418.7</ele>
        <time>2014-10-08T09:19:56Z</time>
      </trkpt>
      <trkpt lat="43.2373" lon="5.60458">
        <ele>419</ele>
        <time>2014-10-08T09:19:59Z</time>
      </trkpt>
      <trkpt lat="43.23732" lon="5.60463">
        <ele>419.1</ele>
        <time>2014-10-08T09:20:03Z</time>
      </trkpt>
      <trkpt lat="43.23734" lon="5.60468">
        <ele>419.6</ele>
        <time>2014-10-08T09:20:07Z</time>
      </trkpt>
      <trkpt lat="43.23735" lon="5.60473">
        <ele>419.5</ele>
        <time>2014-10-08T09:20:11Z</time>
      </trkpt>
      <trkpt lat="43.23737" lon="5.60478">
        <ele>419.7</ele>
        <time>2014-10-08T09:20:15Z</time>
      </trkpt>
      <trkpt lat="43.23739" lon="5.60483">
        <ele>419.5</ele>
        <time>2014-10-08T09:20:19Z</time>
      </trkpt>
      <trkpt lat="43.23741" lon="5.60487">
        <ele>419.5</ele>
        <time>2014-10-08T09:20:23Z</time>
      </trkpt>
      <trkpt lat="43.23742" lon="5.60488">
        <ele>419.7</ele>
        <time>2014-10-08T09:20:24Z</time>
      </trkpt>
      <trkpt lat="43.23746" lon="5.60496">
        <ele>420.5</ele>
        <time>2014-10-08T09:20:31Z</time>
      </trkpt>
      <trkpt lat="43.23748" lon="5.60501">
        <ele>420.8</ele>
        <time>2014-10-08T09:20:35Z</time>
      </trkpt>
      <trkpt lat="43.23751" lon="5.60505">
        <ele>421</ele>
        <time>2014-10-08T09:20:40Z</time>
      </trkpt>
      <trkpt lat="43.23753" lon="5.6051">
        <ele>421</ele>
        <time>2014-10-08T09:20:44Z</time>
      </trkpt>
      <trkpt lat="43.23754" lon="5.60515">
        <ele>421.8</ele>
        <time>2014-10-08T09:20:48Z</time>
      </trkpt>
      <trkpt lat="43.23755" lon="5.60521">
        <ele>423.1</ele>
        <time>2014-10-08T09:20:52Z</time>
      </trkpt>
      <trkpt lat="43.23758" lon="5.60525">
        <ele>423.7</ele>
        <time>2014-10-08T09:20:56Z</time>
      </trkpt>
      <trkpt lat="43.23759" lon="5.60529">
        <ele>423.7</ele>
        <time>2014-10-08T09:20:59Z</time>
      </trkpt>
      <trkpt lat="43.23762" lon="5.60533">
        <ele>423.3</ele>
        <time>2014-10-08T09:21:02Z</time>
      </trkpt>
      <trkpt lat="43.23765" lon="5.60537">
        <ele>423</ele>
        <time>2014-10-08T09:21:06Z</time>
      </trkpt>
      <trkpt lat="43.23768" lon="5.6054">
        <ele>422.7</ele>
        <time>2014-10-08T09:21:09Z</time>
      </trkpt>
      <trkpt lat="43.2377" lon="5.60543">
        <ele>422.5</ele>
        <time>2014-10-08T09:21:12Z</time>
      </trkpt>
      <trkpt lat="43.23773" lon="5.60546">
        <ele>421.8</ele>
        <time>2014-10-08T09:21:16Z</time>
      </trkpt>
      <trkpt lat="43.23777" lon="5.60551">
        <ele>421.7</ele>
        <time>2014-10-08T09:21:20Z</time>
      </trkpt>
      <trkpt lat="43.23779" lon="5.60554">
        <ele>421.8</ele>
        <time>2014-10-08T09:21:23Z</time>
      </trkpt>
      <trkpt lat="43.23782" lon="5.60557">
        <ele>422</ele>
        <time>2014-10-08T09:21:26Z</time>
      </trkpt>
      <trkpt lat="43.23783" lon="5.60558">
        <ele>422.1</ele>
        <time>2014-10-08T09:21:27Z</time>
      </trkpt>
      <trkpt lat="43.23787" lon="5.60564">
        <ele>421</ele>
        <time>2014-10-08T09:21:32Z</time>
      </trkpt>
      <trkpt lat="43.2379" lon="5.60567">
        <ele>420.2</ele>
        <time>2014-10-08T09:21:36Z</time>
      </trkpt>
      <trkpt lat="43.23792" lon="5.60572">
        <ele>419.6</ele>
        <time>2014-10-08T09:21:40Z</time>
      </trkpt>
      <trkpt lat="43.23794" lon="5.60578">
        <ele>419.7</ele>
        <time>2014-10-08T09:21:44Z</time>
      </trkpt>
      <trkpt lat="43.23797" lon="5.60581">
        <ele>419.8</ele>
        <time>2014-10-08T09:21:47Z</time>
      </trkpt>
      <trkpt lat="43.23799" lon="5.60586">
        <ele>419.7</ele>
        <time>2014-10-08T09:21:50Z</time>
      </trkpt>
      <trkpt lat="43.23801" lon="5.6059">
        <ele>419.6</ele>
        <time>2014-10-08T09:21:53Z</time>
      </trkpt>
      <trkpt lat="43.23803" lon="5.60594">
        <ele>419.6</ele>
        <time>2014-10-08T09:21:56Z</time>
      </trkpt>
      <trkpt lat="43.23804" lon="5.60599">
        <ele>419.5</ele>
        <time>2014-10-08T09:21:59Z</time>
      </trkpt>
      <trkpt lat="43.23805" lon="5.60604">
        <ele>419.6</ele>
        <time>2014-10-08T09:22:02Z</time>
      </trkpt>
      <trkpt lat="43.23806" lon="5.60609">
        <ele>419.1</ele>
        <time>2014-10-08T09:22:05Z</time>
      </trkpt>
      <trkpt lat="43.23808" lon="5.60613">
        <ele>418.5</ele>
        <time>2014-10-08T09:22:08Z</time>
      </trkpt>
      <trkpt lat="43.2381" lon="5.60617">
        <ele>418.2</ele>
        <time>2014-10-08T09:22:11Z</time>
      </trkpt>
      <trkpt lat="43.23812" lon="5.60622">
        <ele>418.2</ele>
        <time>2014-10-08T09:22:14Z</time>
      </trkpt>
      <trkpt lat="43.23815" lon="5.60626">
        <ele>418</ele>
        <time>2014-10-08T09:22:17Z</time>
      </trkpt>
      <trkpt lat="43.23818" lon="5.60629">
        <ele>418.5</ele>
        <time>2014-10-08T09:22:20Z</time>
      </trkpt>
      <trkpt lat="43.2382" lon="5.60633">
        <ele>417.8</ele>
        <time>2014-10-08T09:22:23Z</time>
      </trkpt>
      <trkpt lat="43.23823" lon="5.60636">
        <ele>417.2</ele>
        <time>2014-10-08T09:22:26Z</time>
      </trkpt>
      <trkpt lat="43.23826" lon="5.60639">
        <ele>416.8</ele>
        <time>2014-10-08T09:22:29Z</time>
      </trkpt>
      <trkpt lat="43.23827" lon="5.6064">
        <ele>416.5</ele>
        <time>2014-10-08T09:22:30Z</time>
      </trkpt>
      <trkpt lat="43.23831" lon="5.60645">
        <ele>416</ele>
        <time>2014-10-08T09:22:35Z</time>
      </trkpt>
      <trkpt lat="43.23834" lon="5.60647">
        <ele>415.5</ele>
        <time>2014-10-08T09:22:38Z</time>
      </trkpt>
      <trkpt lat="43.23837" lon="5.6065">
        <ele>415.2</ele>
        <time>2014-10-08T09:22:41Z</time>
      </trkpt>
      <trkpt lat="43.2384" lon="5.60654">
        <ele>415.6</ele>
        <time>2014-10-08T09:22:44Z</time>
      </trkpt>
      <trkpt lat="43.23842" lon="5.60658">
        <ele>415.7</ele>
        <time>2014-10-08T09:22:47Z</time>
      </trkpt>
      <trkpt lat="43.23845" lon="5.60662">
        <ele>416</ele>
        <time>2014-10-08T09:22:50Z</time>
      </trkpt>
      <trkpt lat="43.23847" lon="5.60666">
        <ele>416.3</ele>
        <time>2014-10-08T09:22:53Z</time>
      </trkpt>
      <trkpt lat="43.23849" lon="5.6067">
        <ele>416.6</ele>
        <time>2014-10-08T09:22:56Z</time>
      </trkpt>
      <trkpt lat="43.23851" lon="5.60673">
        <ele>416.7</ele>
        <time>2014-10-08T09:22:59Z</time>
      </trkpt>
      <trkpt lat="43.23853" lon="5.60679">
        <ele>417.2</ele>
        <time>2014-10-08T09:23:03Z</time>
      </trkpt>
      <trkpt lat="43.23855" lon="5.60684">
        <ele>417.1</ele>
        <time>2014-10-08T09:23:07Z</time>
      </trkpt>
      <trkpt lat="43.23857" lon="5.60688">
        <ele>416.7</ele>
        <time>2014-10-08T09:23:10Z</time>
      </trkpt>
      <trkpt lat="43.23858" lon="5.60692">
        <ele>417</ele>
        <time>2014-10-08T09:23:13Z</time>
      </trkpt>
      <trkpt lat="43.2386" lon="5.60696">
        <ele>417.2</ele>
        <time>2014-10-08T09:23:16Z</time>
      </trkpt>
      <trkpt lat="43.23861" lon="5.60701">
        <ele>417.6</ele>
        <time>2014-10-08T09:23:19Z</time>
      </trkpt>
      <trkpt lat="43.23863" lon="5.60705">
        <ele>417.7</ele>
        <time>2014-10-08T09:23:22Z</time>
      </trkpt>
      <trkpt lat="43.23865" lon="5.60709">
        <ele>417.3</ele>
        <time>2014-10-08T09:23:25Z</time>
      </trkpt>
      <trkpt lat="43.23867" lon="5.60713">
        <ele>417.7</ele>
        <time>2014-10-08T09:23:28Z</time>
      </trkpt>
      <trkpt lat="43.23869" lon="5.60718">
        <ele>418.2</ele>
        <time>2014-10-08T09:23:31Z</time>
      </trkpt>
      <trkpt lat="43.23869" lon="5.60719">
        <ele>418.1</ele>
        <time>2014-10-08T09:23:32Z</time>
      </trkpt>
      <trkpt lat="43.23873" lon="5.60726">
        <ele>419</ele>
        <time>2014-10-08T09:23:37Z</time>
      </trkpt>
      <trkpt lat="43.23874" lon="5.6073">
        <ele>418.6</ele>
        <time>2014-10-08T09:23:40Z</time>
      </trkpt>
      <trkpt lat="43.23877" lon="5.60734">
        <ele>418</ele>
        <time>2014-10-08T09:23:43Z</time>
      </trkpt>
      <trkpt lat="43.23879" lon="5.60738">
        <ele>417.2</ele>
        <time>2014-10-08T09:23:46Z</time>
      </trkpt>
      <trkpt lat="43.23882" lon="5.60743">
        <ele>416.7</ele>
        <time>2014-10-08T09:23:50Z</time>
      </trkpt>
      <trkpt lat="43.23884" lon="5.60745">
        <ele>416.7</ele>
        <time>2014-10-08T09:23:52Z</time>
      </trkpt>
      <trkpt lat="43.23888" lon="5.60748">
        <ele>416.7</ele>
        <time>2014-10-08T09:23:55Z</time>
      </trkpt>
      <trkpt lat="43.23891" lon="5.60749">
        <ele>416.8</ele>
        <time>2014-10-08T09:23:58Z</time>
      </trkpt>
      <trkpt lat="43.23894" lon="5.60751">
        <ele>416.7</ele>
        <time>2014-10-08T09:24:01Z</time>
      </trkpt>
      <trkpt lat="43.23897" lon="5.60753">
        <ele>417.7</ele>
        <time>2014-10-08T09:24:04Z</time>
      </trkpt>
      <trkpt lat="43.23902" lon="5.60755">
        <ele>417.2</ele>
        <time>2014-10-08T09:24:08Z</time>
      </trkpt>
      <trkpt lat="43.23906" lon="5.60756">
        <ele>417.5</ele>
        <time>2014-10-08T09:24:12Z</time>
      </trkpt>
      <trkpt lat="43.2391" lon="5.60758">
        <ele>417.5</ele>
        <time>2014-10-08T09:24:16Z</time>
      </trkpt>
      <trkpt lat="43.23914" lon="5.6076">
        <ele>417.7</ele>
        <time>2014-10-08T09:24:20Z</time>
      </trkpt>
      <trkpt lat="43.23918" lon="5.60761">
        <ele>419.2</ele>
        <time>2014-10-08T09:24:24Z</time>
      </trkpt>
      <trkpt lat="43.23922" lon="5.60762">
        <ele>419.1</ele>
        <time>2014-10-08T09:24:28Z</time>
      </trkpt>
      <trkpt lat="43.23926" lon="5.60763">
        <ele>418</ele>
        <time>2014-10-08T09:24:32Z</time>
      </trkpt>
      <trkpt lat="43.23927" lon="5.60763">
        <ele>418.2</ele>
        <time>2014-10-08T09:24:33Z</time>
      </trkpt>
      <trkpt lat="43.23934" lon="5.60766">
        <ele>420.6</ele>
        <time>2014-10-08T09:24:40Z</time>
      </trkpt>
      <trkpt lat="43.23937" lon="5.60766">
        <ele>419.2</ele>
        <time>2014-10-08T09:24:43Z</time>
      </trkpt>
      <trkpt lat="43.23941" lon="5.60767">
        <ele>418</ele>
        <time>2014-10-08T09:24:47Z</time>
      </trkpt>
      <trkpt lat="43.23945" lon="5.6077">
        <ele>419.2</ele>
        <time>2014-10-08T09:24:51Z</time>
      </trkpt>
      <trkpt lat="43.23949" lon="5.60772">
        <ele>420.7</ele>
        <time>2014-10-08T09:24:55Z</time>
      </trkpt>
      <trkpt lat="43.23952" lon="5.60774">
        <ele>421.8</ele>
        <time>2014-10-08T09:24:59Z</time>
      </trkpt>
      <trkpt lat="43.23956" lon="5.60776">
        <ele>423.6</ele>
        <time>2014-10-08T09:25:03Z</time>
      </trkpt>
      <trkpt lat="43.23959" lon="5.60779">
        <ele>426.1</ele>
        <time>2014-10-08T09:25:07Z</time>
      </trkpt>
      <trkpt lat="43.23963" lon="5.6078">
        <ele>425.7</ele>
        <time>2014-10-08T09:25:11Z</time>
      </trkpt>
      <trkpt lat="43.23966" lon="5.60782">
        <ele>426.2</ele>
        <time>2014-10-08T09:25:15Z</time>
      </trkpt>
      <trkpt lat="43.23969" lon="5.60784">
        <ele>425.5</ele>
        <time>2014-10-08T09:25:19Z</time>
      </trkpt>
      <trkpt lat="43.23973" lon="5.60787">
        <ele>424</ele>
        <time>2014-10-08T09:25:24Z</time>
      </trkpt>
      <trkpt lat="43.23976" lon="5.6079">
        <ele>423.8</ele>
        <time>2014-10-08T09:25:28Z</time>
      </trkpt>
      <trkpt lat="43.2398" lon="5.60792">
        <ele>424.2</ele>
        <time>2014-10-08T09:25:32Z</time>
      </trkpt>
      <trkpt lat="43.23983" lon="5.60796">
        <ele>424.6</ele>
        <time>2014-10-08T09:25:36Z</time>
      </trkpt>
      <trkpt lat="43.23983" lon="5.60797">
        <ele>424.7</ele>
        <time>2014-10-08T09:25:37Z</time>
      </trkpt>
      <trkpt lat="43.23989" lon="5.60804">
        <ele>425.2</ele>
        <time>2014-10-08T09:25:46Z</time>
      </trkpt>
      <trkpt lat="43.23992" lon="5.60807">
        <ele>426</ele>
        <time>2014-10-08T09:25:50Z</time>
      </trkpt>
      <trkpt lat="43.23995" lon="5.6081">
        <ele>426.3</ele>
        <time>2014-10-08T09:25:54Z</time>
      </trkpt>
      <trkpt lat="43.23998" lon="5.60813">
        <ele>426.1</ele>
        <time>2014-10-08T09:25:59Z</time>
      </trkpt>
      <trkpt lat="43.24002" lon="5.60817">
        <ele>426.7</ele>
        <time>2014-10-08T09:26:04Z</time>
      </trkpt>
      <trkpt lat="43.24005" lon="5.60821">
        <ele>427.5</ele>
        <time>2014-10-08T09:26:09Z</time>
      </trkpt>
      <trkpt lat="43.24007" lon="5.60825">
        <ele>428.8</ele>
        <time>2014-10-08T09:26:13Z</time>
      </trkpt>
      <trkpt lat="43.24009" lon="5.6083">
        <ele>430.2</ele>
        <time>2014-10-08T09:26:20Z</time>
      </trkpt>
      <trkpt lat="43.24011" lon="5.60825">
        <ele>433.1</ele>
        <time>2014-10-08T09:26:31Z</time>
      </trkpt>
      <trkpt lat="43.24009" lon="5.6082">
        <ele>432</ele>
        <time>2014-10-08T09:26:38Z</time>
      </trkpt>
      <trkpt lat="43.24009" lon="5.60819">
        <ele>431.7</ele>
        <time>2014-10-08T09:26:39Z</time>
      </trkpt>
      <trkpt lat="43.24008" lon="5.60808">
        <ele>432.6</ele>
        <time>2014-10-08T09:26:51Z</time>
      </trkpt>
      <trkpt lat="43.24009" lon="5.60803">
        <ele>432.7</ele>
        <time>2014-10-08T09:26:56Z</time>
      </trkpt>
      <trkpt lat="43.2401" lon="5.60798">
        <ele>432.6</ele>
        <time>2014-10-08T09:27:00Z</time>
      </trkpt>
      <trkpt lat="43.24011" lon="5.60792">
        <ele>432</ele>
        <time>2014-10-08T09:27:05Z</time>
      </trkpt>
      <trkpt lat="43.24014" lon="5.60787">
        <ele>429.6</ele>
        <time>2014-10-08T09:27:17Z</time>
      </trkpt>
      <trkpt lat="43.24018" lon="5.60789">
        <ele>429.6</ele>
        <time>2014-10-08T09:27:25Z</time>
      </trkpt>
      <trkpt lat="43.24021" lon="5.60784">
        <ele>427.6</ele>
        <time>2014-10-08T09:27:49Z</time>
      </trkpt>
      <trkpt lat="43.24021" lon="5.60784">
        <ele>427.1</ele>
        <time>2014-10-08T09:27:50Z</time>
      </trkpt>
      <trkpt lat="43.24016" lon="5.60778">
        <ele>428.2</ele>
        <time>2014-10-08T09:28:22Z</time>
      </trkpt>
      <trkpt lat="43.24014" lon="5.60773">
        <ele>426</ele>
        <time>2014-10-08T09:28:30Z</time>
      </trkpt>
      <trkpt lat="43.24011" lon="5.60769">
        <ele>425.3</ele>
        <time>2014-10-08T09:28:39Z</time>
      </trkpt>
      <trkpt lat="43.24009" lon="5.60765">
        <ele>424.6</ele>
        <time>2014-10-08T09:28:47Z</time>
      </trkpt>
      <trkpt lat="43.24006" lon="5.60761">
        <ele>425.5</ele>
        <time>2014-10-08T09:28:52Z</time>
      </trkpt>
      <trkpt lat="43.24005" lon="5.60761">
        <ele>425.6</ele>
        <time>2014-10-08T09:28:53Z</time>
      </trkpt>
    </trkseg>
  </trk>
  <trk>
    <name><![CDATA[Cabanon des Marquis_5]]></name>
    <trkseg>
      <trkpt lat="43.24203" lon="5.63643">
        <ele>519.9</ele>
        <time>2014-10-08T12:08:32Z</time>
      </trkpt>
      <trkpt lat="43.24202" lon="5.63644">
        <ele>519.7</ele>
        <time>2014-10-08T12:08:33Z</time>
      </trkpt>
      <trkpt lat="43.24197" lon="5.63648">
        <ele>517</ele>
        <time>2014-10-08T12:08:38Z</time>
      </trkpt>
      <trkpt lat="43.24193" lon="5.63651">
        <ele>516</ele>
        <time>2014-10-08T12:08:41Z</time>
      </trkpt>
      <trkpt lat="43.24189" lon="5.63653">
        <ele>517.5</ele>
        <time>2014-10-08T12:08:45Z</time>
      </trkpt>
      <trkpt lat="43.24185" lon="5.63656">
        <ele>517.4</ele>
        <time>2014-10-08T12:08:49Z</time>
      </trkpt>
      <trkpt lat="43.24181" lon="5.63658">
        <ele>518.7</ele>
        <time>2014-10-08T12:08:53Z</time>
      </trkpt>
      <trkpt lat="43.24179" lon="5.63662">
        <ele>518</ele>
        <time>2014-10-08T12:08:56Z</time>
      </trkpt>
      <trkpt lat="43.24176" lon="5.63666">
        <ele>517.9</ele>
        <time>2014-10-08T12:08:59Z</time>
      </trkpt>
      <trkpt lat="43.24172" lon="5.6367">
        <ele>518.9</ele>
        <time>2014-10-08T12:09:03Z</time>
      </trkpt>
      <trkpt lat="43.24169" lon="5.63673">
        <ele>519.5</ele>
        <time>2014-10-08T12:09:07Z</time>
      </trkpt>
      <trkpt lat="43.24166" lon="5.63676">
        <ele>519.5</ele>
        <time>2014-10-08T12:09:10Z</time>
      </trkpt>
      <trkpt lat="43.24163" lon="5.6368">
        <ele>520.2</ele>
        <time>2014-10-08T12:09:13Z</time>
      </trkpt>
      <trkpt lat="43.2416" lon="5.63683">
        <ele>520</ele>
        <time>2014-10-08T12:09:16Z</time>
      </trkpt>
      <trkpt lat="43.24157" lon="5.63686">
        <ele>519.5</ele>
        <time>2014-10-08T12:09:19Z</time>
      </trkpt>
      <trkpt lat="43.24154" lon="5.63689">
        <ele>520.2</ele>
        <time>2014-10-08T12:09:22Z</time>
      </trkpt>
      <trkpt lat="43.24151" lon="5.63692">
        <ele>520.7</ele>
        <time>2014-10-08T12:09:25Z</time>
      </trkpt>
      <trkpt lat="43.24148" lon="5.63695">
        <ele>520</ele>
        <time>2014-10-08T12:09:28Z</time>
      </trkpt>
      <trkpt lat="43.24145" lon="5.63699">
        <ele>519.4</ele>
        <time>2014-10-08T12:09:31Z</time>
      </trkpt>
      <trkpt lat="43.24142" lon="5.63702">
        <ele>519</ele>
        <time>2014-10-08T12:09:34Z</time>
      </trkpt>
      <trkpt lat="43.24141" lon="5.63703">
        <ele>519</ele>
        <time>2014-10-08T12:09:35Z</time>
      </trkpt>
      <trkpt lat="43.24135" lon="5.63709">
        <ele>519.2</ele>
        <time>2014-10-08T12:09:41Z</time>
      </trkpt>
      <trkpt lat="43.24132" lon="5.63712">
        <ele>519.4</ele>
        <time>2014-10-08T12:09:44Z</time>
      </trkpt>
      <trkpt lat="43.24128" lon="5.63715">
        <ele>521</ele>
        <time>2014-10-08T12:09:48Z</time>
      </trkpt>
      <trkpt lat="43.24125" lon="5.63717">
        <ele>522.5</ele>
        <time>2014-10-08T12:09:51Z</time>
      </trkpt>
      <trkpt lat="43.24122" lon="5.63719">
        <ele>523</ele>
        <time>2014-10-08T12:09:54Z</time>
      </trkpt>
      <trkpt lat="43.24118" lon="5.63721">
        <ele>523.5</ele>
        <time>2014-10-08T12:09:57Z</time>
      </trkpt>
      <trkpt lat="43.24115" lon="5.63723">
        <ele>523.4</ele>
        <time>2014-10-08T12:10:00Z</time>
      </trkpt>
      <trkpt lat="43.24111" lon="5.63725">
        <ele>522.7</ele>
        <time>2014-10-08T12:10:03Z</time>
      </trkpt>
      <trkpt lat="43.24108" lon="5.63727">
        <ele>522.5</ele>
        <time>2014-10-08T12:10:06Z</time>
      </trkpt>
      <trkpt lat="43.24105" lon="5.63729">
        <ele>522.7</ele>
        <time>2014-10-08T12:10:09Z</time>
      </trkpt>
      <trkpt lat="43.24102" lon="5.63731">
        <ele>522.7</ele>
        <time>2014-10-08T12:10:12Z</time>
      </trkpt>
      <trkpt lat="43.24098" lon="5.63733">
        <ele>522.7</ele>
        <time>2014-10-08T12:10:15Z</time>
      </trkpt>
      <trkpt lat="43.24095" lon="5.63735">
        <ele>522.7</ele>
        <time>2014-10-08T12:10:18Z</time>
      </trkpt>
      <trkpt lat="43.24092" lon="5.63738">
        <ele>521.7</ele>
        <time>2014-10-08T12:10:21Z</time>
      </trkpt>
      <trkpt lat="43.24089" lon="5.63741">
        <ele>521.2</ele>
        <time>2014-10-08T12:10:24Z</time>
      </trkpt>
      <trkpt lat="43.24085" lon="5.63743">
        <ele>521.2</ele>
        <time>2014-10-08T12:10:27Z</time>
      </trkpt>
      <trkpt lat="43.24082" lon="5.63746">
        <ele>521.4</ele>
        <time>2014-10-08T12:10:30Z</time>
      </trkpt>
      <trkpt lat="43.24079" lon="5.6375">
        <ele>521.5</ele>
        <time>2014-10-08T12:10:34Z</time>
      </trkpt>
      <trkpt lat="43.24077" lon="5.63753">
        <ele>520.7</ele>
        <time>2014-10-08T12:10:37Z</time>
      </trkpt>
      <trkpt lat="43.24076" lon="5.63754">
        <ele>520.2</ele>
        <time>2014-10-08T12:10:38Z</time>
      </trkpt>
      <trkpt lat="43.24071" lon="5.6376">
        <ele>520</ele>
        <time>2014-10-08T12:10:44Z</time>
      </trkpt>
      <trkpt lat="43.24069" lon="5.63765">
        <ele>519.9</ele>
        <time>2014-10-08T12:10:48Z</time>
      </trkpt>
      <trkpt lat="43.24067" lon="5.63769">
        <ele>519.5</ele>
        <time>2014-10-08T12:10:51Z</time>
      </trkpt>
      <trkpt lat="43.24065" lon="5.63774">
        <ele>517.5</ele>
        <time>2014-10-08T12:10:54Z</time>
      </trkpt>
      <trkpt lat="43.24063" lon="5.63778">
        <ele>516.5</ele>
        <time>2014-10-08T12:10:57Z</time>
      </trkpt>
      <trkpt lat="43.24061" lon="5.63783">
        <ele>515.2</ele>
        <time>2014-10-08T12:11:00Z</time>
      </trkpt>
      <trkpt lat="43.24058" lon="5.63787">
        <ele>513.5</ele>
        <time>2014-10-08T12:11:03Z</time>
      </trkpt>
      <trkpt lat="43.24057" lon="5.63792">
        <ele>512</ele>
        <time>2014-10-08T12:11:06Z</time>
      </trkpt>
      <trkpt lat="43.24055" lon="5.63798">
        <ele>511.7</ele>
        <time>2014-10-08T12:11:10Z</time>
      </trkpt>
      <trkpt lat="43.24053" lon="5.63803">
        <ele>511.3</ele>
        <time>2014-10-08T12:11:14Z</time>
      </trkpt>
      <trkpt lat="43.24052" lon="5.63808">
        <ele>510.2</ele>
        <time>2014-10-08T12:11:17Z</time>
      </trkpt>
      <trkpt lat="43.2405" lon="5.63813">
        <ele>509.1</ele>
        <time>2014-10-08T12:11:20Z</time>
      </trkpt>
      <trkpt lat="43.24048" lon="5.63818">
        <ele>508.7</ele>
        <time>2014-10-08T12:11:24Z</time>
      </trkpt>
      <trkpt lat="43.24045" lon="5.63822">
        <ele>509.3</ele>
        <time>2014-10-08T12:11:28Z</time>
      </trkpt>
      <trkpt lat="43.24044" lon="5.63827">
        <ele>508.6</ele>
        <time>2014-10-08T12:11:32Z</time>
      </trkpt>
      <trkpt lat="43.24042" lon="5.63831">
        <ele>509.7</ele>
        <time>2014-10-08T12:11:35Z</time>
      </trkpt>
      <trkpt lat="43.2404" lon="5.63836">
        <ele>509.6</ele>
        <time>2014-10-08T12:11:38Z</time>
      </trkpt>
      <trkpt lat="43.2404" lon="5.63838">
        <ele>509.3</ele>
        <time>2014-10-08T12:11:39Z</time>
      </trkpt>
      <trkpt lat="43.24039" lon="5.63846">
        <ele>508.5</ele>
        <time>2014-10-08T12:11:44Z</time>
      </trkpt>
      <trkpt lat="43.24039" lon="5.63851">
        <ele>508.2</ele>
        <time>2014-10-08T12:11:46Z</time>
      </trkpt>
      <trkpt lat="43.24038" lon="5.63856">
        <ele>507.7</ele>
        <time>2014-10-08T12:11:49Z</time>
      </trkpt>
      <trkpt lat="43.24037" lon="5.63862">
        <ele>506.8</ele>
        <time>2014-10-08T12:11:52Z</time>
      </trkpt>
      <trkpt lat="43.24036" lon="5.63867">
        <ele>506</ele>
        <time>2014-10-08T12:11:55Z</time>
      </trkpt>
      <trkpt lat="43.24036" lon="5.63872">
        <ele>506.1</ele>
        <time>2014-10-08T12:11:58Z</time>
      </trkpt>
      <trkpt lat="43.24036" lon="5.63878">
        <ele>506.2</ele>
        <time>2014-10-08T12:12:02Z</time>
      </trkpt>
      <trkpt lat="43.24035" lon="5.63883">
        <ele>505.3</ele>
        <time>2014-10-08T12:12:05Z</time>
      </trkpt>
      <trkpt lat="43.24035" lon="5.63889">
        <ele>504.2</ele>
        <time>2014-10-08T12:12:08Z</time>
      </trkpt>
      <trkpt lat="43.24035" lon="5.63894">
        <ele>504.2</ele>
        <time>2014-10-08T12:12:11Z</time>
      </trkpt>
      <trkpt lat="43.24035" lon="5.639">
        <ele>504.1</ele>
        <time>2014-10-08T12:12:14Z</time>
      </trkpt>
      <trkpt lat="43.24034" lon="5.63905">
        <ele>503.3</ele>
        <time>2014-10-08T12:12:17Z</time>
      </trkpt>
      <trkpt lat="43.24034" lon="5.6391">
        <ele>503.2</ele>
        <time>2014-10-08T12:12:20Z</time>
      </trkpt>
      <trkpt lat="43.24033" lon="5.63916">
        <ele>502.3</ele>
        <time>2014-10-08T12:12:24Z</time>
      </trkpt>
      <trkpt lat="43.24032" lon="5.63922">
        <ele>502.7</ele>
        <time>2014-10-08T12:12:28Z</time>
      </trkpt>
      <trkpt lat="43.24032" lon="5.63927">
        <ele>502.3</ele>
        <time>2014-10-08T12:12:31Z</time>
      </trkpt>
      <trkpt lat="43.24031" lon="5.63933">
        <ele>501.2</ele>
        <time>2014-10-08T12:12:35Z</time>
      </trkpt>
      <trkpt lat="43.2403" lon="5.63938">
        <ele>501.6</ele>
        <time>2014-10-08T12:12:39Z</time>
      </trkpt>
      <trkpt lat="43.24029" lon="5.63939">
        <ele>501.2</ele>
        <time>2014-10-08T12:12:40Z</time>
      </trkpt>
      <trkpt lat="43.24027" lon="5.63949">
        <ele>499</ele>
        <time>2014-10-08T12:12:47Z</time>
      </trkpt>
      <trkpt lat="43.24026" lon="5.63953">
        <ele>498.6</ele>
        <time>2014-10-08T12:12:49Z</time>
      </trkpt>
      <trkpt lat="43.24025" lon="5.63958">
        <ele>499.2</ele>
        <time>2014-10-08T12:12:52Z</time>
      </trkpt>
      <trkpt lat="43.24025" lon="5.63963">
        <ele>498.7</ele>
        <time>2014-10-08T12:12:55Z</time>
      </trkpt>
      <trkpt lat="43.24025" lon="5.63969">
        <ele>498.2</ele>
        <time>2014-10-08T12:12:59Z</time>
      </trkpt>
      <trkpt lat="43.24024" lon="5.63975">
        <ele>498.1</ele>
        <time>2014-10-08T12:13:02Z</time>
      </trkpt>
      <trkpt lat="43.24024" lon="5.63981">
        <ele>498.2</ele>
        <time>2014-10-08T12:13:06Z</time>
      </trkpt>
      <trkpt lat="43.24023" lon="5.63986">
        <ele>498.3</ele>
        <time>2014-10-08T12:13:09Z</time>
      </trkpt>
      <trkpt lat="43.24022" lon="5.63992">
        <ele>498.5</ele>
        <time>2014-10-08T12:13:13Z</time>
      </trkpt>
      <trkpt lat="43.24021" lon="5.63997">
        <ele>498.1</ele>
        <time>2014-10-08T12:13:16Z</time>
      </trkpt>
      <trkpt lat="43.2402" lon="5.64001">
        <ele>498.5</ele>
        <time>2014-10-08T12:13:19Z</time>
      </trkpt>
      <trkpt lat="43.24018" lon="5.64005">
        <ele>498.7</ele>
        <time>2014-10-08T12:13:21Z</time>
      </trkpt>
      <trkpt lat="43.24017" lon="5.6401">
        <ele>498.3</ele>
        <time>2014-10-08T12:13:23Z</time>
      </trkpt>
      <trkpt lat="43.24016" lon="5.64015">
        <ele>497.1</ele>
        <time>2014-10-08T12:13:26Z</time>
      </trkpt>
      <trkpt lat="43.24015" lon="5.6402">
        <ele>496.7</ele>
        <time>2014-10-08T12:13:29Z</time>
      </trkpt>
      <trkpt lat="43.24014" lon="5.64025">
        <ele>495.1</ele>
        <time>2014-10-08T12:13:33Z</time>
      </trkpt>
      <trkpt lat="43.24013" lon="5.64031">
        <ele>495.2</ele>
        <time>2014-10-08T12:13:36Z</time>
      </trkpt>
      <trkpt lat="43.24011" lon="5.64035">
        <ele>495.5</ele>
        <time>2014-10-08T12:13:39Z</time>
      </trkpt>
      <trkpt lat="43.24011" lon="5.64036">
        <ele>495.5</ele>
        <time>2014-10-08T12:13:40Z</time>
      </trkpt>
      <trkpt lat="43.24008" lon="5.64045">
        <ele>495.7</ele>
        <time>2014-10-08T12:13:46Z</time>
      </trkpt>
      <trkpt lat="43.24006" lon="5.6405">
        <ele>495.7</ele>
        <time>2014-10-08T12:13:49Z</time>
      </trkpt>
      <trkpt lat="43.24003" lon="5.64055">
        <ele>495.6</ele>
        <time>2014-10-08T12:13:52Z</time>
      </trkpt>
      <trkpt lat="43.24001" lon="5.64059">
        <ele>494.7</ele>
        <time>2014-10-08T12:13:56Z</time>
      </trkpt>
      <trkpt lat="43.24" lon="5.64064">
        <ele>493</ele>
        <time>2014-10-08T12:13:59Z</time>
      </trkpt>
      <trkpt lat="43.23999" lon="5.64068">
        <ele>493.2</ele>
        <time>2014-10-08T12:14:02Z</time>
      </trkpt>
      <trkpt lat="43.23997" lon="5.64073">
        <ele>492.6</ele>
        <time>2014-10-08T12:14:05Z</time>
      </trkpt>
      <trkpt lat="43.23995" lon="5.64078">
        <ele>491.6</ele>
        <time>2014-10-08T12:14:08Z</time>
      </trkpt>
      <trkpt lat="43.23993" lon="5.64083">
        <ele>489.7</ele>
        <time>2014-10-08T12:14:12Z</time>
      </trkpt>
      <trkpt lat="43.23991" lon="5.64088">
        <ele>488.7</ele>
        <time>2014-10-08T12:14:15Z</time>
      </trkpt>
      <trkpt lat="43.2399" lon="5.64092">
        <ele>488.2</ele>
        <time>2014-10-08T12:14:18Z</time>
      </trkpt>
      <trkpt lat="43.23988" lon="5.64096">
        <ele>488.3</ele>
        <time>2014-10-08T12:14:21Z</time>
      </trkpt>
      <trkpt lat="43.23987" lon="5.64102">
        <ele>487.1</ele>
        <time>2014-10-08T12:14:25Z</time>
      </trkpt>
      <trkpt lat="43.23985" lon="5.64106">
        <ele>486.8</ele>
        <time>2014-10-08T12:14:28Z</time>
      </trkpt>
      <trkpt lat="43.23983" lon="5.64111">
        <ele>485.7</ele>
        <time>2014-10-08T12:14:32Z</time>
      </trkpt>
      <trkpt lat="43.23981" lon="5.64116">
        <ele>485.1</ele>
        <time>2014-10-08T12:14:36Z</time>
      </trkpt>
      <trkpt lat="43.23979" lon="5.64121">
        <ele>484.2</ele>
        <time>2014-10-08T12:14:39Z</time>
      </trkpt>
      <trkpt lat="43.23977" lon="5.64125">
        <ele>483.6</ele>
        <time>2014-10-08T12:14:42Z</time>
      </trkpt>
      <trkpt lat="43.23977" lon="5.64127">
        <ele>484</ele>
        <time>2014-10-08T12:14:43Z</time>
      </trkpt>
      <trkpt lat="43.23973" lon="5.64135">
        <ele>484.8</ele>
        <time>2014-10-08T12:14:48Z</time>
      </trkpt>
      <trkpt lat="43.23971" lon="5.6414">
        <ele>485.7</ele>
        <time>2014-10-08T12:14:51Z</time>
      </trkpt>
      <trkpt lat="43.23969" lon="5.64145">
        <ele>484.8</ele>
        <time>2014-10-08T12:14:54Z</time>
      </trkpt>
      <trkpt lat="43.23967" lon="5.6415">
        <ele>484.2</ele>
        <time>2014-10-08T12:14:57Z</time>
      </trkpt>
      <trkpt lat="43.23966" lon="5.64155">
        <ele>483.5</ele>
        <time>2014-10-08T12:15:00Z</time>
      </trkpt>
      <trkpt lat="43.23965" lon="5.6416">
        <ele>483.7</ele>
        <time>2014-10-08T12:15:03Z</time>
      </trkpt>
      <trkpt lat="43.23965" lon="5.64164">
        <ele>484.6</ele>
        <time>2014-10-08T12:15:06Z</time>
      </trkpt>
      <trkpt lat="43.23963" lon="5.6417">
        <ele>485.6</ele>
        <time>2014-10-08T12:15:09Z</time>
      </trkpt>
      <trkpt lat="43.23962" lon="5.64176">
        <ele>486.6</ele>
        <time>2014-10-08T12:15:12Z</time>
      </trkpt>
      <trkpt lat="43.2396" lon="5.64181">
        <ele>487.7</ele>
        <time>2014-10-08T12:15:15Z</time>
      </trkpt>
      <trkpt lat="43.23959" lon="5.64186">
        <ele>488.2</ele>
        <time>2014-10-08T12:15:18Z</time>
      </trkpt>
      <trkpt lat="43.23959" lon="5.64191">
        <ele>488.6</ele>
        <time>2014-10-08T12:15:21Z</time>
      </trkpt>
      <trkpt lat="43.23958" lon="5.64197">
        <ele>488.7</ele>
        <time>2014-10-08T12:15:24Z</time>
      </trkpt>
      <trkpt lat="43.23958" lon="5.64202">
        <ele>488.8</ele>
        <time>2014-10-08T12:15:27Z</time>
      </trkpt>
      <trkpt lat="43.23958" lon="5.64208">
        <ele>489</ele>
        <time>2014-10-08T12:15:30Z</time>
      </trkpt>
      <trkpt lat="43.23959" lon="5.64214">
        <ele>488.7</ele>
        <time>2014-10-08T12:15:33Z</time>
      </trkpt>
      <trkpt lat="43.2396" lon="5.64219">
        <ele>488.3</ele>
        <time>2014-10-08T12:15:36Z</time>
      </trkpt>
      <trkpt lat="43.23961" lon="5.64224">
        <ele>488.2</ele>
        <time>2014-10-08T12:15:39Z</time>
      </trkpt>
      <trkpt lat="43.23962" lon="5.64229">
        <ele>488.5</ele>
        <time>2014-10-08T12:15:42Z</time>
      </trkpt>
      <trkpt lat="43.23962" lon="5.64235">
        <ele>488.2</ele>
        <time>2014-10-08T12:15:45Z</time>
      </trkpt>
      <trkpt lat="43.23963" lon="5.64237">
        <ele>488.2</ele>
        <time>2014-10-08T12:15:46Z</time>
      </trkpt>
      <trkpt lat="43.23964" lon="5.64245">
        <ele>488</ele>
        <time>2014-10-08T12:15:51Z</time>
      </trkpt>
      <trkpt lat="43.23966" lon="5.6425">
        <ele>487.6</ele>
        <time>2014-10-08T12:15:54Z</time>
      </trkpt>
      <trkpt lat="43.23967" lon="5.64255">
        <ele>487</ele>
        <time>2014-10-08T12:15:57Z</time>
      </trkpt>
      <trkpt lat="43.23968" lon="5.64259">
        <ele>487</ele>
        <time>2014-10-08T12:16:00Z</time>
      </trkpt>
      <trkpt lat="43.23969" lon="5.64264">
        <ele>486.2</ele>
        <time>2014-10-08T12:16:03Z</time>
      </trkpt>
      <trkpt lat="43.23971" lon="5.64268">
        <ele>486.2</ele>
        <time>2014-10-08T12:16:06Z</time>
      </trkpt>
      <trkpt lat="43.23973" lon="5.64272">
        <ele>487.1</ele>
        <time>2014-10-08T12:16:09Z</time>
      </trkpt>
      <trkpt lat="43.23975" lon="5.64277">
        <ele>487.7</ele>
        <time>2014-10-08T12:16:12Z</time>
      </trkpt>
      <trkpt lat="43.23976" lon="5.64281">
        <ele>488.5</ele>
        <time>2014-10-08T12:16:15Z</time>
      </trkpt>
      <trkpt lat="43.23975" lon="5.64287">
        <ele>488.2</ele>
        <time>2014-10-08T12:16:18Z</time>
      </trkpt>
      <trkpt lat="43.23976" lon="5.64293">
        <ele>489</ele>
        <time>2014-10-08T12:16:22Z</time>
      </trkpt>
      <trkpt lat="43.23977" lon="5.64298">
        <ele>490.6</ele>
        <time>2014-10-08T12:16:26Z</time>
      </trkpt>
      <trkpt lat="43.23976" lon="5.64304">
        <ele>489.6</ele>
        <time>2014-10-08T12:16:29Z</time>
      </trkpt>
      <trkpt lat="43.23976" lon="5.64309">
        <ele>489.8</ele>
        <time>2014-10-08T12:16:32Z</time>
      </trkpt>
      <trkpt lat="43.23977" lon="5.64315">
        <ele>490.5</ele>
        <time>2014-10-08T12:16:36Z</time>
      </trkpt>
      <trkpt lat="43.23978" lon="5.6432">
        <ele>490.2</ele>
        <time>2014-10-08T12:16:39Z</time>
      </trkpt>
      <trkpt lat="43.23978" lon="5.64325">
        <ele>490.1</ele>
        <time>2014-10-08T12:16:42Z</time>
      </trkpt>
      <trkpt lat="43.23978" lon="5.6433">
        <ele>489.7</ele>
        <time>2014-10-08T12:16:45Z</time>
      </trkpt>
      <trkpt lat="43.23979" lon="5.64336">
        <ele>489.6</ele>
        <time>2014-10-08T12:16:49Z</time>
      </trkpt>
      <trkpt lat="43.23979" lon="5.64338">
        <ele>489.6</ele>
        <time>2014-10-08T12:16:50Z</time>
      </trkpt>
      <trkpt lat="43.23979" lon="5.64347">
        <ele>489.7</ele>
        <time>2014-10-08T12:16:56Z</time>
      </trkpt>
      <trkpt lat="43.23978" lon="5.64352">
        <ele>490.8</ele>
        <time>2014-10-08T12:16:59Z</time>
      </trkpt>
      <trkpt lat="43.23978" lon="5.64357">
        <ele>492.2</ele>
        <time>2014-10-08T12:17:02Z</time>
      </trkpt>
      <trkpt lat="43.23978" lon="5.64362">
        <ele>492.6</ele>
        <time>2014-10-08T12:17:06Z</time>
      </trkpt>
      <trkpt lat="43.23979" lon="5.64368">
        <ele>492</ele>
        <time>2014-10-08T12:17:09Z</time>
      </trkpt>
      <trkpt lat="43.23979" lon="5.64373">
        <ele>492.5</ele>
        <time>2014-10-08T12:17:12Z</time>
      </trkpt>
      <trkpt lat="43.23979" lon="5.64378">
        <ele>492.7</ele>
        <time>2014-10-08T12:17:15Z</time>
      </trkpt>
      <trkpt lat="43.2398" lon="5.64384">
        <ele>493.2</ele>
        <time>2014-10-08T12:17:19Z</time>
      </trkpt>
      <trkpt lat="43.2398" lon="5.6439">
        <ele>494.2</ele>
        <time>2014-10-08T12:17:23Z</time>
      </trkpt>
      <trkpt lat="43.23981" lon="5.64395">
        <ele>494.5</ele>
        <time>2014-10-08T12:17:26Z</time>
      </trkpt>
      <trkpt lat="43.23981" lon="5.644">
        <ele>494.7</ele>
        <time>2014-10-08T12:17:29Z</time>
      </trkpt>
      <trkpt lat="43.2398" lon="5.64406">
        <ele>494</ele>
        <time>2014-10-08T12:17:32Z</time>
      </trkpt>
      <trkpt lat="43.2398" lon="5.64411">
        <ele>493.8</ele>
        <time>2014-10-08T12:17:35Z</time>
      </trkpt>
      <trkpt lat="43.2398" lon="5.64417">
        <ele>493.5</ele>
        <time>2014-10-08T12:17:39Z</time>
      </trkpt>
      <trkpt lat="43.2398" lon="5.64423">
        <ele>493.2</ele>
        <time>2014-10-08T12:17:42Z</time>
      </trkpt>
      <trkpt lat="43.2398" lon="5.64428">
        <ele>492.7</ele>
        <time>2014-10-08T12:17:45Z</time>
      </trkpt>
      <trkpt lat="43.2398" lon="5.64433">
        <ele>492.3</ele>
        <time>2014-10-08T12:17:49Z</time>
      </trkpt>
      <trkpt lat="43.2398" lon="5.64438">
        <ele>491.8</ele>
        <time>2014-10-08T12:17:52Z</time>
      </trkpt>
      <trkpt lat="43.2398" lon="5.64439">
        <ele>491.7</ele>
        <time>2014-10-08T12:17:53Z</time>
      </trkpt>
      <trkpt lat="43.23982" lon="5.64448">
        <ele>490.3</ele>
        <time>2014-10-08T12:17:59Z</time>
      </trkpt>
      <trkpt lat="43.23984" lon="5.64454">
        <ele>489.5</ele>
        <time>2014-10-08T12:18:03Z</time>
      </trkpt>
      <trkpt lat="43.23985" lon="5.6446">
        <ele>488.6</ele>
        <time>2014-10-08T12:18:07Z</time>
      </trkpt>
      <trkpt lat="43.23988" lon="5.64464">
        <ele>487.2</ele>
        <time>2014-10-08T12:18:11Z</time>
      </trkpt>
      <trkpt lat="43.2399" lon="5.64469">
        <ele>485.7</ele>
        <time>2014-10-08T12:18:15Z</time>
      </trkpt>
      <trkpt lat="43.23994" lon="5.64472">
        <ele>484</ele>
        <time>2014-10-08T12:18:19Z</time>
      </trkpt>
      <trkpt lat="43.23996" lon="5.64478">
        <ele>481.3</ele>
        <time>2014-10-08T12:18:23Z</time>
      </trkpt>
      <trkpt lat="43.23998" lon="5.64482">
        <ele>479.6</ele>
        <time>2014-10-08T12:18:27Z</time>
      </trkpt>
      <trkpt lat="43.24002" lon="5.64484">
        <ele>478.2</ele>
        <time>2014-10-08T12:18:31Z</time>
      </trkpt>
      <trkpt lat="43.24004" lon="5.64489">
        <ele>476.2</ele>
        <time>2014-10-08T12:18:35Z</time>
      </trkpt>
      <trkpt lat="43.24007" lon="5.64493">
        <ele>475.8</ele>
        <time>2014-10-08T12:18:38Z</time>
      </trkpt>
      <trkpt lat="43.2401" lon="5.64496">
        <ele>475.2</ele>
        <time>2014-10-08T12:18:42Z</time>
      </trkpt>
      <trkpt lat="43.2401" lon="5.64502">
        <ele>475.5</ele>
        <time>2014-10-08T12:18:45Z</time>
      </trkpt>
      <trkpt lat="43.24011" lon="5.64506">
        <ele>475.8</ele>
        <time>2014-10-08T12:18:47Z</time>
      </trkpt>
      <trkpt lat="43.24012" lon="5.64512">
        <ele>476.2</ele>
        <time>2014-10-08T12:18:50Z</time>
      </trkpt>
      <trkpt lat="43.24013" lon="5.64517">
        <ele>477.3</ele>
        <time>2014-10-08T12:18:53Z</time>
      </trkpt>
      <trkpt lat="43.24013" lon="5.64519">
        <ele>477.6</ele>
        <time>2014-10-08T12:18:54Z</time>
      </trkpt>
      <trkpt lat="43.24013" lon="5.64528">
        <ele>478.7</ele>
        <time>2014-10-08T12:18:59Z</time>
      </trkpt>
      <trkpt lat="43.24013" lon="5.64534">
        <ele>479.8</ele>
        <time>2014-10-08T12:19:03Z</time>
      </trkpt>
      <trkpt lat="43.24011" lon="5.64538">
        <ele>482</ele>
        <time>2014-10-08T12:19:05Z</time>
      </trkpt>
      <trkpt lat="43.2401" lon="5.64543">
        <ele>483.1</ele>
        <time>2014-10-08T12:19:08Z</time>
      </trkpt>
      <trkpt lat="43.24008" lon="5.64549">
        <ele>483.8</ele>
        <time>2014-10-08T12:19:12Z</time>
      </trkpt>
      <trkpt lat="43.24007" lon="5.64553">
        <ele>485</ele>
        <time>2014-10-08T12:19:15Z</time>
      </trkpt>
      <trkpt lat="43.24005" lon="5.64558">
        <ele>484.5</ele>
        <time>2014-10-08T12:19:20Z</time>
      </trkpt>
      <trkpt lat="43.24002" lon="5.64562">
        <ele>485.3</ele>
        <time>2014-10-08T12:19:23Z</time>
      </trkpt>
      <trkpt lat="43.23999" lon="5.64565">
        <ele>486.3</ele>
        <time>2014-10-08T12:19:26Z</time>
      </trkpt>
      <trkpt lat="43.23996" lon="5.6457">
        <ele>486.7</ele>
        <time>2014-10-08T12:19:30Z</time>
      </trkpt>
      <trkpt lat="43.23994" lon="5.64573">
        <ele>485.7</ele>
        <time>2014-10-08T12:19:33Z</time>
      </trkpt>
      <trkpt lat="43.2399" lon="5.64577">
        <ele>485.6</ele>
        <time>2014-10-08T12:19:36Z</time>
      </trkpt>
      <trkpt lat="43.23987" lon="5.6458">
        <ele>486</ele>
        <time>2014-10-08T12:19:39Z</time>
      </trkpt>
      <trkpt lat="43.23984" lon="5.64582">
        <ele>488.3</ele>
        <time>2014-10-08T12:19:42Z</time>
      </trkpt>
      <trkpt lat="43.2398" lon="5.64585">
        <ele>489</ele>
        <time>2014-10-08T12:19:45Z</time>
      </trkpt>
      <trkpt lat="43.23977" lon="5.64589">
        <ele>489.3</ele>
        <time>2014-10-08T12:19:49Z</time>
      </trkpt>
      <trkpt lat="43.23974" lon="5.64593">
        <ele>489.2</ele>
        <time>2014-10-08T12:19:52Z</time>
      </trkpt>
      <trkpt lat="43.23971" lon="5.64596">
        <ele>489</ele>
        <time>2014-10-08T12:19:55Z</time>
      </trkpt>
      <trkpt lat="43.2397" lon="5.64598">
        <ele>489.1</ele>
        <time>2014-10-08T12:19:56Z</time>
      </trkpt>
      <trkpt lat="43.23966" lon="5.64604">
        <ele>487.8</ele>
        <time>2014-10-08T12:20:01Z</time>
      </trkpt>
      <trkpt lat="43.23964" lon="5.64608">
        <ele>487.3</ele>
        <time>2014-10-08T12:20:04Z</time>
      </trkpt>
      <trkpt lat="43.23961" lon="5.64611">
        <ele>487.2</ele>
        <time>2014-10-08T12:20:07Z</time>
      </trkpt>
      <trkpt lat="43.23959" lon="5.64616">
        <ele>486.1</ele>
        <time>2014-10-08T12:20:10Z</time>
      </trkpt>
      <trkpt lat="43.23956" lon="5.64619">
        <ele>486.2</ele>
        <time>2014-10-08T12:20:13Z</time>
      </trkpt>
      <trkpt lat="43.23953" lon="5.64622">
        <ele>486.2</ele>
        <time>2014-10-08T12:20:16Z</time>
      </trkpt>
      <trkpt lat="43.23949" lon="5.64626">
        <ele>486.3</ele>
        <time>2014-10-08T12:20:20Z</time>
      </trkpt>
      <trkpt lat="43.23946" lon="5.64629">
        <ele>486.2</ele>
        <time>2014-10-08T12:20:23Z</time>
      </trkpt>
      <trkpt lat="43.23944" lon="5.64631">
        <ele>486.2</ele>
        <time>2014-10-08T12:20:26Z</time>
      </trkpt>
      <trkpt lat="43.23941" lon="5.64635">
        <ele>486.2</ele>
        <time>2014-10-08T12:20:29Z</time>
      </trkpt>
      <trkpt lat="43.23938" lon="5.64638">
        <ele>486</ele>
        <time>2014-10-08T12:20:32Z</time>
      </trkpt>
      <trkpt lat="43.23935" lon="5.6464">
        <ele>486</ele>
        <time>2014-10-08T12:20:35Z</time>
      </trkpt>
      <trkpt lat="43.23932" lon="5.64643">
        <ele>486.5</ele>
        <time>2014-10-08T12:20:38Z</time>
      </trkpt>
      <trkpt lat="43.23929" lon="5.64646">
        <ele>485.8</ele>
        <time>2014-10-08T12:20:41Z</time>
      </trkpt>
      <trkpt lat="43.23926" lon="5.6465">
        <ele>484.3</ele>
        <time>2014-10-08T12:20:44Z</time>
      </trkpt>
      <trkpt lat="43.23923" lon="5.64655">
        <ele>483.5</ele>
        <time>2014-10-08T12:20:48Z</time>
      </trkpt>
      <trkpt lat="43.23921" lon="5.64658">
        <ele>483.5</ele>
        <time>2014-10-08T12:20:51Z</time>
      </trkpt>
      <trkpt lat="43.23918" lon="5.64662">
        <ele>483</ele>
        <time>2014-10-08T12:20:54Z</time>
      </trkpt>
      <trkpt lat="43.23916" lon="5.64665">
        <ele>483.1</ele>
        <time>2014-10-08T12:20:57Z</time>
      </trkpt>
      <trkpt lat="43.23915" lon="5.64667">
        <ele>483.3</ele>
        <time>2014-10-08T12:20:58Z</time>
      </trkpt>
      <trkpt lat="43.23911" lon="5.64672">
        <ele>483.2</ele>
        <time>2014-10-08T12:21:03Z</time>
      </trkpt>
      <trkpt lat="43.23908" lon="5.64676">
        <ele>482.8</ele>
        <time>2014-10-08T12:21:06Z</time>
      </trkpt>
      <trkpt lat="43.23905" lon="5.64679">
        <ele>483.2</ele>
        <time>2014-10-08T12:21:09Z</time>
      </trkpt>
      <trkpt lat="43.23901" lon="5.64682">
        <ele>483.7</ele>
        <time>2014-10-08T12:21:13Z</time>
      </trkpt>
      <trkpt lat="43.23898" lon="5.64686">
        <ele>484</ele>
        <time>2014-10-08T12:21:17Z</time>
      </trkpt>
      <trkpt lat="43.23895" lon="5.64688">
        <ele>484.5</ele>
        <time>2014-10-08T12:21:20Z</time>
      </trkpt>
      <trkpt lat="43.23891" lon="5.64692">
        <ele>483.7</ele>
        <time>2014-10-08T12:21:23Z</time>
      </trkpt>
      <trkpt lat="43.23888" lon="5.64695">
        <ele>483.5</ele>
        <time>2014-10-08T12:21:26Z</time>
      </trkpt>
      <trkpt lat="43.23886" lon="5.64698">
        <ele>482.7</ele>
        <time>2014-10-08T12:21:29Z</time>
      </trkpt>
      <trkpt lat="43.23882" lon="5.64702">
        <ele>482</ele>
        <time>2014-10-08T12:21:32Z</time>
      </trkpt>
      <trkpt lat="43.23879" lon="5.64706">
        <ele>481.7</ele>
        <time>2014-10-08T12:21:35Z</time>
      </trkpt>
      <trkpt lat="43.23876" lon="5.6471">
        <ele>481.6</ele>
        <time>2014-10-08T12:21:39Z</time>
      </trkpt>
      <trkpt lat="43.23873" lon="5.64713">
        <ele>481.5</ele>
        <time>2014-10-08T12:21:43Z</time>
      </trkpt>
      <trkpt lat="43.23869" lon="5.64717">
        <ele>481.3</ele>
        <time>2014-10-08T12:21:47Z</time>
      </trkpt>
      <trkpt lat="43.23866" lon="5.6472">
        <ele>481</ele>
        <time>2014-10-08T12:21:50Z</time>
      </trkpt>
      <trkpt lat="43.23863" lon="5.64724">
        <ele>480.7</ele>
        <time>2014-10-08T12:21:54Z</time>
      </trkpt>
      <trkpt lat="43.23861" lon="5.64728">
        <ele>480.7</ele>
        <time>2014-10-08T12:21:57Z</time>
      </trkpt>
      <trkpt lat="43.23859" lon="5.64732">
        <ele>479.8</ele>
        <time>2014-10-08T12:22:00Z</time>
      </trkpt>
      <trkpt lat="43.23858" lon="5.64734">
        <ele>479.5</ele>
        <time>2014-10-08T12:22:01Z</time>
      </trkpt>
      <trkpt lat="43.23854" lon="5.64742">
        <ele>478.2</ele>
        <time>2014-10-08T12:22:07Z</time>
      </trkpt>
      <trkpt lat="43.23853" lon="5.64747">
        <ele>476.2</ele>
        <time>2014-10-08T12:22:10Z</time>
      </trkpt>
      <trkpt lat="43.2385" lon="5.64751">
        <ele>475.2</ele>
        <time>2014-10-08T12:22:13Z</time>
      </trkpt>
      <trkpt lat="43.23848" lon="5.64755">
        <ele>474.2</ele>
        <time>2014-10-08T12:22:16Z</time>
      </trkpt>
      <trkpt lat="43.23846" lon="5.64759">
        <ele>474.5</ele>
        <time>2014-10-08T12:22:19Z</time>
      </trkpt>
      <trkpt lat="43.23843" lon="5.64763">
        <ele>474.5</ele>
        <time>2014-10-08T12:22:22Z</time>
      </trkpt>
      <trkpt lat="43.23841" lon="5.64767">
        <ele>474.8</ele>
        <time>2014-10-08T12:22:25Z</time>
      </trkpt>
      <trkpt lat="43.23838" lon="5.64771">
        <ele>474.6</ele>
        <time>2014-10-08T12:22:29Z</time>
      </trkpt>
      <trkpt lat="43.23836" lon="5.64775">
        <ele>474.6</ele>
        <time>2014-10-08T12:22:32Z</time>
      </trkpt>
      <trkpt lat="43.23834" lon="5.64779">
        <ele>474.2</ele>
        <time>2014-10-08T12:22:35Z</time>
      </trkpt>
      <trkpt lat="43.23833" lon="5.64784">
        <ele>472.8</ele>
        <time>2014-10-08T12:22:38Z</time>
      </trkpt>
      <trkpt lat="43.23831" lon="5.64789">
        <ele>472.2</ele>
        <time>2014-10-08T12:22:42Z</time>
      </trkpt>
      <trkpt lat="43.23829" lon="5.64794">
        <ele>472.1</ele>
        <time>2014-10-08T12:22:45Z</time>
      </trkpt>
      <trkpt lat="43.23827" lon="5.64799">
        <ele>472.7</ele>
        <time>2014-10-08T12:22:48Z</time>
      </trkpt>
      <trkpt lat="43.23825" lon="5.64805">
        <ele>474</ele>
        <time>2014-10-08T12:22:51Z</time>
      </trkpt>
      <trkpt lat="43.23825" lon="5.64809">
        <ele>473.3</ele>
        <time>2014-10-08T12:22:54Z</time>
      </trkpt>
      <trkpt lat="43.23825" lon="5.64814">
        <ele>472.7</ele>
        <time>2014-10-08T12:22:57Z</time>
      </trkpt>
      <trkpt lat="43.23824" lon="5.64819">
        <ele>472</ele>
        <time>2014-10-08T12:23:00Z</time>
      </trkpt>
      <trkpt lat="43.23824" lon="5.64824">
        <ele>470.8</ele>
        <time>2014-10-08T12:23:03Z</time>
      </trkpt>
      <trkpt lat="43.23824" lon="5.64826">
        <ele>470.7</ele>
        <time>2014-10-08T12:23:04Z</time>
      </trkpt>
      <trkpt lat="43.23822" lon="5.64835">
        <ele>469.1</ele>
        <time>2014-10-08T12:23:09Z</time>
      </trkpt>
      <trkpt lat="43.23821" lon="5.64841">
        <ele>468.2</ele>
        <time>2014-10-08T12:23:12Z</time>
      </trkpt>
      <trkpt lat="43.23821" lon="5.64846">
        <ele>467.6</ele>
        <time>2014-10-08T12:23:15Z</time>
      </trkpt>
      <trkpt lat="43.23821" lon="5.64851">
        <ele>467.3</ele>
        <time>2014-10-08T12:23:18Z</time>
      </trkpt>
      <trkpt lat="43.2382" lon="5.64856">
        <ele>467.2</ele>
        <time>2014-10-08T12:23:21Z</time>
      </trkpt>
      <trkpt lat="43.2382" lon="5.64862">
        <ele>467.1</ele>
        <time>2014-10-08T12:23:24Z</time>
      </trkpt>
      <trkpt lat="43.23821" lon="5.64866">
        <ele>466.6</ele>
        <time>2014-10-08T12:23:27Z</time>
      </trkpt>
      <trkpt lat="43.2382" lon="5.64872">
        <ele>464.5</ele>
        <time>2014-10-08T12:23:31Z</time>
      </trkpt>
      <trkpt lat="43.23819" lon="5.64877">
        <ele>463.6</ele>
        <time>2014-10-08T12:23:34Z</time>
      </trkpt>
      <trkpt lat="43.23817" lon="5.64882">
        <ele>463</ele>
        <time>2014-10-08T12:23:38Z</time>
      </trkpt>
      <trkpt lat="43.23815" lon="5.64888">
        <ele>462.7</ele>
        <time>2014-10-08T12:23:42Z</time>
      </trkpt>
      <trkpt lat="43.23813" lon="5.64893">
        <ele>461.6</ele>
        <time>2014-10-08T12:23:46Z</time>
      </trkpt>
      <trkpt lat="43.23812" lon="5.64898">
        <ele>461.2</ele>
        <time>2014-10-08T12:23:49Z</time>
      </trkpt>
      <trkpt lat="43.23809" lon="5.64902">
        <ele>461.5</ele>
        <time>2014-10-08T12:23:52Z</time>
      </trkpt>
      <trkpt lat="43.23806" lon="5.64907">
        <ele>462.2</ele>
        <time>2014-10-08T12:23:56Z</time>
      </trkpt>
      <trkpt lat="43.23804" lon="5.64911">
        <ele>461.7</ele>
        <time>2014-10-08T12:23:59Z</time>
      </trkpt>
      <trkpt lat="43.23803" lon="5.64915">
        <ele>460.6</ele>
        <time>2014-10-08T12:24:02Z</time>
      </trkpt>
      <trkpt lat="43.23801" lon="5.64919">
        <ele>460.6</ele>
        <time>2014-10-08T12:24:05Z</time>
      </trkpt>
      <trkpt lat="43.23801" lon="5.64921">
        <ele>460.6</ele>
        <time>2014-10-08T12:24:06Z</time>
      </trkpt>
      <trkpt lat="43.23799" lon="5.64929">
        <ele>459.3</ele>
        <time>2014-10-08T12:24:11Z</time>
      </trkpt>
      <trkpt lat="43.23798" lon="5.64934">
        <ele>458.8</ele>
        <time>2014-10-08T12:24:14Z</time>
      </trkpt>
      <trkpt lat="43.23797" lon="5.64938">
        <ele>459.2</ele>
        <time>2014-10-08T12:24:16Z</time>
      </trkpt>
      <trkpt lat="43.23796" lon="5.64944">
        <ele>459</ele>
        <time>2014-10-08T12:24:19Z</time>
      </trkpt>
      <trkpt lat="43.23794" lon="5.64949">
        <ele>459.7</ele>
        <time>2014-10-08T12:24:22Z</time>
      </trkpt>
      <trkpt lat="43.23794" lon="5.64955">
        <ele>459.1</ele>
        <time>2014-10-08T12:24:25Z</time>
      </trkpt>
      <trkpt lat="43.23793" lon="5.6496">
        <ele>458.7</ele>
        <time>2014-10-08T12:24:28Z</time>
      </trkpt>
      <trkpt lat="43.23793" lon="5.64964">
        <ele>458.7</ele>
        <time>2014-10-08T12:24:31Z</time>
      </trkpt>
      <trkpt lat="43.23792" lon="5.64969">
        <ele>459.2</ele>
        <time>2014-10-08T12:24:34Z</time>
      </trkpt>
      <trkpt lat="43.23792" lon="5.64974">
        <ele>459.2</ele>
        <time>2014-10-08T12:24:38Z</time>
      </trkpt>
      <trkpt lat="43.23791" lon="5.64979">
        <ele>460.1</ele>
        <time>2014-10-08T12:24:41Z</time>
      </trkpt>
      <trkpt lat="43.2379" lon="5.64983">
        <ele>460.6</ele>
        <time>2014-10-08T12:24:43Z</time>
      </trkpt>
      <trkpt lat="43.23789" lon="5.64988">
        <ele>459.8</ele>
        <time>2014-10-08T12:24:46Z</time>
      </trkpt>
      <trkpt lat="43.23789" lon="5.64994">
        <ele>459.7</ele>
        <time>2014-10-08T12:24:50Z</time>
      </trkpt>
      <trkpt lat="43.2379" lon="5.64998">
        <ele>459.1</ele>
        <time>2014-10-08T12:24:53Z</time>
      </trkpt>
      <trkpt lat="43.2379" lon="5.65004">
        <ele>458.8</ele>
        <time>2014-10-08T12:24:56Z</time>
      </trkpt>
      <trkpt lat="43.23789" lon="5.65008">
        <ele>459.7</ele>
        <time>2014-10-08T12:24:58Z</time>
      </trkpt>
      <trkpt lat="43.23788" lon="5.65013">
        <ele>459.7</ele>
        <time>2014-10-08T12:25:00Z</time>
      </trkpt>
      <trkpt lat="43.23786" lon="5.65018">
        <ele>458.5</ele>
        <time>2014-10-08T12:25:03Z</time>
      </trkpt>
      <trkpt lat="43.23786" lon="5.65024">
        <ele>458.1</ele>
        <time>2014-10-08T12:25:06Z</time>
      </trkpt>
      <trkpt lat="43.23786" lon="5.65026">
        <ele>458</ele>
        <time>2014-10-08T12:25:07Z</time>
      </trkpt>
      <trkpt lat="43.23786" lon="5.65035">
        <ele>457</ele>
        <time>2014-10-08T12:25:12Z</time>
      </trkpt>
      <trkpt lat="43.23785" lon="5.6504">
        <ele>457.2</ele>
        <time>2014-10-08T12:25:15Z</time>
      </trkpt>
      <trkpt lat="43.23785" lon="5.65045">
        <ele>456.8</ele>
        <time>2014-10-08T12:25:17Z</time>
      </trkpt>
      <trkpt lat="43.23785" lon="5.65051">
        <ele>456.7</ele>
        <time>2014-10-08T12:25:20Z</time>
      </trkpt>
      <trkpt lat="43.23784" lon="5.65056">
        <ele>457.6</ele>
        <time>2014-10-08T12:25:24Z</time>
      </trkpt>
      <trkpt lat="43.23784" lon="5.65061">
        <ele>457.7</ele>
        <time>2014-10-08T12:25:28Z</time>
      </trkpt>
      <trkpt lat="43.23783" lon="5.65066">
        <ele>456</ele>
        <time>2014-10-08T12:25:31Z</time>
      </trkpt>
      <trkpt lat="43.23781" lon="5.65071">
        <ele>455.7</ele>
        <time>2014-10-08T12:25:35Z</time>
      </trkpt>
      <trkpt lat="43.2378" lon="5.65076">
        <ele>456.2</ele>
        <time>2014-10-08T12:25:38Z</time>
      </trkpt>
      <trkpt lat="43.23778" lon="5.6508">
        <ele>456.6</ele>
        <time>2014-10-08T12:25:40Z</time>
      </trkpt>
      <trkpt lat="43.23777" lon="5.65086">
        <ele>456.6</ele>
        <time>2014-10-08T12:25:43Z</time>
      </trkpt>
      <trkpt lat="43.23775" lon="5.6509">
        <ele>457.1</ele>
        <time>2014-10-08T12:25:46Z</time>
      </trkpt>
      <trkpt lat="43.23773" lon="5.65095">
        <ele>457.3</ele>
        <time>2014-10-08T12:25:50Z</time>
      </trkpt>
      <trkpt lat="43.23772" lon="5.651">
        <ele>457.7</ele>
        <time>2014-10-08T12:25:54Z</time>
      </trkpt>
      <trkpt lat="43.23769" lon="5.65104">
        <ele>458.6</ele>
        <time>2014-10-08T12:25:58Z</time>
      </trkpt>
      <trkpt lat="43.23768" lon="5.65109">
        <ele>457.6</ele>
        <time>2014-10-08T12:26:01Z</time>
      </trkpt>
      <trkpt lat="43.23767" lon="5.65114">
        <ele>456.7</ele>
        <time>2014-10-08T12:26:05Z</time>
      </trkpt>
      <trkpt lat="43.23766" lon="5.65118">
        <ele>457</ele>
        <time>2014-10-08T12:26:08Z</time>
      </trkpt>
      <trkpt lat="43.23765" lon="5.6512">
        <ele>457.1</ele>
        <time>2014-10-08T12:26:09Z</time>
      </trkpt>
      <trkpt lat="43.23764" lon="5.65129">
        <ele>454.7</ele>
        <time>2014-10-08T12:26:15Z</time>
      </trkpt>
      <trkpt lat="43.23762" lon="5.65134">
        <ele>454.6</ele>
        <time>2014-10-08T12:26:18Z</time>
      </trkpt>
      <trkpt lat="43.23761" lon="5.65139">
        <ele>452.5</ele>
        <time>2014-10-08T12:26:22Z</time>
      </trkpt>
      <trkpt lat="43.23761" lon="5.65144">
        <ele>450.2</ele>
        <time>2014-10-08T12:26:26Z</time>
      </trkpt>
      <trkpt lat="43.2376" lon="5.6515">
        <ele>449.7</ele>
        <time>2014-10-08T12:26:30Z</time>
      </trkpt>
      <trkpt lat="43.23759" lon="5.65155">
        <ele>449.2</ele>
        <time>2014-10-08T12:26:35Z</time>
      </trkpt>
      <trkpt lat="43.23758" lon="5.65158">
        <ele>449.2</ele>
        <time>2014-10-08T12:26:37Z</time>
      </trkpt>
      <trkpt lat="43.23756" lon="5.65163">
        <ele>450.6</ele>
        <time>2014-10-08T12:26:39Z</time>
      </trkpt>
      <trkpt lat="43.23754" lon="5.65168">
        <ele>451.2</ele>
        <time>2014-10-08T12:26:42Z</time>
      </trkpt>
      <trkpt lat="43.23752" lon="5.65173">
        <ele>451.2</ele>
        <time>2014-10-08T12:26:45Z</time>
      </trkpt>
      <trkpt lat="43.23751" lon="5.65177">
        <ele>451.5</ele>
        <time>2014-10-08T12:26:47Z</time>
      </trkpt>
      <trkpt lat="43.23749" lon="5.65181">
        <ele>453</ele>
        <time>2014-10-08T12:26:49Z</time>
      </trkpt>
      <trkpt lat="43.23747" lon="5.65185">
        <ele>453</ele>
        <time>2014-10-08T12:26:52Z</time>
      </trkpt>
      <trkpt lat="43.23745" lon="5.65191">
        <ele>453.1</ele>
        <time>2014-10-08T12:26:55Z</time>
      </trkpt>
      <trkpt lat="43.23744" lon="5.65196">
        <ele>452.2</ele>
        <time>2014-10-08T12:26:59Z</time>
      </trkpt>
      <trkpt lat="43.23742" lon="5.652">
        <ele>452.1</ele>
        <time>2014-10-08T12:27:03Z</time>
      </trkpt>
      <trkpt lat="43.2374" lon="5.65205">
        <ele>452.5</ele>
        <time>2014-10-08T12:27:07Z</time>
      </trkpt>
      <trkpt lat="43.23738" lon="5.65209">
        <ele>451.8</ele>
        <time>2014-10-08T12:27:10Z</time>
      </trkpt>
      <trkpt lat="43.23737" lon="5.65211">
        <ele>451.5</ele>
        <time>2014-10-08T12:27:11Z</time>
      </trkpt>
      <trkpt lat="43.23734" lon="5.65218">
        <ele>450.7</ele>
        <time>2014-10-08T12:27:16Z</time>
      </trkpt>
      <trkpt lat="43.23732" lon="5.65223">
        <ele>450.2</ele>
        <time>2014-10-08T12:27:20Z</time>
      </trkpt>
      <trkpt lat="43.23729" lon="5.65228">
        <ele>449.2</ele>
        <time>2014-10-08T12:27:24Z</time>
      </trkpt>
      <trkpt lat="43.23729" lon="5.65234">
        <ele>447.5</ele>
        <time>2014-10-08T12:27:28Z</time>
      </trkpt>
      <trkpt lat="43.23728" lon="5.65239">
        <ele>445.7</ele>
        <time>2014-10-08T12:27:31Z</time>
      </trkpt>
      <trkpt lat="43.23726" lon="5.65244">
        <ele>445.5</ele>
        <time>2014-10-08T12:27:34Z</time>
      </trkpt>
      <trkpt lat="43.23724" lon="5.6525">
        <ele>445.3</ele>
        <time>2014-10-08T12:27:37Z</time>
      </trkpt>
      <trkpt lat="43.23723" lon="5.65255">
        <ele>444.7</ele>
        <time>2014-10-08T12:27:40Z</time>
      </trkpt>
      <trkpt lat="43.23723" lon="5.65261">
        <ele>444.8</ele>
        <time>2014-10-08T12:27:43Z</time>
      </trkpt>
      <trkpt lat="43.23722" lon="5.65266">
        <ele>445.7</ele>
        <time>2014-10-08T12:27:46Z</time>
      </trkpt>
      <trkpt lat="43.23721" lon="5.65271">
        <ele>446.2</ele>
        <time>2014-10-08T12:27:49Z</time>
      </trkpt>
      <trkpt lat="43.2372" lon="5.65275">
        <ele>446.6</ele>
        <time>2014-10-08T12:27:51Z</time>
      </trkpt>
      <trkpt lat="43.23719" lon="5.65279">
        <ele>446.8</ele>
        <time>2014-10-08T12:27:53Z</time>
      </trkpt>
      <trkpt lat="43.23718" lon="5.65285">
        <ele>447.2</ele>
        <time>2014-10-08T12:27:56Z</time>
      </trkpt>
      <trkpt lat="43.23715" lon="5.6529">
        <ele>448</ele>
        <time>2014-10-08T12:27:59Z</time>
      </trkpt>
      <trkpt lat="43.23714" lon="5.65295">
        <ele>448.7</ele>
        <time>2014-10-08T12:28:02Z</time>
      </trkpt>
      <trkpt lat="43.23712" lon="5.653">
        <ele>450.2</ele>
        <time>2014-10-08T12:28:07Z</time>
      </trkpt>
      <trkpt lat="43.2371" lon="5.65304">
        <ele>450.2</ele>
        <time>2014-10-08T12:28:10Z</time>
      </trkpt>
      <trkpt lat="43.2371" lon="5.65308">
        <ele>449.2</ele>
        <time>2014-10-08T12:28:13Z</time>
      </trkpt>
      <trkpt lat="43.23709" lon="5.6531">
        <ele>448.8</ele>
        <time>2014-10-08T12:28:14Z</time>
      </trkpt>
      <trkpt lat="43.23706" lon="5.65319">
        <ele>448.5</ele>
        <time>2014-10-08T12:28:20Z</time>
      </trkpt>
      <trkpt lat="43.23705" lon="5.65325">
        <ele>447.1</ele>
        <time>2014-10-08T12:28:24Z</time>
      </trkpt>
      <trkpt lat="43.23705" lon="5.65329">
        <ele>446.5</ele>
        <time>2014-10-08T12:28:28Z</time>
      </trkpt>
      <trkpt lat="43.23704" lon="5.65334">
        <ele>446.3</ele>
        <time>2014-10-08T12:28:31Z</time>
      </trkpt>
      <trkpt lat="43.23703" lon="5.6534">
        <ele>445.2</ele>
        <time>2014-10-08T12:28:34Z</time>
      </trkpt>
      <trkpt lat="43.23702" lon="5.65346">
        <ele>444</ele>
        <time>2014-10-08T12:28:37Z</time>
      </trkpt>
      <trkpt lat="43.23702" lon="5.65351">
        <ele>442.7</ele>
        <time>2014-10-08T12:28:40Z</time>
      </trkpt>
      <trkpt lat="43.23701" lon="5.65356">
        <ele>442.2</ele>
        <time>2014-10-08T12:28:43Z</time>
      </trkpt>
      <trkpt lat="43.23701" lon="5.6536">
        <ele>441.8</ele>
        <time>2014-10-08T12:28:46Z</time>
      </trkpt>
      <trkpt lat="43.23699" lon="5.65366">
        <ele>440.7</ele>
        <time>2014-10-08T12:28:49Z</time>
      </trkpt>
      <trkpt lat="43.23698" lon="5.65371">
        <ele>441.1</ele>
        <time>2014-10-08T12:28:51Z</time>
      </trkpt>
      <trkpt lat="43.23697" lon="5.65376">
        <ele>441.2</ele>
        <time>2014-10-08T12:28:54Z</time>
      </trkpt>
      <trkpt lat="43.23696" lon="5.65381">
        <ele>441.2</ele>
        <time>2014-10-08T12:28:57Z</time>
      </trkpt>
      <trkpt lat="43.23696" lon="5.65387">
        <ele>440.7</ele>
        <time>2014-10-08T12:29:01Z</time>
      </trkpt>
      <trkpt lat="43.23696" lon="5.65392">
        <ele>440.7</ele>
        <time>2014-10-08T12:29:04Z</time>
      </trkpt>
      <trkpt lat="43.23695" lon="5.65397">
        <ele>440.8</ele>
        <time>2014-10-08T12:29:07Z</time>
      </trkpt>
      <trkpt lat="43.23695" lon="5.65402">
        <ele>440.5</ele>
        <time>2014-10-08T12:29:11Z</time>
      </trkpt>
      <trkpt lat="43.23694" lon="5.65408">
        <ele>440.5</ele>
        <time>2014-10-08T12:29:15Z</time>
      </trkpt>
      <trkpt lat="43.23694" lon="5.6541">
        <ele>441.1</ele>
        <time>2014-10-08T12:29:16Z</time>
      </trkpt>
      <trkpt lat="43.23695" lon="5.65419">
        <ele>440.5</ele>
        <time>2014-10-08T12:29:23Z</time>
      </trkpt>
      <trkpt lat="43.23694" lon="5.65423">
        <ele>441.3</ele>
        <time>2014-10-08T12:29:26Z</time>
      </trkpt>
      <trkpt lat="43.23693" lon="5.65428">
        <ele>440.6</ele>
        <time>2014-10-08T12:29:30Z</time>
      </trkpt>
      <trkpt lat="43.23692" lon="5.65433">
        <ele>440.5</ele>
        <time>2014-10-08T12:29:33Z</time>
      </trkpt>
      <trkpt lat="43.2369" lon="5.65437">
        <ele>440.6</ele>
        <time>2014-10-08T12:29:35Z</time>
      </trkpt>
      <trkpt lat="43.23689" lon="5.65443">
        <ele>440.1</ele>
        <time>2014-10-08T12:29:38Z</time>
      </trkpt>
      <trkpt lat="43.23688" lon="5.65447">
        <ele>439.6</ele>
        <time>2014-10-08T12:29:41Z</time>
      </trkpt>
      <trkpt lat="43.23688" lon="5.65452">
        <ele>438.7</ele>
        <time>2014-10-08T12:29:44Z</time>
      </trkpt>
      <trkpt lat="43.23687" lon="5.65456">
        <ele>439.5</ele>
        <time>2014-10-08T12:29:47Z</time>
      </trkpt>
      <trkpt lat="43.23686" lon="5.65462">
        <ele>439.2</ele>
        <time>2014-10-08T12:29:51Z</time>
      </trkpt>
      <trkpt lat="43.23686" lon="5.65468">
        <ele>438.2</ele>
        <time>2014-10-08T12:29:54Z</time>
      </trkpt>
      <trkpt lat="43.23687" lon="5.65473">
        <ele>437.3</ele>
        <time>2014-10-08T12:29:58Z</time>
      </trkpt>
      <trkpt lat="43.23687" lon="5.65478">
        <ele>437.1</ele>
        <time>2014-10-08T12:30:01Z</time>
      </trkpt>
      <trkpt lat="43.23689" lon="5.65484">
        <ele>435.5</ele>
        <time>2014-10-08T12:30:06Z</time>
      </trkpt>
      <trkpt lat="43.23688" lon="5.65489">
        <ele>434.8</ele>
        <time>2014-10-08T12:30:09Z</time>
      </trkpt>
      <trkpt lat="43.23689" lon="5.65494">
        <ele>433.5</ele>
        <time>2014-10-08T12:30:13Z</time>
      </trkpt>
      <trkpt lat="43.23691" lon="5.65499">
        <ele>431.2</ele>
        <time>2014-10-08T12:30:18Z</time>
      </trkpt>
      <trkpt lat="43.23691" lon="5.65501">
        <ele>431.2</ele>
        <time>2014-10-08T12:30:19Z</time>
      </trkpt>
      <trkpt lat="43.23694" lon="5.6551">
        <ele>430.1</ele>
        <time>2014-10-08T12:30:26Z</time>
      </trkpt>
      <trkpt lat="43.23692" lon="5.65516">
        <ele>430.5</ele>
        <time>2014-10-08T12:30:29Z</time>
      </trkpt>
      <trkpt lat="43.23691" lon="5.65521">
        <ele>431.1</ele>
        <time>2014-10-08T12:30:33Z</time>
      </trkpt>
      <trkpt lat="43.23691" lon="5.65527">
        <ele>430.2</ele>
        <time>2014-10-08T12:30:37Z</time>
      </trkpt>
      <trkpt lat="43.23691" lon="5.65531">
        <ele>429.6</ele>
        <time>2014-10-08T12:30:40Z</time>
      </trkpt>
      <trkpt lat="43.2369" lon="5.65536">
        <ele>429</ele>
        <time>2014-10-08T12:30:43Z</time>
      </trkpt>
      <trkpt lat="43.23689" lon="5.65542">
        <ele>428.5</ele>
        <time>2014-10-08T12:30:46Z</time>
      </trkpt>
      <trkpt lat="43.23688" lon="5.65547">
        <ele>427.7</ele>
        <time>2014-10-08T12:30:49Z</time>
      </trkpt>
      <trkpt lat="43.23687" lon="5.65552">
        <ele>427.8</ele>
        <time>2014-10-08T12:30:52Z</time>
      </trkpt>
      <trkpt lat="43.23685" lon="5.65556">
        <ele>428.8</ele>
        <time>2014-10-08T12:30:54Z</time>
      </trkpt>
      <trkpt lat="43.23684" lon="5.65561">
        <ele>429</ele>
        <time>2014-10-08T12:30:57Z</time>
      </trkpt>
      <trkpt lat="43.23682" lon="5.65565">
        <ele>430</ele>
        <time>2014-10-08T12:31:00Z</time>
      </trkpt>
      <trkpt lat="43.2368" lon="5.65569">
        <ele>430.8</ele>
        <time>2014-10-08T12:31:03Z</time>
      </trkpt>
      <trkpt lat="43.23679" lon="5.65574">
        <ele>430.7</ele>
        <time>2014-10-08T12:31:07Z</time>
      </trkpt>
      <trkpt lat="43.23678" lon="5.65579">
        <ele>431.1</ele>
        <time>2014-10-08T12:31:10Z</time>
      </trkpt>
      <trkpt lat="43.23678" lon="5.65585">
        <ele>431.7</ele>
        <time>2014-10-08T12:31:15Z</time>
      </trkpt>
      <trkpt lat="43.23676" lon="5.65589">
        <ele>432.2</ele>
        <time>2014-10-08T12:31:17Z</time>
      </trkpt>
      <trkpt lat="43.23674" lon="5.65594">
        <ele>432.2</ele>
        <time>2014-10-08T12:31:20Z</time>
      </trkpt>
      <trkpt lat="43.23673" lon="5.65595">
        <ele>431.8</ele>
        <time>2014-10-08T12:31:21Z</time>
      </trkpt>
      <trkpt lat="43.2367" lon="5.65604">
        <ele>431.6</ele>
        <time>2014-10-08T12:31:28Z</time>
      </trkpt>
      <trkpt lat="43.23668" lon="5.65608">
        <ele>432.1</ele>
        <time>2014-10-08T12:31:30Z</time>
      </trkpt>
      <trkpt lat="43.23666" lon="5.65613">
        <ele>431.1</ele>
        <time>2014-10-08T12:31:33Z</time>
      </trkpt>
      <trkpt lat="43.23665" lon="5.65618">
        <ele>431.3</ele>
        <time>2014-10-08T12:31:36Z</time>
      </trkpt>
      <trkpt lat="43.23663" lon="5.65622">
        <ele>431.8</ele>
        <time>2014-10-08T12:31:38Z</time>
      </trkpt>
      <trkpt lat="43.23662" lon="5.65627">
        <ele>431.6</ele>
        <time>2014-10-08T12:31:40Z</time>
      </trkpt>
      <trkpt lat="43.2366" lon="5.65632">
        <ele>430.2</ele>
        <time>2014-10-08T12:31:44Z</time>
      </trkpt>
      <trkpt lat="43.23658" lon="5.65636">
        <ele>429.5</ele>
        <time>2014-10-08T12:31:48Z</time>
      </trkpt>
      <trkpt lat="43.23657" lon="5.65642">
        <ele>429.5</ele>
        <time>2014-10-08T12:31:52Z</time>
      </trkpt>
      <trkpt lat="43.23655" lon="5.65646">
        <ele>429.5</ele>
        <time>2014-10-08T12:31:55Z</time>
      </trkpt>
      <trkpt lat="43.23653" lon="5.65651">
        <ele>430</ele>
        <time>2014-10-08T12:31:58Z</time>
      </trkpt>
      <trkpt lat="43.23652" lon="5.65656">
        <ele>429.5</ele>
        <time>2014-10-08T12:32:02Z</time>
      </trkpt>
      <trkpt lat="43.23651" lon="5.65661">
        <ele>429.6</ele>
        <time>2014-10-08T12:32:06Z</time>
      </trkpt>
      <trkpt lat="43.23649" lon="5.65665">
        <ele>429.7</ele>
        <time>2014-10-08T12:32:09Z</time>
      </trkpt>
      <trkpt lat="43.23646" lon="5.65669">
        <ele>430.2</ele>
        <time>2014-10-08T12:32:13Z</time>
      </trkpt>
      <trkpt lat="43.23644" lon="5.65674">
        <ele>429.7</ele>
        <time>2014-10-08T12:32:16Z</time>
      </trkpt>
      <trkpt lat="43.23642" lon="5.65679">
        <ele>429.7</ele>
        <time>2014-10-08T12:32:20Z</time>
      </trkpt>
      <trkpt lat="43.23641" lon="5.65684">
        <ele>429.7</ele>
        <time>2014-10-08T12:32:23Z</time>
      </trkpt>
      <trkpt lat="43.2364" lon="5.65685">
        <ele>429.5</ele>
        <time>2014-10-08T12:32:24Z</time>
      </trkpt>
      <trkpt lat="43.23637" lon="5.65694">
        <ele>427.7</ele>
        <time>2014-10-08T12:32:30Z</time>
      </trkpt>
      <trkpt lat="43.23638" lon="5.65699">
        <ele>423.7</ele>
        <time>2014-10-08T12:32:35Z</time>
      </trkpt>
      <trkpt lat="43.23635" lon="5.65704">
        <ele>423.2</ele>
        <time>2014-10-08T12:32:38Z</time>
      </trkpt>
      <trkpt lat="43.23633" lon="5.65708">
        <ele>424.7</ele>
        <time>2014-10-08T12:32:41Z</time>
      </trkpt>
      <trkpt lat="43.23631" lon="5.65713">
        <ele>426</ele>
        <time>2014-10-08T12:32:44Z</time>
      </trkpt>
      <trkpt lat="43.2363" lon="5.65717">
        <ele>426.6</ele>
        <time>2014-10-08T12:32:47Z</time>
      </trkpt>
      <trkpt lat="43.23628" lon="5.65722">
        <ele>427.3</ele>
        <time>2014-10-08T12:32:50Z</time>
      </trkpt>
      <trkpt lat="43.23626" lon="5.65726">
        <ele>427.6</ele>
        <time>2014-10-08T12:32:53Z</time>
      </trkpt>
      <trkpt lat="43.23624" lon="5.65731">
        <ele>428</ele>
        <time>2014-10-08T12:32:56Z</time>
      </trkpt>
      <trkpt lat="43.23623" lon="5.65737">
        <ele>426.6</ele>
        <time>2014-10-08T12:33:00Z</time>
      </trkpt>
      <trkpt lat="43.23623" lon="5.65742">
        <ele>425.3</ele>
        <time>2014-10-08T12:33:04Z</time>
      </trkpt>
      <trkpt lat="43.23622" lon="5.65747">
        <ele>424.8</ele>
        <time>2014-10-08T12:33:07Z</time>
      </trkpt>
      <trkpt lat="43.2362" lon="5.65752">
        <ele>424.8</ele>
        <time>2014-10-08T12:33:11Z</time>
      </trkpt>
      <trkpt lat="43.23619" lon="5.65758">
        <ele>425.1</ele>
        <time>2014-10-08T12:33:15Z</time>
      </trkpt>
      <trkpt lat="43.23618" lon="5.65763">
        <ele>424.7</ele>
        <time>2014-10-08T12:33:18Z</time>
      </trkpt>
      <trkpt lat="43.23616" lon="5.65767">
        <ele>424.3</ele>
        <time>2014-10-08T12:33:20Z</time>
      </trkpt>
      <trkpt lat="43.23615" lon="5.65772">
        <ele>425.2</ele>
        <time>2014-10-08T12:33:22Z</time>
      </trkpt>
      <trkpt lat="43.23614" lon="5.65778">
        <ele>425.2</ele>
        <time>2014-10-08T12:33:26Z</time>
      </trkpt>
      <trkpt lat="43.23614" lon="5.65779">
        <ele>425.2</ele>
        <time>2014-10-08T12:33:27Z</time>
      </trkpt>
      <trkpt lat="43.23612" lon="5.65787">
        <ele>424.8</ele>
        <time>2014-10-08T12:33:33Z</time>
      </trkpt>
      <trkpt lat="43.23611" lon="5.65792">
        <ele>425</ele>
        <time>2014-10-08T12:33:36Z</time>
      </trkpt>
      <trkpt lat="43.23611" lon="5.65798">
        <ele>424.8</ele>
        <time>2014-10-08T12:33:40Z</time>
      </trkpt>
      <trkpt lat="43.23611" lon="5.65803">
        <ele>424.7</ele>
        <time>2014-10-08T12:33:44Z</time>
      </trkpt>
      <trkpt lat="43.2361" lon="5.65809">
        <ele>425.2</ele>
        <time>2014-10-08T12:33:48Z</time>
      </trkpt>
      <trkpt lat="43.23609" lon="5.65814">
        <ele>426.6</ele>
        <time>2014-10-08T12:33:52Z</time>
      </trkpt>
      <trkpt lat="43.23609" lon="5.65819">
        <ele>425.1</ele>
        <time>2014-10-08T12:33:56Z</time>
      </trkpt>
      <trkpt lat="43.23608" lon="5.65824">
        <ele>424.5</ele>
        <time>2014-10-08T12:33:59Z</time>
      </trkpt>
      <trkpt lat="43.23607" lon="5.65829">
        <ele>423.6</ele>
        <time>2014-10-08T12:34:02Z</time>
      </trkpt>
      <trkpt lat="43.23606" lon="5.65835">
        <ele>422.7</ele>
        <time>2014-10-08T12:34:06Z</time>
      </trkpt>
      <trkpt lat="43.23606" lon="5.6584">
        <ele>421.3</ele>
        <time>2014-10-08T12:34:10Z</time>
      </trkpt>
      <trkpt lat="43.23606" lon="5.65845">
        <ele>421.3</ele>
        <time>2014-10-08T12:34:13Z</time>
      </trkpt>
      <trkpt lat="43.23606" lon="5.6585">
        <ele>422</ele>
        <time>2014-10-08T12:34:16Z</time>
      </trkpt>
      <trkpt lat="43.23606" lon="5.65854">
        <ele>421.3</ele>
        <time>2014-10-08T12:34:19Z</time>
      </trkpt>
      <trkpt lat="43.23606" lon="5.65859">
        <ele>420.2</ele>
        <time>2014-10-08T12:34:23Z</time>
      </trkpt>
      <trkpt lat="43.23605" lon="5.65865">
        <ele>420.6</ele>
        <time>2014-10-08T12:34:27Z</time>
      </trkpt>
      <trkpt lat="43.23605" lon="5.65866">
        <ele>420.6</ele>
        <time>2014-10-08T12:34:28Z</time>
      </trkpt>
      <trkpt lat="43.23605" lon="5.65875">
        <ele>421.2</ele>
        <time>2014-10-08T12:34:34Z</time>
      </trkpt>
      <trkpt lat="43.23606" lon="5.65881">
        <ele>419.6</ele>
        <time>2014-10-08T12:34:39Z</time>
      </trkpt>
      <trkpt lat="43.23606" lon="5.65886">
        <ele>419.2</ele>
        <time>2014-10-08T12:34:43Z</time>
      </trkpt>
      <trkpt lat="43.23606" lon="5.65892">
        <ele>419</ele>
        <time>2014-10-08T12:34:47Z</time>
      </trkpt>
      <trkpt lat="43.23606" lon="5.65896">
        <ele>419.2</ele>
        <time>2014-10-08T12:34:50Z</time>
      </trkpt>
      <trkpt lat="43.23605" lon="5.65901">
        <ele>420.3</ele>
        <time>2014-10-08T12:34:52Z</time>
      </trkpt>
      <trkpt lat="43.23603" lon="5.65905">
        <ele>421</ele>
        <time>2014-10-08T12:34:54Z</time>
      </trkpt>
      <trkpt lat="43.23602" lon="5.65911">
        <ele>421</ele>
        <time>2014-10-08T12:34:58Z</time>
      </trkpt>
      <trkpt lat="43.23603" lon="5.65916">
        <ele>420.2</ele>
        <time>2014-10-08T12:35:03Z</time>
      </trkpt>
      <trkpt lat="43.23602" lon="5.6592">
        <ele>418.7</ele>
        <time>2014-10-08T12:35:06Z</time>
      </trkpt>
      <trkpt lat="43.23601" lon="5.65926">
        <ele>417.2</ele>
        <time>2014-10-08T12:35:09Z</time>
      </trkpt>
      <trkpt lat="43.23602" lon="5.65931">
        <ele>415.6</ele>
        <time>2014-10-08T12:35:14Z</time>
      </trkpt>
      <trkpt lat="43.23601" lon="5.65936">
        <ele>415.7</ele>
        <time>2014-10-08T12:35:18Z</time>
      </trkpt>
      <trkpt lat="43.23599" lon="5.65941">
        <ele>417.7</ele>
        <time>2014-10-08T12:35:22Z</time>
      </trkpt>
      <trkpt lat="43.23598" lon="5.65946">
        <ele>418.5</ele>
        <time>2014-10-08T12:35:25Z</time>
      </trkpt>
      <trkpt lat="43.23599" lon="5.65952">
        <ele>417.7</ele>
        <time>2014-10-08T12:35:29Z</time>
      </trkpt>
      <trkpt lat="43.23598" lon="5.65954">
        <ele>417.7</ele>
        <time>2014-10-08T12:35:30Z</time>
      </trkpt>
      <trkpt lat="43.23596" lon="5.65962">
        <ele>418.5</ele>
        <time>2014-10-08T12:35:34Z</time>
      </trkpt>
      <trkpt lat="43.23594" lon="5.65967">
        <ele>419.7</ele>
        <time>2014-10-08T12:35:37Z</time>
      </trkpt>
      <trkpt lat="43.23593" lon="5.65971">
        <ele>421.6</ele>
        <time>2014-10-08T12:35:40Z</time>
      </trkpt>
      <trkpt lat="43.23593" lon="5.65977">
        <ele>420.8</ele>
        <time>2014-10-08T12:35:43Z</time>
      </trkpt>
      <trkpt lat="43.23591" lon="5.65981">
        <ele>423.3</ele>
        <time>2014-10-08T12:35:46Z</time>
      </trkpt>
      <trkpt lat="43.23589" lon="5.65986">
        <ele>424.1</ele>
        <time>2014-10-08T12:35:49Z</time>
      </trkpt>
      <trkpt lat="43.2359" lon="5.65991">
        <ele>422.6</ele>
        <time>2014-10-08T12:35:53Z</time>
      </trkpt>
      <trkpt lat="43.2359" lon="5.65996">
        <ele>423.2</ele>
        <time>2014-10-08T12:35:57Z</time>
      </trkpt>
      <trkpt lat="43.23589" lon="5.66">
        <ele>423.5</ele>
        <time>2014-10-08T12:35:59Z</time>
      </trkpt>
      <trkpt lat="43.23588" lon="5.66004">
        <ele>423.3</ele>
        <time>2014-10-08T12:36:01Z</time>
      </trkpt>
      <trkpt lat="43.23587" lon="5.66007">
        <ele>423.7</ele>
        <time>2014-10-08T12:36:02Z</time>
      </trkpt>
      <trkpt lat="43.23586" lon="5.66012">
        <ele>424.8</ele>
        <time>2014-10-08T12:36:04Z</time>
      </trkpt>
      <trkpt lat="43.23586" lon="5.66017">
        <ele>425.2</ele>
        <time>2014-10-08T12:36:08Z</time>
      </trkpt>
      <trkpt lat="43.23586" lon="5.66023">
        <ele>425</ele>
        <time>2014-10-08T12:36:12Z</time>
      </trkpt>
      <trkpt lat="43.23587" lon="5.66028">
        <ele>423.3</ele>
        <time>2014-10-08T12:36:16Z</time>
      </trkpt>
      <trkpt lat="43.23587" lon="5.66032">
        <ele>421.7</ele>
        <time>2014-10-08T12:36:19Z</time>
      </trkpt>
      <trkpt lat="43.23587" lon="5.66038">
        <ele>420.7</ele>
        <time>2014-10-08T12:36:23Z</time>
      </trkpt>
      <trkpt lat="43.23587" lon="5.66043">
        <ele>420.2</ele>
        <time>2014-10-08T12:36:27Z</time>
      </trkpt>
      <trkpt lat="43.23588" lon="5.66048">
        <ele>419.7</ele>
        <time>2014-10-08T12:36:31Z</time>
      </trkpt>
      <trkpt lat="43.23587" lon="5.6605">
        <ele>420.1</ele>
        <time>2014-10-08T12:36:32Z</time>
      </trkpt>
      <trkpt lat="43.23585" lon="5.66059">
        <ele>419.7</ele>
        <time>2014-10-08T12:36:37Z</time>
      </trkpt>
      <trkpt lat="43.23585" lon="5.66064">
        <ele>418.8</ele>
        <time>2014-10-08T12:36:40Z</time>
      </trkpt>
      <trkpt lat="43.23587" lon="5.66068">
        <ele>416.8</ele>
        <time>2014-10-08T12:36:43Z</time>
      </trkpt>
      <trkpt lat="43.23586" lon="5.66073">
        <ele>416.7</ele>
        <time>2014-10-08T12:36:46Z</time>
      </trkpt>
      <trkpt lat="43.23585" lon="5.66077">
        <ele>417.6</ele>
        <time>2014-10-08T12:36:48Z</time>
      </trkpt>
      <trkpt lat="43.23584" lon="5.66083">
        <ele>418.8</ele>
        <time>2014-10-08T12:36:51Z</time>
      </trkpt>
      <trkpt lat="43.23584" lon="5.66089">
        <ele>417.7</ele>
        <time>2014-10-08T12:36:54Z</time>
      </trkpt>
      <trkpt lat="43.23583" lon="5.66093">
        <ele>416.1</ele>
        <time>2014-10-08T12:36:57Z</time>
      </trkpt>
      <trkpt lat="43.23584" lon="5.66099">
        <ele>414.7</ele>
        <time>2014-10-08T12:37:01Z</time>
      </trkpt>
      <trkpt lat="43.23584" lon="5.66104">
        <ele>414.7</ele>
        <time>2014-10-08T12:37:04Z</time>
      </trkpt>
      <trkpt lat="43.23583" lon="5.66109">
        <ele>414.5</ele>
        <time>2014-10-08T12:37:08Z</time>
      </trkpt>
      <trkpt lat="43.23583" lon="5.66115">
        <ele>414</ele>
        <time>2014-10-08T12:37:12Z</time>
      </trkpt>
      <trkpt lat="43.23583" lon="5.66121">
        <ele>413.3</ele>
        <time>2014-10-08T12:37:17Z</time>
      </trkpt>
      <trkpt lat="43.23582" lon="5.66126">
        <ele>413.2</ele>
        <time>2014-10-08T12:37:21Z</time>
      </trkpt>
      <trkpt lat="43.2358" lon="5.66131">
        <ele>414.2</ele>
        <time>2014-10-08T12:37:23Z</time>
      </trkpt>
      <trkpt lat="43.23579" lon="5.66135">
        <ele>415.2</ele>
        <time>2014-10-08T12:37:26Z</time>
      </trkpt>
      <trkpt lat="43.23579" lon="5.66142">
        <ele>416.8</ele>
        <time>2014-10-08T12:37:30Z</time>
      </trkpt>
      <trkpt lat="43.23579" lon="5.66145">
        <ele>416.7</ele>
        <time>2014-10-08T12:37:32Z</time>
      </trkpt>
      <trkpt lat="43.23577" lon="5.6615">
        <ele>417.1</ele>
        <time>2014-10-08T12:37:34Z</time>
      </trkpt>
      <trkpt lat="43.23577" lon="5.66151">
        <ele>416.7</ele>
        <time>2014-10-08T12:37:35Z</time>
      </trkpt>
      <trkpt lat="43.23577" lon="5.6616">
        <ele>414.7</ele>
        <time>2014-10-08T12:37:42Z</time>
      </trkpt>
      <trkpt lat="43.23579" lon="5.66165">
        <ele>412.5</ele>
        <time>2014-10-08T12:37:46Z</time>
      </trkpt>
      <trkpt lat="43.2358" lon="5.66171">
        <ele>412.1</ele>
        <time>2014-10-08T12:37:50Z</time>
      </trkpt>
      <trkpt lat="43.23581" lon="5.66175">
        <ele>410.7</ele>
        <time>2014-10-08T12:37:53Z</time>
      </trkpt>
      <trkpt lat="43.23582" lon="5.66181">
        <ele>409</ele>
        <time>2014-10-08T12:37:57Z</time>
      </trkpt>
      <trkpt lat="43.23583" lon="5.66186">
        <ele>408.3</ele>
        <time>2014-10-08T12:38:01Z</time>
      </trkpt>
      <trkpt lat="43.23584" lon="5.66192">
        <ele>410.2</ele>
        <time>2014-10-08T12:38:08Z</time>
      </trkpt>
      <trkpt lat="43.23585" lon="5.66196">
        <ele>410.6</ele>
        <time>2014-10-08T12:38:13Z</time>
      </trkpt>
      <trkpt lat="43.23585" lon="5.66202">
        <ele>409.6</ele>
        <time>2014-10-08T12:38:17Z</time>
      </trkpt>
      <trkpt lat="43.23584" lon="5.66207">
        <ele>409.7</ele>
        <time>2014-10-08T12:38:20Z</time>
      </trkpt>
      <trkpt lat="43.23583" lon="5.66212">
        <ele>410.7</ele>
        <time>2014-10-08T12:38:22Z</time>
      </trkpt>
      <trkpt lat="43.23583" lon="5.66217">
        <ele>411.5</ele>
        <time>2014-10-08T12:38:25Z</time>
      </trkpt>
      <trkpt lat="43.23582" lon="5.66222">
        <ele>412.2</ele>
        <time>2014-10-08T12:38:28Z</time>
      </trkpt>
      <trkpt lat="43.23581" lon="5.66228">
        <ele>413.1</ele>
        <time>2014-10-08T12:38:34Z</time>
      </trkpt>
      <trkpt lat="43.23579" lon="5.66233">
        <ele>411.2</ele>
        <time>2014-10-08T12:38:41Z</time>
      </trkpt>
      <trkpt lat="43.23579" lon="5.66234">
        <ele>411.3</ele>
        <time>2014-10-08T12:38:42Z</time>
      </trkpt>
      <trkpt lat="43.23576" lon="5.66243">
        <ele>411.7</ele>
        <time>2014-10-08T12:38:48Z</time>
      </trkpt>
      <trkpt lat="43.23575" lon="5.66248">
        <ele>412.6</ele>
        <time>2014-10-08T12:38:51Z</time>
      </trkpt>
      <trkpt lat="43.23574" lon="5.66251">
        <ele>413.5</ele>
        <time>2014-10-08T12:38:52Z</time>
      </trkpt>
      <trkpt lat="43.23572" lon="5.66256">
        <ele>415.2</ele>
        <time>2014-10-08T12:38:54Z</time>
      </trkpt>
      <trkpt lat="43.2357" lon="5.6626">
        <ele>415.8</ele>
        <time>2014-10-08T12:38:58Z</time>
      </trkpt>
      <trkpt lat="43.23568" lon="5.66266">
        <ele>416.3</ele>
        <time>2014-10-08T12:39:03Z</time>
      </trkpt>
      <trkpt lat="43.23567" lon="5.66271">
        <ele>417.6</ele>
        <time>2014-10-08T12:39:08Z</time>
      </trkpt>
      <trkpt lat="43.23566" lon="5.66277">
        <ele>418.7</ele>
        <time>2014-10-08T12:39:13Z</time>
      </trkpt>
      <trkpt lat="43.23565" lon="5.66282">
        <ele>418.7</ele>
        <time>2014-10-08T12:39:18Z</time>
      </trkpt>
      <trkpt lat="43.23564" lon="5.66287">
        <ele>419.2</ele>
        <time>2014-10-08T12:39:21Z</time>
      </trkpt>
      <trkpt lat="43.23563" lon="5.66292">
        <ele>418.1</ele>
        <time>2014-10-08T12:39:24Z</time>
      </trkpt>
      <trkpt lat="43.23562" lon="5.66297">
        <ele>417.2</ele>
        <time>2014-10-08T12:39:27Z</time>
      </trkpt>
      <trkpt lat="43.23562" lon="5.66303">
        <ele>416.5</ele>
        <time>2014-10-08T12:39:31Z</time>
      </trkpt>
      <trkpt lat="43.23561" lon="5.66308">
        <ele>415.8</ele>
        <time>2014-10-08T12:39:34Z</time>
      </trkpt>
      <trkpt lat="43.2356" lon="5.66313">
        <ele>415.6</ele>
        <time>2014-10-08T12:39:37Z</time>
      </trkpt>
      <trkpt lat="43.23559" lon="5.66319">
        <ele>415.7</ele>
        <time>2014-10-08T12:39:40Z</time>
      </trkpt>
      <trkpt lat="43.23559" lon="5.66324">
        <ele>415.3</ele>
        <time>2014-10-08T12:39:44Z</time>
      </trkpt>
      <trkpt lat="43.23559" lon="5.66326">
        <ele>414.3</ele>
        <time>2014-10-08T12:39:45Z</time>
      </trkpt>
      <trkpt lat="43.23561" lon="5.66334">
        <ele>411.2</ele>
        <time>2014-10-08T12:39:51Z</time>
      </trkpt>
      <trkpt lat="43.23561" lon="5.66339">
        <ele>410.2</ele>
        <time>2014-10-08T12:39:54Z</time>
      </trkpt>
      <trkpt lat="43.2356" lon="5.66344">
        <ele>410.7</ele>
        <time>2014-10-08T12:39:56Z</time>
      </trkpt>
      <trkpt lat="43.23559" lon="5.66348">
        <ele>411</ele>
        <time>2014-10-08T12:39:59Z</time>
      </trkpt>
      <trkpt lat="43.23559" lon="5.66353">
        <ele>412</ele>
        <time>2014-10-08T12:40:02Z</time>
      </trkpt>
      <trkpt lat="43.23559" lon="5.66359">
        <ele>410.7</ele>
        <time>2014-10-08T12:40:14Z</time>
      </trkpt>
      <trkpt lat="43.23557" lon="5.66363">
        <ele>410.7</ele>
        <time>2014-10-08T12:40:17Z</time>
      </trkpt>
      <trkpt lat="43.23556" lon="5.66368">
        <ele>411.2</ele>
        <time>2014-10-08T12:40:20Z</time>
      </trkpt>
      <trkpt lat="43.23555" lon="5.66373">
        <ele>412.2</ele>
        <time>2014-10-08T12:40:23Z</time>
      </trkpt>
      <trkpt lat="43.23554" lon="5.66378">
        <ele>412.6</ele>
        <time>2014-10-08T12:40:27Z</time>
      </trkpt>
      <trkpt lat="43.23553" lon="5.66384">
        <ele>411.6</ele>
        <time>2014-10-08T12:40:30Z</time>
      </trkpt>
      <trkpt lat="43.23552" lon="5.66388">
        <ele>413.2</ele>
        <time>2014-10-08T12:40:32Z</time>
      </trkpt>
      <trkpt lat="43.23551" lon="5.66394">
        <ele>412.2</ele>
        <time>2014-10-08T12:40:36Z</time>
      </trkpt>
      <trkpt lat="43.2355" lon="5.66399">
        <ele>413</ele>
        <time>2014-10-08T12:40:39Z</time>
      </trkpt>
      <trkpt lat="43.23549" lon="5.66404">
        <ele>413.1</ele>
        <time>2014-10-08T12:40:42Z</time>
      </trkpt>
      <trkpt lat="43.23548" lon="5.6641">
        <ele>413.5</ele>
        <time>2014-10-08T12:40:46Z</time>
      </trkpt>
      <trkpt lat="43.23547" lon="5.66412">
        <ele>413.7</ele>
        <time>2014-10-08T12:40:47Z</time>
      </trkpt>
      <trkpt lat="43.23546" lon="5.6642">
        <ele>413.2</ele>
        <time>2014-10-08T12:40:52Z</time>
      </trkpt>
      <trkpt lat="43.23543" lon="5.66424">
        <ele>415.2</ele>
        <time>2014-10-08T12:41:00Z</time>
      </trkpt>
      <trkpt lat="43.23545" lon="5.6643">
        <ele>411.5</ele>
        <time>2014-10-08T12:41:07Z</time>
      </trkpt>
      <trkpt lat="43.23547" lon="5.66435">
        <ele>407.2</ele>
        <time>2014-10-08T12:41:11Z</time>
      </trkpt>
      <trkpt lat="43.23548" lon="5.66441">
        <ele>404</ele>
        <time>2014-10-08T12:41:15Z</time>
      </trkpt>
      <trkpt lat="43.23549" lon="5.66445">
        <ele>401.1</ele>
        <time>2014-10-08T12:41:19Z</time>
      </trkpt>
      <trkpt lat="43.2355" lon="5.6645">
        <ele>400.2</ele>
        <time>2014-10-08T12:41:22Z</time>
      </trkpt>
      <trkpt lat="43.2355" lon="5.66456">
        <ele>401.6</ele>
        <time>2014-10-08T12:41:25Z</time>
      </trkpt>
      <trkpt lat="43.23552" lon="5.66461">
        <ele>402.2</ele>
        <time>2014-10-08T12:41:28Z</time>
      </trkpt>
      <trkpt lat="43.23552" lon="5.66466">
        <ele>403.1</ele>
        <time>2014-10-08T12:41:31Z</time>
      </trkpt>
      <trkpt lat="43.23553" lon="5.66472">
        <ele>401.7</ele>
        <time>2014-10-08T12:41:35Z</time>
      </trkpt>
      <trkpt lat="43.23553" lon="5.66477">
        <ele>401.8</ele>
        <time>2014-10-08T12:41:38Z</time>
      </trkpt>
      <trkpt lat="43.23552" lon="5.66482">
        <ele>402.6</ele>
        <time>2014-10-08T12:41:40Z</time>
      </trkpt>
      <trkpt lat="43.23552" lon="5.66488">
        <ele>403.7</ele>
        <time>2014-10-08T12:41:43Z</time>
      </trkpt>
      <trkpt lat="43.2355" lon="5.66494">
        <ele>405</ele>
        <time>2014-10-08T12:41:46Z</time>
      </trkpt>
      <trkpt lat="43.23551" lon="5.66499">
        <ele>405.8</ele>
        <time>2014-10-08T12:41:50Z</time>
      </trkpt>
      <trkpt lat="43.23551" lon="5.665">
        <ele>406</ele>
        <time>2014-10-08T12:41:51Z</time>
      </trkpt>
      <trkpt lat="43.23552" lon="5.66509">
        <ele>402.2</ele>
        <time>2014-10-08T12:41:57Z</time>
      </trkpt>
      <trkpt lat="43.23553" lon="5.66515">
        <ele>399</ele>
        <time>2014-10-08T12:42:02Z</time>
      </trkpt>
      <trkpt lat="43.23553" lon="5.66519">
        <ele>397.7</ele>
        <time>2014-10-08T12:42:06Z</time>
      </trkpt>
      <trkpt lat="43.23552" lon="5.66524">
        <ele>398.8</ele>
        <time>2014-10-08T12:42:08Z</time>
      </trkpt>
      <trkpt lat="43.23551" lon="5.66529">
        <ele>400.7</ele>
        <time>2014-10-08T12:42:11Z</time>
      </trkpt>
      <trkpt lat="43.23551" lon="5.66534">
        <ele>402.7</ele>
        <time>2014-10-08T12:42:14Z</time>
      </trkpt>
      <trkpt lat="43.23551" lon="5.66539">
        <ele>404.2</ele>
        <time>2014-10-08T12:42:17Z</time>
      </trkpt>
      <trkpt lat="43.23551" lon="5.66544">
        <ele>404.8</ele>
        <time>2014-10-08T12:42:19Z</time>
      </trkpt>
      <trkpt lat="43.23549" lon="5.66549">
        <ele>407.7</ele>
        <time>2014-10-08T12:42:22Z</time>
      </trkpt>
      <trkpt lat="43.23548" lon="5.66554">
        <ele>409.1</ele>
        <time>2014-10-08T12:42:25Z</time>
      </trkpt>
      <trkpt lat="43.23547" lon="5.66558">
        <ele>408.6</ele>
        <time>2014-10-08T12:42:27Z</time>
      </trkpt>
      <trkpt lat="43.23547" lon="5.66563">
        <ele>408</ele>
        <time>2014-10-08T12:42:30Z</time>
      </trkpt>
      <trkpt lat="43.23545" lon="5.66568">
        <ele>407.6</ele>
        <time>2014-10-08T12:42:33Z</time>
      </trkpt>
      <trkpt lat="43.23544" lon="5.66574">
        <ele>407.7</ele>
        <time>2014-10-08T12:42:36Z</time>
      </trkpt>
      <trkpt lat="43.23543" lon="5.66579">
        <ele>407.8</ele>
        <time>2014-10-08T12:42:39Z</time>
      </trkpt>
      <trkpt lat="43.23543" lon="5.66584">
        <ele>407.1</ele>
        <time>2014-10-08T12:42:42Z</time>
      </trkpt>
      <trkpt lat="43.23543" lon="5.6659">
        <ele>405.6</ele>
        <time>2014-10-08T12:42:46Z</time>
      </trkpt>
      <trkpt lat="43.23543" lon="5.66595">
        <ele>404.8</ele>
        <time>2014-10-08T12:42:50Z</time>
      </trkpt>
      <trkpt lat="43.23542" lon="5.666">
        <ele>405.7</ele>
        <time>2014-10-08T12:42:53Z</time>
      </trkpt>
      <trkpt lat="43.23541" lon="5.66602">
        <ele>406.1</ele>
        <time>2014-10-08T12:42:54Z</time>
      </trkpt>
      <trkpt lat="43.23539" lon="5.66609">
        <ele>407.8</ele>
        <time>2014-10-08T12:42:59Z</time>
      </trkpt>
      <trkpt lat="43.23538" lon="5.66615">
        <ele>408.8</ele>
        <time>2014-10-08T12:43:02Z</time>
      </trkpt>
      <trkpt lat="43.23537" lon="5.6662">
        <ele>409.2</ele>
        <time>2014-10-08T12:43:05Z</time>
      </trkpt>
      <trkpt lat="43.23536" lon="5.66625">
        <ele>410.2</ele>
        <time>2014-10-08T12:43:08Z</time>
      </trkpt>
      <trkpt lat="43.23535" lon="5.6663">
        <ele>410.2</ele>
        <time>2014-10-08T12:43:11Z</time>
      </trkpt>
      <trkpt lat="43.23535" lon="5.66635">
        <ele>410.8</ele>
        <time>2014-10-08T12:43:14Z</time>
      </trkpt>
      <trkpt lat="43.23534" lon="5.6664">
        <ele>410.2</ele>
        <time>2014-10-08T12:43:17Z</time>
      </trkpt>
      <trkpt lat="43.23533" lon="5.66645">
        <ele>409</ele>
        <time>2014-10-08T12:43:19Z</time>
      </trkpt>
      <trkpt lat="43.23533" lon="5.66651">
        <ele>407.6</ele>
        <time>2014-10-08T12:43:22Z</time>
      </trkpt>
      <trkpt lat="43.23534" lon="5.66656">
        <ele>407</ele>
        <time>2014-10-08T12:43:27Z</time>
      </trkpt>
      <trkpt lat="43.23535" lon="5.66661">
        <ele>405.7</ele>
        <time>2014-10-08T12:43:31Z</time>
      </trkpt>
      <trkpt lat="43.23534" lon="5.66665">
        <ele>406.3</ele>
        <time>2014-10-08T12:43:33Z</time>
      </trkpt>
      <trkpt lat="43.23534" lon="5.66669">
        <ele>407.6</ele>
        <time>2014-10-08T12:43:35Z</time>
      </trkpt>
      <trkpt lat="43.23533" lon="5.66675">
        <ele>407.6</ele>
        <time>2014-10-08T12:43:38Z</time>
      </trkpt>
      <trkpt lat="43.23534" lon="5.66679">
        <ele>405.6</ele>
        <time>2014-10-08T12:43:41Z</time>
      </trkpt>
      <trkpt lat="43.23535" lon="5.66684">
        <ele>405.7</ele>
        <time>2014-10-08T12:43:43Z</time>
      </trkpt>
      <trkpt lat="43.23536" lon="5.66689">
        <ele>405</ele>
        <time>2014-10-08T12:43:46Z</time>
      </trkpt>
      <trkpt lat="43.23537" lon="5.66694">
        <ele>404.2</ele>
        <time>2014-10-08T12:43:51Z</time>
      </trkpt>
      <trkpt lat="43.23537" lon="5.667">
        <ele>403.7</ele>
        <time>2014-10-08T12:43:56Z</time>
      </trkpt>
      <trkpt lat="43.23537" lon="5.66701">
        <ele>402.7</ele>
        <time>2014-10-08T12:43:57Z</time>
      </trkpt>
      <trkpt lat="43.23538" lon="5.66711">
        <ele>400.7</ele>
        <time>2014-10-08T12:44:04Z</time>
      </trkpt>
      <trkpt lat="43.23538" lon="5.66717">
        <ele>399.6</ele>
        <time>2014-10-08T12:44:07Z</time>
      </trkpt>
      <trkpt lat="43.23537" lon="5.66722">
        <ele>399.3</ele>
        <time>2014-10-08T12:44:10Z</time>
      </trkpt>
      <trkpt lat="43.23536" lon="5.66727">
        <ele>399.6</ele>
        <time>2014-10-08T12:44:13Z</time>
      </trkpt>
      <trkpt lat="43.23534" lon="5.66733">
        <ele>399.7</ele>
        <time>2014-10-08T12:44:16Z</time>
      </trkpt>
      <trkpt lat="43.23533" lon="5.66737">
        <ele>401.2</ele>
        <time>2014-10-08T12:44:18Z</time>
      </trkpt>
      <trkpt lat="43.23531" lon="5.66742">
        <ele>401</ele>
        <time>2014-10-08T12:44:22Z</time>
      </trkpt>
      <trkpt lat="43.23529" lon="5.66747">
        <ele>401.1</ele>
        <time>2014-10-08T12:44:26Z</time>
      </trkpt>
      <trkpt lat="43.23527" lon="5.66752">
        <ele>402.2</ele>
        <time>2014-10-08T12:44:28Z</time>
      </trkpt>
      <trkpt lat="43.23524" lon="5.66756">
        <ele>402.5</ele>
        <time>2014-10-08T12:44:31Z</time>
      </trkpt>
      <trkpt lat="43.23523" lon="5.66761">
        <ele>403.3</ele>
        <time>2014-10-08T12:44:34Z</time>
      </trkpt>
      <trkpt lat="43.23521" lon="5.66765">
        <ele>403.7</ele>
        <time>2014-10-08T12:44:36Z</time>
      </trkpt>
      <trkpt lat="43.2352" lon="5.6677">
        <ele>405.2</ele>
        <time>2014-10-08T12:44:38Z</time>
      </trkpt>
      <trkpt lat="43.23519" lon="5.66775">
        <ele>405.8</ele>
        <time>2014-10-08T12:44:41Z</time>
      </trkpt>
      <trkpt lat="43.23518" lon="5.66781">
        <ele>404</ele>
        <time>2014-10-08T12:44:46Z</time>
      </trkpt>
      <trkpt lat="43.23518" lon="5.66787">
        <ele>402</ele>
        <time>2014-10-08T12:44:50Z</time>
      </trkpt>
      <trkpt lat="43.23517" lon="5.66792">
        <ele>401.8</ele>
        <time>2014-10-08T12:44:54Z</time>
      </trkpt>
      <trkpt lat="43.23515" lon="5.66796">
        <ele>404.2</ele>
        <time>2014-10-08T12:44:55Z</time>
      </trkpt>
      <trkpt lat="43.23515" lon="5.668">
        <ele>405.2</ele>
        <time>2014-10-08T12:44:57Z</time>
      </trkpt>
      <trkpt lat="43.23514" lon="5.66802">
        <ele>406.1</ele>
        <time>2014-10-08T12:44:58Z</time>
      </trkpt>
      <trkpt lat="43.23513" lon="5.66809">
        <ele>407.8</ele>
        <time>2014-10-08T12:45:00Z</time>
      </trkpt>
      <trkpt lat="43.23511" lon="5.66814">
        <ele>409.7</ele>
        <time>2014-10-08T12:45:02Z</time>
      </trkpt>
      <trkpt lat="43.23509" lon="5.66819">
        <ele>408.2</ele>
        <time>2014-10-08T12:45:06Z</time>
      </trkpt>
      <trkpt lat="43.23508" lon="5.66823">
        <ele>407.5</ele>
        <time>2014-10-08T12:45:09Z</time>
      </trkpt>
      <trkpt lat="43.23507" lon="5.66828">
        <ele>408</ele>
        <time>2014-10-08T12:45:11Z</time>
      </trkpt>
      <trkpt lat="43.23507" lon="5.66833">
        <ele>408.2</ele>
        <time>2014-10-08T12:45:14Z</time>
      </trkpt>
      <trkpt lat="43.23505" lon="5.66839">
        <ele>407.1</ele>
        <time>2014-10-08T12:45:18Z</time>
      </trkpt>
      <trkpt lat="43.23504" lon="5.66844">
        <ele>406</ele>
        <time>2014-10-08T12:45:22Z</time>
      </trkpt>
      <trkpt lat="43.23502" lon="5.66848">
        <ele>406.3</ele>
        <time>2014-10-08T12:45:24Z</time>
      </trkpt>
      <trkpt lat="43.23501" lon="5.66852">
        <ele>405.8</ele>
        <time>2014-10-08T12:45:27Z</time>
      </trkpt>
      <trkpt lat="43.235" lon="5.66857">
        <ele>405.3</ele>
        <time>2014-10-08T12:45:30Z</time>
      </trkpt>
      <trkpt lat="43.235" lon="5.66863">
        <ele>405.2</ele>
        <time>2014-10-08T12:45:34Z</time>
      </trkpt>
      <trkpt lat="43.23498" lon="5.66868">
        <ele>405.6</ele>
        <time>2014-10-08T12:45:37Z</time>
      </trkpt>
      <trkpt lat="43.23497" lon="5.66874">
        <ele>406.5</ele>
        <time>2014-10-08T12:45:41Z</time>
      </trkpt>
      <trkpt lat="43.23496" lon="5.66879">
        <ele>407.7</ele>
        <time>2014-10-08T12:45:45Z</time>
      </trkpt>
      <trkpt lat="43.23496" lon="5.66885">
        <ele>407.1</ele>
        <time>2014-10-08T12:45:49Z</time>
      </trkpt>
      <trkpt lat="43.23496" lon="5.66889">
        <ele>407.6</ele>
        <time>2014-10-08T12:45:52Z</time>
      </trkpt>
      <trkpt lat="43.23495" lon="5.66895">
        <ele>408.1</ele>
        <time>2014-10-08T12:45:55Z</time>
      </trkpt>
      <trkpt lat="43.23495" lon="5.66901">
        <ele>407.7</ele>
        <time>2014-10-08T12:45:58Z</time>
      </trkpt>
      <trkpt lat="43.23495" lon="5.66902">
        <ele>407.7</ele>
        <time>2014-10-08T12:45:59Z</time>
      </trkpt>
    </trkseg>
  </trk>
</gpx>